Wetterdaten: aktuell Mittwoch, 27.09.2023 15:49
Datum Zeit Temp. 2m Temp. 5cm Temp. 0cm Temp. -10cm Feuchte A. Feucht 0cm Feucht -10cm Luftdruck Regen Wind Richtung Richtung Sonnenschein ET UV Solar Taupunkt Windchill Windben Empfang
27.09.2023 15:49 23,6 C 27,2 C 22,8 C 16,1 C 50 % 200 cb 12 cb 1021,4 hPa 0,0 l/m 4,8 km/h (1 Bft) SO 135 1 min 0,000 mm 1,7 UV-I 360 W/m 12,6 C 23,6 C 11,3 km/h (2 Bft) 91,30 %
27.09.2023 15:48 23,5 C 26,7 C 22,2 C 16,1 C 50 % 200 cb 12 cb 1021,4 hPa 0,0 l/m 6,4 km/h (2 Bft) S-SO 157 1 min 0,000 mm 1,8 UV-I 362 W/m 12,5 C 23,5 C 11,3 km/h (2 Bft) 91,30 %
27.09.2023 15:47 23,4 C 26,7 C 22,2 C 16,1 C 47 % 200 cb 12 cb 1021,4 hPa 0,0 l/m 6,4 km/h (2 Bft) S-SO 157 1 min 0,000 mm 1,8 UV-I 364 W/m 11,4 C 23,4 C 11,3 km/h (2 Bft) 95,65 %
27.09.2023 15:46 23,3 C 26,7 C 22,2 C 16,1 C 48 % 200 cb 12 cb 1021,4 hPa 0,0 l/m 3,2 km/h (1 Bft) O-SO 112 1 min 0,000 mm 1,8 UV-I 366 W/m 11,7 C 23,3 C 4,8 km/h (1 Bft) 91,30 %
27.09.2023 15:45 23,3 C 26,7 C 22,2 C 16,1 C 47 % 200 cb 12 cb 1021,4 hPa 0,0 l/m 8,0 km/h (2 Bft) S 180 1 min 0,000 mm 1,8 UV-I 367 W/m 11,3 C 23,3 C 16,1 km/h (3 Bft) 95,65 %
27.09.2023 15:44 23,3 C 26,7 C 22,2 C 15,6 C 46 % 200 cb 12 cb 1021,2 hPa 0,0 l/m 11,3 km/h (2 Bft) SW 225 1 min 0,000 mm 1,8 UV-I 369 W/m 11,0 C 23,3 C 22,5 km/h (4 Bft) 91,30 %
27.09.2023 15:43 23,3 C 26,7 C 22,2 C 16,1 C 45 % 200 cb 12 cb 1021,3 hPa 0,0 l/m 11,3 km/h (2 Bft) W 270 1 min 0,000 mm 1,9 UV-I 373 W/m 10,7 C 23,3 C 17,7 km/h (3 Bft) 86,96 %
27.09.2023 15:42 23,4 C 26,7 C 22,2 C 16,1 C 47 % 200 cb 12 cb 1021,5 hPa 0,0 l/m 8,0 km/h (2 Bft) W 270 1 min 0,000 mm 1,9 UV-I 373 W/m 11,4 C 23,4 C 16,1 km/h (3 Bft) 91,30 %
27.09.2023 15:41 23,4 C 26,7 C 22,2 C 15,6 C 46 % 200 cb 12 cb 1021,5 hPa 0,0 l/m 9,7 km/h (2 Bft) W-NW 292 1 min 0,000 mm 1,9 UV-I 380 W/m 11,1 C 23,4 C 17,7 km/h (3 Bft) 95,65 %
27.09.2023 15:40 23,4 C 26,1 C 22,2 C 15,6 C 47 % 200 cb 12 cb 1021,5 hPa 0,0 l/m 6,4 km/h (2 Bft) W-NW 292 1 min 0,000 mm 1,9 UV-I 376 W/m 11,4 C 23,4 C 8,0 km/h (2 Bft) 86,96 %
27.09.2023 15:39 23,4 C 26,1 C 21,7 C 15,6 C 45 % 200 cb 12 cb 1021,4 hPa 0,0 l/m 9,7 km/h (2 Bft) W 270 1 min 0,000 mm 1,9 UV-I 378 W/m 10,8 C 23,4 C 16,1 km/h (3 Bft) 91,30 %
27.09.2023 15:38 23,4 C 26,1 C 21,7 C 15,6 C 45 % 200 cb 12 cb 1021,5 hPa 0,0 l/m 3,2 km/h (1 Bft) O 90 1 min 0,000 mm 1,9 UV-I 380 W/m 10,8 C 23,4 C 8,0 km/h (2 Bft) 82,61 %
27.09.2023 15:37 23,4 C 26,1 C 21,7 C 15,6 C 47 % 200 cb 12 cb 1021,5 hPa 0,0 l/m 4,8 km/h (1 Bft) N-NW 337 1 min 0,000 mm 1,9 UV-I 380 W/m 11,4 C 23,4 C 8,0 km/h (2 Bft) 95,65 %
27.09.2023 15:36 23,3 C 25,6 C 21,7 C 15,6 C 47 % 200 cb 12 cb 1021,4 hPa 0,0 l/m 3,2 km/h (1 Bft) W-SW 247 1 min 0,000 mm 2,0 UV-I 383 W/m 11,3 C 23,3 C 6,4 km/h (2 Bft) 86,96 %
27.09.2023 15:35 23,3 C 25,6 C 21,7 C 15,6 C 47 % 200 cb 12 cb 1021,5 hPa 0,0 l/m 6,4 km/h (2 Bft) O-SO 112 1 min 0,000 mm 2,0 UV-I 385 W/m 11,3 C 23,3 C 8,0 km/h (2 Bft) 86,96 %
27.09.2023 15:34 23,2 C 25,0 C 21,7 C 15,6 C 46 % 200 cb 12 cb 1021,6 hPa 0,0 l/m 4,8 km/h (1 Bft) S-SW 202 1 min 0,000 mm 2,0 UV-I 387 W/m 10,9 C 23,2 C 11,3 km/h (2 Bft) 91,30 %
27.09.2023 15:33 23,3 C 25,0 C 21,1 C 15,6 C 45 % 200 cb 12 cb 1021,6 hPa 0,0 l/m 6,4 km/h (2 Bft) SW 225 1 min 0,000 mm 2,0 UV-I 387 W/m 10,7 C 23,3 C 17,7 km/h (3 Bft) 91,30 %
27.09.2023 15:32 23,4 C 25,0 C 21,1 C 15,6 C 47 % 200 cb 12 cb 1021,5 hPa 0,0 l/m 16,1 km/h (3 Bft) S-SW 202 1 min 0,000 mm 2,1 UV-I 390 W/m 11,4 C 23,4 C 20,9 km/h (4 Bft) 86,96 %
27.09.2023 15:31 23,4 C 24,4 C 21,1 C 15,6 C 48 % 200 cb 12 cb 1021,6 hPa 0,0 l/m 8,0 km/h (2 Bft) SW 225 1 min 0,000 mm 2,1 UV-I 394 W/m 11,8 C 23,4 C 16,1 km/h (3 Bft) 86,96 %
27.09.2023 15:30 23,4 C 23,9 C 21,1 C 15,6 C 47 % 200 cb 12 cb 1021,6 hPa 0,0 l/m 8,0 km/h (2 Bft) S-SW 202 1 min 0,000 mm 2,1 UV-I 396 W/m 11,4 C 23,4 C 11,3 km/h (2 Bft) 91,30 %
27.09.2023 15:29 23,4 C 23,9 C 20,6 C 15,6 C 47 % 200 cb 12 cb 1021,6 hPa 0,0 l/m 11,3 km/h (2 Bft) SW 225 1 min 0,000 mm 2,1 UV-I 399 W/m 11,4 C 23,4 C 20,9 km/h (4 Bft) 91,30 %
27.09.2023 15:28 23,4 C 23,3 C 20,6 C 15,6 C 47 % 200 cb 12 cb 1021,5 hPa 0,0 l/m 17,7 km/h (3 Bft) S-SW 202 1 min 0,000 mm 2,1 UV-I 399 W/m 11,4 C 23,4 C 29,0 km/h (5 Bft) 91,30 %
27.09.2023 15:27 23,3 C 23,3 C 20,6 C 15,6 C 48 % 200 cb 12 cb 1021,7 hPa 0,0 l/m 16,1 km/h (3 Bft) S 180 1 min 0,000 mm 2,1 UV-I 399 W/m 11,7 C 23,3 C 22,5 km/h (4 Bft) 86,96 %
27.09.2023 15:26 23,4 C 22,8 C 20,6 C 15,6 C 46 % 200 cb 12 cb 1021,6 hPa 0,0 l/m 8,0 km/h (2 Bft) S-SO 157 1 min 0,000 mm 2,1 UV-I 401 W/m 11,1 C 23,4 C 22,5 km/h (4 Bft) 91,30 %
27.09.2023 15:25 23,4 C 22,8 C 20,6 C 15,6 C 49 % 200 cb 12 cb 1021,7 hPa 0,0 l/m 3,2 km/h (1 Bft) S 180 1 min 0,000 mm 2,2 UV-I 404 W/m 12,1 C 23,4 C 6,4 km/h (2 Bft) 91,30 %
27.09.2023 15:24 23,4 C 22,8 C 20,6 C 15,6 C 45 % 200 cb 12 cb 1021,6 hPa 0,0 l/m 3,2 km/h (1 Bft) NO 45 1 min 0,000 mm 2,2 UV-I 408 W/m 10,8 C 23,4 C 6,4 km/h (2 Bft) 91,30 %
27.09.2023 15:23 23,6 C 22,2 C 20,6 C 15,6 C 47 % 200 cb 12 cb 1021,7 hPa 0,0 l/m 4,8 km/h (1 Bft) S-SO 157 1 min 0,000 mm 2,2 UV-I 410 W/m 11,6 C 23,6 C 14,5 km/h (3 Bft) 91,30 %
27.09.2023 15:22 23,6 C 22,2 C 20,6 C 15,6 C 49 % 200 cb 12 cb 1021,6 hPa 0,0 l/m 8,0 km/h (2 Bft) S-SO 157 1 min 0,000 mm 2,2 UV-I 410 W/m 12,2 C 23,6 C 11,3 km/h (2 Bft) 86,96 %
27.09.2023 15:21 23,6 C 22,2 C 21,1 C 15,6 C 47 % 200 cb 12 cb 1021,6 hPa 0,0 l/m 6,4 km/h (2 Bft) S-SW 202 1 min 0,000 mm 2,2 UV-I 411 W/m 11,6 C 23,6 C 9,7 km/h (2 Bft) 86,96 %
27.09.2023 15:20 23,6 C 22,2 C 21,1 C 15,6 C 49 % 200 cb 12 cb 1021,7 hPa 0,0 l/m 11,3 km/h (2 Bft) S-SW 202 1 min 0,000 mm 2,2 UV-I 413 W/m 12,2 C 23,6 C 17,7 km/h (3 Bft) 91,30 %
27.09.2023 15:19 23,4 C 22,2 C 21,1 C 15,6 C 51 % 200 cb 12 cb 1021,7 hPa 0,0 l/m 4,8 km/h (1 Bft) S 180 1 min 0,000 mm 2,2 UV-I 413 W/m 12,7 C 23,4 C 12,9 km/h (3 Bft) 91,30 %
27.09.2023 15:18 23,3 C 22,2 C 21,1 C 15,6 C 47 % 200 cb 12 cb 1021,7 hPa 0,0 l/m 6,4 km/h (2 Bft) S-SW 202 1 min 0,000 mm 2,3 UV-I 415 W/m 11,3 C 23,3 C 12,9 km/h (3 Bft) 91,30 %
27.09.2023 15:17 23,2 C 22,2 C 21,7 C 15,6 C 46 % 200 cb 12 cb 1021,7 hPa 0,0 l/m 6,4 km/h (2 Bft) S-SO 157 1 min 0,000 mm 2,3 UV-I 413 W/m 10,9 C 23,2 C 17,7 km/h (3 Bft) 91,30 %
27.09.2023 15:16 23,2 C 22,2 C 21,7 C 15,6 C 47 % 200 cb 12 cb 1021,7 hPa 0,0 l/m 14,5 km/h (3 Bft) S-SW 202 1 min 0,000 mm 2,3 UV-I 417 W/m 11,3 C 23,2 C 24,1 km/h (4 Bft) 82,61 %
27.09.2023 15:15 23,2 C 22,2 C 21,7 C 15,6 C 48 % 200 cb 12 cb 1021,7 hPa 0,0 l/m 9,7 km/h (2 Bft) S-SO 157 1 min 0,000 mm 2,3 UV-I 420 W/m 11,6 C 23,2 C 19,3 km/h (3 Bft) 91,30 %
27.09.2023 15:14 23,2 C 22,8 C 21,7 C 15,6 C 47 % 200 cb 12 cb 1021,8 hPa 0,0 l/m 6,4 km/h (2 Bft) S 180 1 min 0,000 mm 2,3 UV-I 424 W/m 11,3 C 23,2 C 9,7 km/h (2 Bft) 91,30 %
27.09.2023 15:13 23,2 C 22,8 C 21,7 C 15,6 C 50 % 200 cb 12 cb 1021,7 hPa 0,0 l/m 3,2 km/h (1 Bft) N-NO 22 1 min 0,000 mm 2,3 UV-I 422 W/m 12,2 C 23,2 C 6,4 km/h (2 Bft) 86,96 %
27.09.2023 15:12 23,2 C 22,8 C 22,2 C 15,6 C 45 % 200 cb 12 cb 1021,9 hPa 0,0 l/m 9,7 km/h (2 Bft) N 360 1 min 0,000 mm 2,3 UV-I 420 W/m 10,6 C 23,2 C 24,1 km/h (4 Bft) 86,96 %
27.09.2023 15:11 23,3 C 23,3 C 22,2 C 15,6 C 47 % 200 cb 12 cb 1021,9 hPa 0,0 l/m 16,1 km/h (3 Bft) S-SW 202 1 min 0,000 mm 2,4 UV-I 425 W/m 11,3 C 23,3 C 22,5 km/h (4 Bft) 86,96 %
27.09.2023 15:10 23,3 C 23,3 C 22,2 C 15,6 C 46 % 200 cb 12 cb 1022,0 hPa 0,0 l/m 17,7 km/h (3 Bft) SW 225 1 min 0,000 mm 2,4 UV-I 425 W/m 11,0 C 23,3 C 27,4 km/h (4 Bft) 82,61 %
27.09.2023 15:09 23,4 C 23,9 C 22,2 C 15,6 C 47 % 200 cb 12 cb 1021,8 hPa 0,0 l/m 9,7 km/h (2 Bft) S 180 1 min 0,000 mm 2,4 UV-I 427 W/m 11,4 C 23,4 C 24,1 km/h (4 Bft) 91,30 %
27.09.2023 15:08 23,6 C 23,9 C 22,2 C 15,6 C 46 % 200 cb 12 cb 1021,9 hPa 0,0 l/m 6,4 km/h (2 Bft) O 90 1 min 0,000 mm 2,4 UV-I 425 W/m 11,3 C 23,6 C 11,3 km/h (2 Bft) 91,30 %
27.09.2023 15:07 23,6 C 24,4 C 22,2 C 15,6 C 50 % 200 cb 12 cb 1021,9 hPa 0,0 l/m 4,8 km/h (1 Bft) O-SO 112 1 min 0,000 mm 2,4 UV-I 432 W/m 12,6 C 23,6 C 6,4 km/h (2 Bft) 91,30 %
27.09.2023 15:06 23,4 C 24,4 C 22,2 C 15,6 C 50 % 200 cb 12 cb 1021,9 hPa 0,0 l/m 3,2 km/h (1 Bft) S 180 1 min 0,000 mm 2,4 UV-I 432 W/m 12,4 C 23,4 C 6,4 km/h (2 Bft) 86,96 %
27.09.2023 15:05 23,3 C 24,4 C 22,2 C 15,6 C 51 % 200 cb 12 cb 1021,9 hPa 0,0 l/m 6,4 km/h (2 Bft) SO 135 1 min 0,000 mm 2,5 UV-I 434 W/m 12,6 C 23,3 C 12,9 km/h (3 Bft) 91,30 %
27.09.2023 15:04 23,2 C 25,0 C 22,2 C 15,6 C 47 % 200 cb 12 cb 1021,8 hPa 0,0 l/m 4,8 km/h (1 Bft) O-NO 67 1 min 0,000 mm 2,5 UV-I 434 W/m 11,3 C 23,2 C 9,7 km/h (2 Bft) 82,61 %
27.09.2023 15:03 23,3 C 25,0 C 22,2 C 15,6 C 46 % 200 cb 12 cb 1021,9 hPa 0,0 l/m 6,4 km/h (2 Bft) S-SW 202 1 min 0,000 mm 2,5 UV-I 432 W/m 11,0 C 23,3 C 12,9 km/h (3 Bft) 91,30 %
27.09.2023 15:02 23,1 C 25,6 C 22,2 C 15,6 C 48 % 200 cb 12 cb 1021,9 hPa 0,0 l/m 8,0 km/h (2 Bft) SW 225 1 min 0,000 mm 2,5 UV-I 436 W/m 11,5 C 23,1 C 11,3 km/h (2 Bft) 82,61 %
27.09.2023 15:01 23,0 C 25,6 C 22,2 C 15,6 C 46 % 200 cb 12 cb 1021,9 hPa 0,0 l/m 11,3 km/h (2 Bft) W 270 1 min 0,000 mm 2,5 UV-I 436 W/m 10,7 C 23,0 C 25,7 km/h (4 Bft) 86,96 %
27.09.2023 15:00 23,1 C 25,6 C 22,2 C 15,6 C 47 % 200 cb 12 cb 1021,8 hPa 0,0 l/m 12,9 km/h (3 Bft) W 270 1 min 0,381 mm 2,6 UV-I 438 W/m 11,2 C 23,1 C 29,0 km/h (5 Bft) 86,96 %
27.09.2023 14:59 23,1 C 25,6 C 22,2 C 15,6 C 47 % 200 cb 12 cb 1021,9 hPa 0,0 l/m 6,4 km/h (2 Bft) N 360 1 min 0,000 mm 2,6 UV-I 441 W/m 11,2 C 23,1 C 12,9 km/h (3 Bft) 82,61 %
27.09.2023 14:58 23,1 C 25,6 C 21,7 C 15,6 C 50 % 200 cb 12 cb 1021,9 hPa 0,0 l/m 3,2 km/h (1 Bft) N 360 1 min 0,000 mm 2,6 UV-I 443 W/m 12,1 C 23,1 C 4,8 km/h (1 Bft) 82,61 %
27.09.2023 14:57 22,9 C 25,6 C 21,7 C 15,6 C 48 % 200 cb 12 cb 1021,8 hPa 0,0 l/m 4,8 km/h (1 Bft) NW 315 1 min 0,000 mm 2,6 UV-I 445 W/m 11,3 C 22,9 C 11,3 km/h (2 Bft) 86,96 %
27.09.2023 14:56 23,0 C 25,0 C 21,7 C 15,6 C 48 % 200 cb 12 cb 1021,9 hPa 0,0 l/m 6,4 km/h (2 Bft) SO 135 1 min 0,000 mm 2,6 UV-I 446 W/m 11,4 C 23,0 C 12,9 km/h (3 Bft) 86,96 %
27.09.2023 14:55 22,9 C 25,0 C 21,1 C 15,6 C 51 % 200 cb 12 cb 1021,7 hPa 0,0 l/m 11,3 km/h (2 Bft) S-SW 202 1 min 0,000 mm 2,6 UV-I 450 W/m 12,2 C 22,9 C 16,1 km/h (3 Bft) 86,96 %
27.09.2023 14:54 22,9 C 25,0 C 21,1 C 15,6 C 48 % 200 cb 12 cb 1021,8 hPa 0,0 l/m 17,7 km/h (3 Bft) W 270 1 min 0,000 mm 2,6 UV-I 448 W/m 11,3 C 22,9 C 33,8 km/h (5 Bft) 91,30 %
27.09.2023 14:53 22,9 C 25,0 C 21,1 C 15,6 C 47 % 200 cb 12 cb 1021,8 hPa 0,0 l/m 17,7 km/h (3 Bft) W-NW 292 1 min 0,000 mm 2,7 UV-I 452 W/m 11,0 C 22,9 C 22,5 km/h (4 Bft) 82,61 %
27.09.2023 14:52 23,0 C 25,0 C 21,1 C 15,6 C 47 % 200 cb 12 cb 1021,9 hPa 0,0 l/m 20,9 km/h (4 Bft) W 270 1 min 0,000 mm 2,7 UV-I 457 W/m 11,1 C 23,0 C 33,8 km/h (5 Bft) 91,30 %
27.09.2023 14:51 23,1 C 25,0 C 21,1 C 15,6 C 47 % 200 cb 12 cb 1021,9 hPa 0,0 l/m 14,5 km/h (3 Bft) W 270 1 min 0,000 mm 2,7 UV-I 457 W/m 11,2 C 23,1 C 33,8 km/h (5 Bft) 91,30 %
27.09.2023 14:50 23,0 C 24,4 C 20,6 C 15,6 C 50 % 200 cb 12 cb 1022,0 hPa 0,0 l/m 8,0 km/h (2 Bft) NW 315 1 min 0,000 mm 2,7 UV-I 457 W/m 12,0 C 23,0 C 12,9 km/h (3 Bft) 91,30 %
27.09.2023 14:49 22,9 C 24,4 C 20,6 C 15,6 C 49 % 200 cb 12 cb 1022,0 hPa 0,0 l/m 9,7 km/h (2 Bft) W-NW 292 1 min 0,000 mm 2,7 UV-I 459 W/m 11,6 C 22,9 C 14,5 km/h (3 Bft) 86,96 %
27.09.2023 14:48 22,9 C 24,4 C 20,0 C 15,6 C 48 % 200 cb 12 cb 1021,9 hPa 0,0 l/m 19,3 km/h (3 Bft) W 270 1 min 0,000 mm 2,8 UV-I 459 W/m 11,3 C 22,9 C 27,4 km/h (4 Bft) 82,61 %
27.09.2023 14:47 22,9 C 23,9 C 20,0 C 15,6 C 48 % 200 cb 12 cb 1022,0 hPa 0,0 l/m 8,0 km/h (2 Bft) W-NW 292 1 min 0,000 mm 2,8 UV-I 461 W/m 11,3 C 22,9 C 20,9 km/h (4 Bft) 86,96 %
27.09.2023 14:46 22,8 C 23,3 C 19,4 C 15,6 C 49 % 200 cb 12 cb 1022,0 hPa 0,0 l/m 6,4 km/h (2 Bft) W 270 1 min 0,000 mm 2,8 UV-I 461 W/m 11,5 C 22,8 C 9,7 km/h (2 Bft) 91,30 %
27.09.2023 14:45 22,9 C 23,3 C 19,4 C 15,6 C 48 % 200 cb 12 cb 1022,1 hPa 0,0 l/m 9,7 km/h (2 Bft) W-NW 292 1 min 0,000 mm 2,7 UV-I 464 W/m 11,3 C 22,9 C 19,3 km/h (3 Bft) 86,96 %
27.09.2023 14:44 22,9 C 22,8 C 18,9 C 15,6 C 48 % 200 cb 12 cb 1022,0 hPa 0,0 l/m 8,0 km/h (2 Bft) N-NW 337 1 min 0,000 mm 2,8 UV-I 466 W/m 11,3 C 22,9 C 14,5 km/h (3 Bft) 86,96 %
27.09.2023 14:43 22,9 C 22,8 C 18,9 C 15,6 C 47 % 200 cb 12 cb 1022,0 hPa 0,0 l/m 14,5 km/h (3 Bft) W-NW 292 1 min 0,000 mm 2,8 UV-I 466 W/m 11,0 C 22,9 C 30,6 km/h (5 Bft) 91,30 %
27.09.2023 14:42 23,0 C 22,2 C 18,9 C 15,6 C 47 % 200 cb 12 cb 1022,1 hPa 0,0 l/m 11,3 km/h (2 Bft) W 270 1 min 0,000 mm 2,9 UV-I 466 W/m 11,1 C 23,0 C 19,3 km/h (3 Bft) 86,96 %
27.09.2023 14:41 23,1 C 21,7 C 18,9 C 15,6 C 47 % 200 cb 12 cb 1022,3 hPa 0,0 l/m 8,0 km/h (2 Bft) S 180 1 min 0,000 mm 2,9 UV-I 466 W/m 11,2 C 23,1 C 19,3 km/h (3 Bft) 91,30 %
27.09.2023 14:40 23,1 C 21,7 C 18,3 C 15,6 C 49 % 200 cb 12 cb 1022,1 hPa 0,0 l/m 11,3 km/h (2 Bft) SO 135 1 min 0,000 mm 2,9 UV-I 468 W/m 11,8 C 23,1 C 24,1 km/h (4 Bft) 86,96 %
27.09.2023 14:39 23,2 C 21,1 C 18,3 C 15,6 C 47 % 200 cb 12 cb 1022,1 hPa 0,0 l/m 11,3 km/h (2 Bft) NW 315 1 min 0,000 mm 2,6 UV-I 473 W/m 11,3 C 23,2 C 17,7 km/h (3 Bft) 91,30 %
27.09.2023 14:38 23,2 C 20,6 C 18,3 C 15,6 C 49 % 200 cb 12 cb 1022,1 hPa 0,0 l/m 4,8 km/h (1 Bft) SW 225 1 min 0,000 mm 2,9 UV-I 469 W/m 11,9 C 23,2 C 11,3 km/h (2 Bft) 95,65 %
27.09.2023 14:37 23,1 C 20,0 C 18,3 C 15,6 C 49 % 200 cb 12 cb 1022,2 hPa 0,0 l/m 12,9 km/h (3 Bft) S-SW 202 1 min 0,000 mm 2,9 UV-I 471 W/m 11,8 C 23,1 C 16,1 km/h (3 Bft) 91,30 %
27.09.2023 14:36 23,0 C 20,0 C 18,3 C 15,6 C 51 % 200 cb 12 cb 1022,1 hPa 0,0 l/m 3,2 km/h (1 Bft) S-SW 202 1 min 0,000 mm 2,9 UV-I 475 W/m 12,3 C 23,0 C 8,0 km/h (2 Bft) 95,65 %
27.09.2023 14:35 22,8 C 20,0 C 18,3 C 15,6 C 47 % 200 cb 12 cb 1022,1 hPa 0,0 l/m 1,6 km/h (1 Bft) SO 135 1 min 0,000 mm 3,0 UV-I 476 W/m 10,9 C 22,8 C 3,2 km/h (1 Bft) 95,65 %
27.09.2023 14:34 22,8 C 20,0 C 18,3 C 15,6 C 49 % 200 cb 12 cb 1022,1 hPa 0,0 l/m 3,2 km/h (1 Bft) W-SW 247 1 min 0,000 mm 3,0 UV-I 475 W/m 11,5 C 22,8 C 6,4 km/h (2 Bft) 91,30 %
27.09.2023 14:33 22,7 C 20,0 C 18,3 C 15,6 C 47 % 200 cb 12 cb 1022,1 hPa 0,0 l/m 4,8 km/h (1 Bft) S-SW 202 1 min 0,000 mm 2,3 UV-I 475 W/m 10,8 C 22,7 C 8,0 km/h (2 Bft) 95,65 %
27.09.2023 14:32 22,8 C 20,0 C 18,3 C 15,6 C 47 % 200 cb 12 cb 1022,2 hPa 0,0 l/m 9,7 km/h (2 Bft) SW 225 1 min 0,000 mm 3,0 UV-I 478 W/m 10,9 C 22,8 C 12,9 km/h (3 Bft) 95,65 %
27.09.2023 14:31 22,8 C 20,0 C 18,3 C 15,6 C 46 % 200 cb 12 cb 1022,2 hPa 0,0 l/m 12,9 km/h (3 Bft) W 270 1 min 0,000 mm 3,0 UV-I 478 W/m 10,6 C 22,8 C 19,3 km/h (3 Bft) 91,30 %
27.09.2023 14:30 22,9 C 20,0 C 18,3 C 15,6 C 47 % 200 cb 12 cb 1022,0 hPa 0,0 l/m 20,9 km/h (4 Bft) W 270 1 min 0,000 mm 3,0 UV-I 483 W/m 11,0 C 22,9 C 41,8 km/h (6 Bft) 91,30 %
27.09.2023 14:29 23,0 C 19,4 C 18,3 C 15,6 C 47 % 200 cb 12 cb 1022,2 hPa 0,0 l/m 19,3 km/h (3 Bft) W-NW 292 1 min 0,000 mm 3,1 UV-I 483 W/m 11,1 C 23,0 C 33,8 km/h (5 Bft) 95,65 %
27.09.2023 14:28 23,1 C 19,4 C 18,3 C 15,6 C 48 % 200 cb 12 cb 1022,2 hPa 0,0 l/m 9,7 km/h (2 Bft) W 270 1 min 0,000 mm 3,1 UV-I 483 W/m 11,5 C 23,1 C 19,3 km/h (3 Bft) 95,65 %
27.09.2023 14:27 23,2 C 19,4 C 18,3 C 15,6 C 48 % 200 cb 12 cb 1022,2 hPa 0,0 l/m 9,7 km/h (2 Bft) W 270 1 min 0,000 mm 3,1 UV-I 483 W/m 11,6 C 23,2 C 14,5 km/h (3 Bft) 91,30 %
27.09.2023 14:26 23,3 C 19,4 C 18,3 C 15,6 C 50 % 200 cb 12 cb 1022,2 hPa 0,0 l/m 12,9 km/h (3 Bft) S 180 1 min 0,000 mm 3,1 UV-I 485 W/m 12,3 C 23,3 C 20,9 km/h (4 Bft) 86,96 %
27.09.2023 14:25 23,3 C 19,4 C 18,3 C 15,6 C 50 % 200 cb 12 cb 1022,2 hPa 0,0 l/m 8,0 km/h (2 Bft) S 180 1 min 0,000 mm 3,1 UV-I 485 W/m 12,3 C 23,3 C 19,3 km/h (3 Bft) 95,65 %
27.09.2023 14:24 23,3 C 19,4 C 18,3 C 15,6 C 52 % 200 cb 12 cb 1022,4 hPa 0,0 l/m 11,3 km/h (2 Bft) S-SW 202 1 min 0,000 mm 3,1 UV-I 489 W/m 12,9 C 23,3 C 12,9 km/h (3 Bft) 91,30 %
27.09.2023 14:23 23,1 C 19,4 C 18,3 C 15,6 C 54 % 200 cb 12 cb 1022,2 hPa 0,0 l/m 9,7 km/h (2 Bft) S 180 1 min 0,000 mm 3,1 UV-I 490 W/m 13,3 C 23,1 C 14,5 km/h (3 Bft) 91,30 %
27.09.2023 14:22 22,9 C 19,4 C 18,3 C 15,6 C 53 % 200 cb 12 cb 1022,2 hPa 0,0 l/m 9,7 km/h (2 Bft) S 180 1 min 0,000 mm 3,1 UV-I 490 W/m 12,8 C 22,9 C 16,1 km/h (3 Bft) 95,65 %
27.09.2023 14:21 22,8 C 20,0 C 18,3 C 15,6 C 48 % 200 cb 12 cb 1022,2 hPa 0,0 l/m 4,8 km/h (1 Bft) O 90 1 min 0,000 mm 3,0 UV-I 492 W/m 11,2 C 22,8 C 6,4 km/h (2 Bft) 95,65 %
27.09.2023 14:20 22,9 C 20,0 C 18,3 C 15,6 C 48 % 200 cb 12 cb 1022,2 hPa 0,0 l/m 4,8 km/h (1 Bft) S 180 1 min 0,000 mm 2,7 UV-I 494 W/m 11,3 C 22,9 C 6,4 km/h (2 Bft) 91,30 %
27.09.2023 14:19 22,8 C 20,0 C 18,3 C 15,6 C 50 % 200 cb 12 cb 1022,1 hPa 0,0 l/m 6,4 km/h (2 Bft) SO 135 1 min 0,000 mm 2,8 UV-I 492 W/m 11,8 C 22,8 C 14,5 km/h (3 Bft) 91,30 %
27.09.2023 14:18 22,7 C 20,0 C 18,3 C 15,6 C 50 % 200 cb 12 cb 1022,4 hPa 0,0 l/m 9,7 km/h (2 Bft) S 180 1 min 0,000 mm 2,8 UV-I 496 W/m 11,7 C 22,7 C 14,5 km/h (3 Bft) 91,30 %
27.09.2023 14:17 22,7 C 20,0 C 18,3 C 15,6 C 50 % 200 cb 12 cb 1022,2 hPa 0,0 l/m 9,7 km/h (2 Bft) O-SO 112 1 min 0,000 mm 3,2 UV-I 497 W/m 11,7 C 22,7 C 16,1 km/h (3 Bft) 86,96 %
27.09.2023 14:16 22,6 C 20,0 C 18,3 C 15,6 C 48 % 200 cb 12 cb 1022,2 hPa 0,0 l/m 12,9 km/h (3 Bft) NW 315 1 min 0,000 mm 3,1 UV-I 496 W/m 11,0 C 22,6 C 19,3 km/h (3 Bft) 91,30 %
27.09.2023 14:15 22,7 C 20,0 C 18,3 C 15,6 C 48 % 200 cb 12 cb 1022,2 hPa 0,0 l/m 17,7 km/h (3 Bft) W 270 1 min 0,000 mm 2,5 UV-I 497 W/m 11,1 C 22,7 C 30,6 km/h (5 Bft) 91,30 %
27.09.2023 14:14 22,8 C 20,0 C 18,3 C 15,6 C 49 % 200 cb 12 cb 1022,2 hPa 0,0 l/m 24,1 km/h (4 Bft) W 270 1 min 0,000 mm 2,5 UV-I 503 W/m 11,5 C 22,8 C 40,2 km/h (6 Bft) 86,96 %
27.09.2023 14:13 22,8 C 20,0 C 18,3 C 15,6 C 48 % 200 cb 12 cb 1022,3 hPa 0,0 l/m 9,7 km/h (2 Bft) W-NW 292 1 min 0,000 mm 3,2 UV-I 503 W/m 11,2 C 22,8 C 24,1 km/h (4 Bft) 91,30 %
27.09.2023 14:12 22,8 C 20,0 C 18,3 C 15,6 C 52 % 200 cb 12 cb 1022,3 hPa 0,0 l/m 6,4 km/h (2 Bft) SW 225 1 min 0,000 mm 3,2 UV-I 503 W/m 12,4 C 22,8 C 14,5 km/h (3 Bft) 95,65 %
27.09.2023 14:11 22,7 C 20,0 C 18,3 C 15,6 C 48 % 200 cb 12 cb 1022,1 hPa 0,0 l/m 12,9 km/h (3 Bft) W-NW 292 1 min 0,000 mm 3,3 UV-I 503 W/m 11,1 C 22,7 C 29,0 km/h (5 Bft) 91,30 %
27.09.2023 14:10 22,7 C 20,0 C 18,3 C 15,6 C 50 % 200 cb 12 cb 1022,4 hPa 0,0 l/m 17,7 km/h (3 Bft) W-NW 292 1 min 0,000 mm 3,3 UV-I 504 W/m 11,7 C 22,7 C 32,2 km/h (5 Bft) 95,65 %
27.09.2023 14:09 22,7 C 20,0 C 18,3 C 15,6 C 51 % 200 cb 12 cb 1022,3 hPa 0,0 l/m 17,7 km/h (3 Bft) S-SW 202 1 min 0,000 mm 3,3 UV-I 504 W/m 12,0 C 22,7 C 29,0 km/h (5 Bft) 82,61 %
27.09.2023 14:08 22,6 C 20,0 C 18,3 C 15,6 C 51 % 200 cb 12 cb 1022,5 hPa 0,0 l/m 17,7 km/h (3 Bft) S-SO 157 1 min 0,000 mm 3,3 UV-I 504 W/m 11,9 C 22,6 C 30,6 km/h (5 Bft) 95,65 %
27.09.2023 14:07 22,6 C 20,0 C 18,3 C 15,6 C 49 % 200 cb 12 cb 1022,3 hPa 0,0 l/m 6,4 km/h (2 Bft) N-NW 337 1 min 0,000 mm 3,3 UV-I 508 W/m 11,3 C 22,6 C 9,7 km/h (2 Bft) 91,30 %
27.09.2023 14:06 22,6 C 20,0 C 18,3 C 15,6 C 50 % 200 cb 12 cb 1022,3 hPa 0,0 l/m 6,4 km/h (2 Bft) N-NO 22 1 min 0,000 mm 3,3 UV-I 510 W/m 11,6 C 22,6 C 11,3 km/h (2 Bft) 91,30 %
27.09.2023 14:05 22,6 C 20,0 C 18,3 C 15,6 C 49 % 200 cb 12 cb 1022,4 hPa 0,0 l/m 11,3 km/h (2 Bft) NW 315 1 min 0,000 mm 2,7 UV-I 476 W/m 11,3 C 22,6 C 17,7 km/h (3 Bft) 95,65 %
27.09.2023 14:04 22,5 C 19,4 C 18,3 C 15,6 C 50 % 200 cb 12 cb 1022,4 hPa 0,0 l/m 14,5 km/h (3 Bft) NW 315 1 min 0,000 mm 2,7 UV-I 504 W/m 11,5 C 22,5 C 17,7 km/h (3 Bft) 91,30 %
27.09.2023 14:03 22,5 C 19,4 C 18,3 C 15,6 C 49 % 200 cb 12 cb 1022,4 hPa 0,0 l/m 16,1 km/h (3 Bft) W 270 1 min 0,000 mm 3,3 UV-I 510 W/m 11,2 C 22,5 C 24,1 km/h (4 Bft) 91,30 %
27.09.2023 14:02 22,6 C 19,4 C 18,3 C 15,6 C 48 % 200 cb 12 cb 1022,5 hPa 0,0 l/m 19,3 km/h (3 Bft) W 270 1 min 0,000 mm 3,4 UV-I 510 W/m 11,0 C 22,6 C 25,7 km/h (4 Bft) 91,30 %
27.09.2023 14:01 22,7 C 19,4 C 18,3 C 15,6 C 49 % 200 cb 12 cb 1022,4 hPa 0,0 l/m 17,7 km/h (3 Bft) W-NW 292 1 min 0,000 mm 3,2 UV-I 512 W/m 11,4 C 22,7 C 25,7 km/h (4 Bft) 86,96 %
27.09.2023 14:00 22,7 C 18,9 C 18,3 C 15,6 C 50 % 200 cb 12 cb 1022,4 hPa 0,0 l/m 17,7 km/h (3 Bft) NW 315 1 min 0,381 mm 3,4 UV-I 515 W/m 11,7 C 22,7 C 30,6 km/h (5 Bft) 91,30 %
27.09.2023 13:59 22,7 C 18,9 C 18,3 C 15,6 C 48 % 200 cb 12 cb 1022,5 hPa 0,0 l/m 8,0 km/h (2 Bft) S 180 1 min 0,000 mm 3,2 UV-I 513 W/m 11,1 C 22,7 C 27,4 km/h (4 Bft) 95,65 %
27.09.2023 13:58 22,8 C 18,9 C 18,3 C 15,6 C 50 % 200 cb 12 cb 1022,5 hPa 0,0 l/m 8,0 km/h (2 Bft) W-NW 292 1 min 0,000 mm 3,2 UV-I 515 W/m 11,8 C 22,8 C 14,5 km/h (3 Bft) 91,30 %
27.09.2023 13:57 22,8 C 18,9 C 18,3 C 15,6 C 50 % 200 cb 12 cb 1022,5 hPa 0,0 l/m 11,3 km/h (2 Bft) W 270 1 min 0,000 mm 3,4 UV-I 515 W/m 11,8 C 22,8 C 19,3 km/h (3 Bft) 95,65 %
27.09.2023 13:56 22,8 C 18,9 C 18,3 C 15,6 C 50 % 200 cb 12 cb 1022,4 hPa 0,0 l/m 11,3 km/h (2 Bft) S-SW 202 1 min 0,000 mm 3,0 UV-I 461 W/m 11,8 C 22,8 C 24,1 km/h (4 Bft) 95,65 %
27.09.2023 13:55 22,8 C 18,9 C 18,3 C 15,6 C 51 % 200 cb 12 cb 1022,5 hPa 0,0 l/m 6,4 km/h (2 Bft) S-SO 157 1 min 0,000 mm 2,6 UV-I 515 W/m 12,1 C 22,8 C 11,3 km/h (2 Bft) 95,65 %
27.09.2023 13:54 22,8 C 18,9 C 18,3 C 15,6 C 50 % 200 cb 12 cb 1022,5 hPa 0,0 l/m 9,7 km/h (2 Bft) S 180 1 min 0,000 mm 2,6 UV-I 513 W/m 11,8 C 22,8 C 16,1 km/h (3 Bft) 95,65 %
27.09.2023 13:53 22,8 C 18,9 C 18,3 C 15,6 C 54 % 200 cb 12 cb 1022,6 hPa 0,0 l/m 11,3 km/h (2 Bft) SW 225 1 min 0,000 mm 2,5 UV-I 489 W/m 13,0 C 22,8 C 24,1 km/h (4 Bft) 91,30 %
27.09.2023 13:52 22,7 C 18,9 C 18,3 C 15,6 C 51 % 200 cb 12 cb 1022,5 hPa 0,0 l/m 12,9 km/h (3 Bft) S-SW 202 1 min 0,000 mm 2,7 UV-I 489 W/m 12,0 C 22,7 C 19,3 km/h (3 Bft) 95,65 %
27.09.2023 13:51 22,6 C 18,9 C 18,3 C 15,6 C 51 % 200 cb 12 cb 1022,4 hPa 0,0 l/m 14,5 km/h (3 Bft) W 270 1 min 0,000 mm 3,5 UV-I 466 W/m 11,9 C 22,6 C 24,1 km/h (4 Bft) 95,65 %
27.09.2023 13:50 22,5 C 18,9 C 18,3 C 15,6 C 49 % 200 cb 12 cb 1022,4 hPa 0,0 l/m 17,7 km/h (3 Bft) W 270 1 min 0,000 mm 2,6 UV-I 522 W/m 11,2 C 22,5 C 25,7 km/h (4 Bft) 95,65 %
27.09.2023 13:49 22,5 C 18,9 C 18,3 C 15,6 C 49 % 200 cb 12 cb 1022,4 hPa 0,0 l/m 14,5 km/h (3 Bft) W 270 1 min 0,000 mm 3,5 UV-I 520 W/m 11,2 C 22,5 C 20,9 km/h (4 Bft) 91,30 %
27.09.2023 13:48 22,6 C 18,9 C 18,3 C 15,6 C 47 % 200 cb 12 cb 1022,6 hPa 0,0 l/m 24,1 km/h (4 Bft) W-SW 247 1 min 0,000 mm 3,4 UV-I 483 W/m 10,7 C 22,6 C 35,4 km/h (5 Bft) 95,65 %
27.09.2023 13:47 22,7 C 18,9 C 18,3 C 15,6 C 49 % 200 cb 12 cb 1022,4 hPa 0,0 l/m 12,9 km/h (3 Bft) W 270 1 min 0,000 mm 3,2 UV-I 483 W/m 11,4 C 22,7 C 24,1 km/h (4 Bft) 86,96 %
27.09.2023 13:46 22,7 C 18,3 C 18,3 C 15,6 C 48 % 200 cb 12 cb 1022,6 hPa 0,0 l/m 4,8 km/h (1 Bft) W 270 1 min 0,000 mm 3,5 UV-I 524 W/m 11,1 C 22,7 C 8,0 km/h (2 Bft) 91,30 %
27.09.2023 13:45 22,7 C 18,9 C 18,3 C 15,6 C 53 % 200 cb 12 cb 1022,5 hPa 0,0 l/m 8,0 km/h (2 Bft) S-SW 202 1 min 0,000 mm 3,2 UV-I 520 W/m 12,6 C 22,7 C 11,3 km/h (2 Bft) 91,30 %
27.09.2023 13:44 22,6 C 18,9 C 18,3 C 15,6 C 50 % 200 cb 12 cb 1022,6 hPa 0,0 l/m 9,7 km/h (2 Bft) S 180 1 min 0,000 mm 3,2 UV-I 522 W/m 11,6 C 22,6 C 14,5 km/h (3 Bft) 95,65 %
27.09.2023 13:43 22,6 C 18,9 C 18,3 C 15,6 C 49 % 200 cb 12 cb 1022,6 hPa 0,0 l/m 8,0 km/h (2 Bft) O-SO 112 1 min 0,000 mm 2,9 UV-I 529 W/m 11,3 C 22,6 C 11,3 km/h (2 Bft) 95,65 %
27.09.2023 13:42 22,5 C 18,9 C 18,3 C 15,6 C 50 % 200 cb 12 cb 1022,5 hPa 0,0 l/m 16,1 km/h (3 Bft) W-NW 292 1 min 0,000 mm 3,5 UV-I 529 W/m 11,5 C 22,5 C 24,1 km/h (4 Bft) 91,30 %
27.09.2023 13:41 22,4 C 18,3 C 18,3 C 15,6 C 48 % 200 cb 12 cb 1022,6 hPa 0,0 l/m 12,9 km/h (3 Bft) W 270 1 min 0,000 mm 2,9 UV-I 524 W/m 10,8 C 22,4 C 22,5 km/h (4 Bft) 95,65 %
27.09.2023 13:40 22,6 C 18,3 C 18,3 C 15,6 C 49 % 200 cb 12 cb 1022,5 hPa 0,0 l/m 9,7 km/h (2 Bft) W 270 1 min 0,000 mm 3,1 UV-I 526 W/m 11,3 C 22,6 C 17,7 km/h (3 Bft) 95,65 %
27.09.2023 13:39 22,5 C 18,3 C 18,3 C 15,6 C 48 % 200 cb 12 cb 1022,7 hPa 0,0 l/m 12,9 km/h (3 Bft) W-NW 292 1 min 0,000 mm 3,1 UV-I 526 W/m 10,9 C 22,5 C 24,1 km/h (4 Bft) 95,65 %
27.09.2023 13:38 22,7 C 18,3 C 18,3 C 15,6 C 48 % 200 cb 12 cb 1022,6 hPa 0,0 l/m 14,5 km/h (3 Bft) SO 135 1 min 0,000 mm 3,2 UV-I 529 W/m 11,1 C 22,7 C 25,7 km/h (4 Bft) 95,65 %
27.09.2023 13:37 22,6 C 18,3 C 18,3 C 15,6 C 49 % 200 cb 12 cb 1022,5 hPa 0,0 l/m 9,7 km/h (2 Bft) NW 315 1 min 0,000 mm 2,9 UV-I 381 W/m 11,3 C 22,6 C 16,1 km/h (3 Bft) 86,96 %
27.09.2023 13:36 22,6 C 18,3 C 18,3 C 15,6 C 49 % 200 cb 12 cb 1022,5 hPa 0,0 l/m 8,0 km/h (2 Bft) NW 315 1 min 0,000 mm 3,0 UV-I 381 W/m 11,3 C 22,6 C 12,9 km/h (3 Bft) 82,61 %
27.09.2023 13:35 22,7 C 17,8 C 18,3 C 15,6 C 48 % 200 cb 12 cb 1022,6 hPa 0,0 l/m 6,4 km/h (2 Bft) O-SO 112 1 min 0,000 mm 2,8 UV-I 476 W/m 11,1 C 22,7 C 17,7 km/h (3 Bft) 91,30 %
27.09.2023 13:34 22,7 C 18,3 C 18,3 C 15,6 C 49 % 200 cb 12 cb 1022,5 hPa 0,0 l/m 12,9 km/h (3 Bft) S-SW 202 1 min 0,000 mm 2,9 UV-I 531 W/m 11,4 C 22,7 C 17,7 km/h (3 Bft) 91,30 %
27.09.2023 13:33 22,6 C 18,3 C 18,3 C 15,6 C 50 % 200 cb 12 cb 1022,7 hPa 0,0 l/m 11,3 km/h (2 Bft) SW 225 1 min 0,000 mm 3,7 UV-I 533 W/m 11,6 C 22,6 C 20,9 km/h (4 Bft) 95,65 %
27.09.2023 13:32 22,6 C 18,3 C 18,3 C 15,6 C 49 % 200 cb 12 cb 1022,7 hPa 0,0 l/m 4,8 km/h (1 Bft) O 90 1 min 0,000 mm 3,6 UV-I 533 W/m 11,3 C 22,6 C 6,4 km/h (2 Bft) 82,61 %
27.09.2023 13:31 22,6 C 18,3 C 18,3 C 15,6 C 50 % 200 cb 12 cb 1022,6 hPa 0,0 l/m 6,4 km/h (2 Bft) O-SO 112 1 min 0,000 mm 3,7 UV-I 534 W/m 11,6 C 22,6 C 11,3 km/h (2 Bft) 86,96 %
27.09.2023 13:30 22,6 C 18,3 C 18,3 C 15,6 C 49 % 200 cb 12 cb 1022,6 hPa 0,0 l/m 11,3 km/h (2 Bft) S-SW 202 1 min 0,000 mm 3,7 UV-I 536 W/m 11,3 C 22,6 C 20,9 km/h (4 Bft) 95,65 %
27.09.2023 13:29 22,7 C 18,3 C 18,3 C 15,6 C 48 % 200 cb 12 cb 1022,7 hPa 0,0 l/m 20,9 km/h (4 Bft) W-NW 292 1 min 0,000 mm 3,1 UV-I 538 W/m 11,1 C 22,7 C 37,0 km/h (5 Bft) 91,30 %
27.09.2023 13:28 22,7 C 18,3 C 18,3 C 15,6 C 52 % 200 cb 12 cb 1022,6 hPa 0,0 l/m 6,4 km/h (2 Bft) NW 315 1 min 0,000 mm 3,6 UV-I 536 W/m 12,3 C 22,7 C 11,3 km/h (2 Bft) 95,65 %
27.09.2023 13:27 22,7 C 18,3 C 18,3 C 15,6 C 50 % 200 cb 12 cb 1022,6 hPa 0,0 l/m 6,4 km/h (2 Bft) SW 225 1 min 0,000 mm 3,7 UV-I 510 W/m 11,7 C 22,7 C 12,9 km/h (3 Bft) 91,30 %
27.09.2023 13:26 22,6 C 17,8 C 18,3 C 15,6 C 49 % 200 cb 12 cb 1022,7 hPa 0,0 l/m 6,4 km/h (2 Bft) S-SW 202 1 min 0,000 mm 3,5 UV-I 480 W/m 11,3 C 22,6 C 11,3 km/h (2 Bft) 95,65 %
27.09.2023 13:25 22,7 C 18,3 C 18,3 C 15,6 C 50 % 200 cb 12 cb 1022,7 hPa 0,0 l/m 8,0 km/h (2 Bft) W-SW 247 1 min 0,000 mm 3,1 UV-I 538 W/m 11,7 C 22,7 C 17,7 km/h (3 Bft) 82,61 %
27.09.2023 13:24 22,8 C 18,3 C 18,3 C 15,6 C 53 % 200 cb 12 cb 1022,7 hPa 0,0 l/m 17,7 km/h (3 Bft) S-SW 202 1 min 0,000 mm 3,3 UV-I 534 W/m 12,7 C 22,8 C 25,7 km/h (4 Bft) 91,30 %
27.09.2023 13:23 22,7 C 18,3 C 18,3 C 15,6 C 52 % 200 cb 12 cb 1022,6 hPa 0,0 l/m 11,3 km/h (2 Bft) O-SO 112 1 min 0,000 mm 2,9 UV-I 534 W/m 12,3 C 22,7 C 17,7 km/h (3 Bft) 91,30 %
27.09.2023 13:22 22,6 C 18,3 C 18,3 C 15,6 C 49 % 200 cb 12 cb 1022,6 hPa 0,0 l/m 17,7 km/h (3 Bft) O-SO 112 1 min 0,000 mm 3,0 UV-I 519 W/m 11,3 C 22,6 C 24,1 km/h (4 Bft) 95,65 %
27.09.2023 13:21 22,6 C 18,3 C 18,3 C 15,6 C 49 % 200 cb 11 cb 1022,7 hPa 0,0 l/m 11,3 km/h (2 Bft) SO 135 1 min 0,000 mm 3,7 UV-I 526 W/m 11,3 C 22,6 C 24,1 km/h (4 Bft) 95,65 %
27.09.2023 13:20 22,6 C 17,8 C 18,3 C 15,6 C 51 % 200 cb 12 cb 1022,7 hPa 0,0 l/m 16,1 km/h (3 Bft) S-SO 157 1 min 0,000 mm 2,7 UV-I 536 W/m 11,9 C 22,6 C 29,0 km/h (5 Bft) 91,30 %
27.09.2023 13:19 22,6 C 18,3 C 18,3 C 15,6 C 48 % 200 cb 11 cb 1022,8 hPa 0,0 l/m 14,5 km/h (3 Bft) S 180 1 min 0,000 mm 2,2 UV-I 538 W/m 11,0 C 22,6 C 24,1 km/h (4 Bft) 91,30 %
27.09.2023 13:18 22,8 C 17,8 C 18,3 C 15,6 C 51 % 200 cb 11 cb 1022,8 hPa 0,0 l/m 16,1 km/h (3 Bft) S 180 1 min 0,000 mm 2,7 UV-I 536 W/m 12,1 C 22,8 C 32,2 km/h (5 Bft) 95,65 %
27.09.2023 13:17 22,8 C 18,3 C 18,3 C 15,6 C 52 % 200 cb 11 cb 1022,6 hPa 0,0 l/m 14,5 km/h (3 Bft) S 180 1 min 0,000 mm 2,4 UV-I 540 W/m 12,4 C 22,8 C 19,3 km/h (3 Bft) 95,65 %
27.09.2023 13:16 22,7 C 18,3 C 18,3 C 15,6 C 51 % 200 cb 12 cb 1022,7 hPa 0,0 l/m 12,9 km/h (3 Bft) SO 135 1 min 0,000 mm 3,8 UV-I 540 W/m 12,0 C 22,7 C 20,9 km/h (4 Bft) 95,65 %
27.09.2023 13:15 22,7 C 17,8 C 18,3 C 15,6 C 51 % 200 cb 12 cb 1022,7 hPa 0,0 l/m 11,3 km/h (2 Bft) S-SO 157 1 min 0,000 mm 3,8 UV-I 541 W/m 12,0 C 22,7 C 22,5 km/h (4 Bft) 91,30 %
27.09.2023 13:14 22,7 C 17,8 C 18,9 C 15,6 C 48 % 200 cb 11 cb 1022,8 hPa 0,0 l/m 3,2 km/h (1 Bft) NO 45 1 min 0,000 mm 2,5 UV-I 541 W/m 11,1 C 22,7 C 8,0 km/h (2 Bft) 86,96 %
27.09.2023 13:13 22,7 C 17,8 C 18,9 C 15,6 C 51 % 200 cb 12 cb 1022,8 hPa 0,0 l/m 4,8 km/h (1 Bft) W-SW 247 1 min 0,000 mm 3,5 UV-I 541 W/m 12,0 C 22,7 C 9,7 km/h (2 Bft) 91,30 %
27.09.2023 13:12 22,7 C 17,8 C 18,9 C 15,6 C 51 % 200 cb 11 cb 1022,8 hPa 0,0 l/m 6,4 km/h (2 Bft) S 180 1 min 0,000 mm 3,0 UV-I 541 W/m 12,0 C 22,7 C 11,3 km/h (2 Bft) 95,65 %
27.09.2023 13:11 22,6 C 18,3 C 18,9 C 15,6 C 51 % 200 cb 11 cb 1022,8 hPa 0,0 l/m 6,4 km/h (2 Bft) S-SO 157 1 min 0,000 mm 3,6 UV-I 526 W/m 11,9 C 22,6 C 11,3 km/h (2 Bft) 95,65 %
27.09.2023 13:10 22,6 C 18,3 C 18,9 C 15,6 C 48 % 200 cb 11 cb 1022,8 hPa 0,0 l/m 6,4 km/h (2 Bft) SO 135 1 min 0,000 mm 3,8 UV-I 489 W/m 11,0 C 22,6 C 11,3 km/h (2 Bft) 95,65 %
27.09.2023 13:09 22,6 C 18,3 C 18,9 C 15,6 C 50 % 200 cb 11 cb 1022,8 hPa 0,0 l/m 1,6 km/h (1 Bft) W 270 1 min 0,000 mm 3,9 UV-I 541 W/m 11,6 C 22,6 C 4,8 km/h (1 Bft) 82,61 %
27.09.2023 13:08 22,6 C 18,3 C 18,9 C 15,6 C 49 % 200 cb 11 cb 1022,9 hPa 0,0 l/m 4,8 km/h (1 Bft) S-SW 202 1 min 0,000 mm 3,9 UV-I 455 W/m 11,3 C 22,6 C 9,7 km/h (2 Bft) 95,65 %
27.09.2023 13:07 22,5 C 18,3 C 18,9 C 15,6 C 47 % 200 cb 11 cb 1022,8 hPa 0,0 l/m 3,2 km/h (1 Bft) S 180 1 min 0,000 mm 3,9 UV-I 540 W/m 10,6 C 22,5 C 6,4 km/h (2 Bft) 95,65 %
27.09.2023 13:06 22,6 C 18,3 C 18,9 C 15,6 C 49 % 200 cb 11 cb 1022,9 hPa 0,0 l/m 6,4 km/h (2 Bft) N 360 1 min 0,000 mm 3,9 UV-I 543 W/m 11,3 C 22,6 C 12,9 km/h (3 Bft) 95,65 %
27.09.2023 13:05 22,6 C 18,3 C 18,9 C 15,6 C 49 % 200 cb 11 cb 1022,8 hPa 0,0 l/m 3,2 km/h (1 Bft) N 360 1 min 0,000 mm 3,9 UV-I 545 W/m 11,3 C 22,6 C 9,7 km/h (2 Bft) 91,30 %
27.09.2023 13:04 22,6 C 18,3 C 18,9 C 15,6 C 49 % 200 cb 11 cb 1022,9 hPa 0,0 l/m 3,2 km/h (1 Bft) S 180 1 min 0,000 mm 3,8 UV-I 541 W/m 11,3 C 22,6 C 6,4 km/h (2 Bft) 86,96 %
27.09.2023 13:03 22,6 C 18,3 C 18,9 C 15,6 C 50 % 200 cb 11 cb 1022,9 hPa 0,0 l/m 14,5 km/h (3 Bft) S 180 1 min 0,000 mm 3,8 UV-I 541 W/m 11,6 C 22,6 C 24,1 km/h (4 Bft) 86,96 %
27.09.2023 13:02 22,6 C 18,3 C 19,4 C 15,6 C 49 % 200 cb 11 cb 1022,8 hPa 0,0 l/m 17,7 km/h (3 Bft) S 180 1 min 0,000 mm 3,9 UV-I 543 W/m 11,3 C 22,6 C 32,2 km/h (5 Bft) 95,65 %
27.09.2023 13:01 22,7 C 18,3 C 19,4 C 15,6 C 48 % 200 cb 11 cb 1022,8 hPa 0,0 l/m 11,3 km/h (2 Bft) SO 135 1 min 0,000 mm 3,9 UV-I 545 W/m 11,1 C 22,7 C 17,7 km/h (3 Bft) 91,30 %
27.09.2023 13:00 22,8 C 18,3 C 19,4 C 15,6 C 50 % 200 cb 11 cb 1022,9 hPa 0,0 l/m 11,3 km/h (2 Bft) O 90 1 min 0,406 mm 3,9 UV-I 547 W/m 11,8 C 22,8 C 17,7 km/h (3 Bft) 95,65 %
27.09.2023 12:59 22,8 C 18,3 C 19,4 C 15,6 C 49 % 200 cb 11 cb 1022,9 hPa 0,0 l/m 4,8 km/h (1 Bft) O 90 1 min 0,000 mm 3,9 UV-I 547 W/m 11,5 C 22,8 C 11,3 km/h (2 Bft) 95,65 %
27.09.2023 12:58 22,9 C 18,3 C 19,4 C 15,6 C 49 % 200 cb 11 cb 1022,9 hPa 0,0 l/m 6,4 km/h (2 Bft) W-SW 247 1 min 0,000 mm 3,9 UV-I 547 W/m 11,6 C 22,9 C 12,9 km/h (3 Bft) 91,30 %
27.09.2023 12:57 23,1 C 18,3 C 19,4 C 15,6 C 51 % 200 cb 11 cb 1022,9 hPa 0,0 l/m 6,4 km/h (2 Bft) S-SW 202 1 min 0,000 mm 3,9 UV-I 547 W/m 12,4 C 23,1 C 12,9 km/h (3 Bft) 91,30 %
27.09.2023 12:56 23,0 C 18,3 C 19,4 C 15,6 C 51 % 200 cb 11 cb 1022,8 hPa 0,0 l/m 9,7 km/h (2 Bft) S-SO 157 1 min 0,000 mm 3,9 UV-I 550 W/m 12,3 C 23,0 C 17,7 km/h (3 Bft) 91,30 %
27.09.2023 12:55 22,9 C 18,3 C 19,4 C 15,6 C 52 % 200 cb 11 cb 1022,8 hPa 0,0 l/m 6,4 km/h (2 Bft) S 180 1 min 0,000 mm 3,9 UV-I 548 W/m 12,5 C 22,9 C 17,7 km/h (3 Bft) 95,65 %
27.09.2023 12:54 23,0 C 18,3 C 19,4 C 15,6 C 50 % 200 cb 11 cb 1022,8 hPa 0,0 l/m 6,4 km/h (2 Bft) O 90 1 min 0,000 mm 3,9 UV-I 548 W/m 12,0 C 23,0 C 16,1 km/h (3 Bft) 91,30 %
27.09.2023 12:53 22,9 C 18,3 C 19,4 C 15,6 C 53 % 200 cb 11 cb 1023,0 hPa 0,0 l/m 9,7 km/h (2 Bft) S-SO 157 1 min 0,000 mm 3,9 UV-I 548 W/m 12,8 C 22,9 C 12,9 km/h (3 Bft) 91,30 %
27.09.2023 12:52 22,8 C 18,3 C 19,4 C 15,6 C 50 % 200 cb 11 cb 1022,8 hPa 0,0 l/m 6,4 km/h (2 Bft) O 90 1 min 0,000 mm 3,9 UV-I 548 W/m 11,8 C 22,8 C 14,5 km/h (3 Bft) 91,30 %
27.09.2023 12:51 22,9 C 18,9 C 20,0 C 15,6 C 53 % 200 cb 11 cb 1023,0 hPa 0,0 l/m 6,4 km/h (2 Bft) SO 135 1 min 0,000 mm 3,9 UV-I 547 W/m 12,8 C 22,9 C 11,3 km/h (2 Bft) 95,65 %
27.09.2023 12:50 22,7 C 18,9 C 20,0 C 15,6 C 53 % 200 cb 11 cb 1023,0 hPa 0,0 l/m 9,7 km/h (2 Bft) S-SO 157 1 min 0,000 mm 3,9 UV-I 548 W/m 12,6 C 22,7 C 14,5 km/h (3 Bft) 91,30 %
27.09.2023 12:49 22,7 C 18,9 C 20,0 C 15,6 C 49 % 200 cb 11 cb 1022,9 hPa 0,0 l/m 6,4 km/h (2 Bft) O-SO 112 1 min 0,000 mm 3,9 UV-I 548 W/m 11,4 C 22,7 C 11,3 km/h (2 Bft) 91,30 %
27.09.2023 12:48 22,5 C 18,9 C 20,0 C 15,6 C 50 % 200 cb 11 cb 1023,0 hPa 0,0 l/m 3,2 km/h (1 Bft) O 90 1 min 0,000 mm 3,9 UV-I 547 W/m 11,5 C 22,5 C 6,4 km/h (2 Bft) 91,30 %
27.09.2023 12:47 22,5 C 18,9 C 20,6 C 15,6 C 50 % 200 cb 11 cb 1023,0 hPa 0,0 l/m 3,2 km/h (1 Bft) O-NO 67 1 min 0,000 mm 3,8 UV-I 547 W/m 11,5 C 22,5 C 4,8 km/h (1 Bft) 82,61 %
27.09.2023 12:46 22,4 C 18,9 C 20,6 C 15,6 C 48 % 200 cb 11 cb 1023,0 hPa 0,0 l/m 3,2 km/h (1 Bft) N 360 1 min 0,000 mm 3,8 UV-I 547 W/m 10,8 C 22,4 C 8,0 km/h (2 Bft) 95,65 %
27.09.2023 12:45 22,6 C 18,9 C 21,1 C 15,6 C 51 % 200 cb 11 cb 1023,0 hPa 0,0 l/m 3,2 km/h (1 Bft) S-SW 202 1 min 0,000 mm 3,8 UV-I 548 W/m 11,9 C 22,6 C 4,8 km/h (1 Bft) 91,30 %
27.09.2023 12:44 22,5 C 18,9 C 21,1 C 15,6 C 52 % 200 cb 11 cb 1023,0 hPa 0,0 l/m 9,7 km/h (2 Bft) S-SO 157 1 min 0,000 mm 3,8 UV-I 547 W/m 12,1 C 22,5 C 20,9 km/h (4 Bft) 91,30 %
27.09.2023 12:43 22,3 C 19,4 C 21,1 C 15,6 C 49 % 200 cb 11 cb 1023,0 hPa 0,0 l/m 12,9 km/h (3 Bft) S-SO 157 1 min 0,000 mm 3,8 UV-I 547 W/m 11,1 C 22,3 C 17,7 km/h (3 Bft) 91,30 %
27.09.2023 12:42 22,4 C 19,4 C 21,1 C 15,6 C 50 % 200 cb 11 cb 1023,1 hPa 0,0 l/m 8,0 km/h (2 Bft) S-SW 202 1 min 0,000 mm 3,8 UV-I 547 W/m 11,5 C 22,4 C 16,1 km/h (3 Bft) 95,65 %
27.09.2023 12:41 22,4 C 19,4 C 21,1 C 15,6 C 52 % 200 cb 11 cb 1023,1 hPa 0,0 l/m 16,1 km/h (3 Bft) S 180 1 min 0,000 mm 3,8 UV-I 543 W/m 12,1 C 22,4 C 20,9 km/h (4 Bft) 82,61 %
27.09.2023 12:40 22,3 C 19,4 C 21,1 C 15,6 C 50 % 200 cb 11 cb 1023,0 hPa 0,0 l/m 12,9 km/h (3 Bft) SW 225 1 min 0,000 mm 3,8 UV-I 548 W/m 11,4 C 22,3 C 22,5 km/h (4 Bft) 95,65 %
27.09.2023 12:39 22,3 C 19,4 C 21,1 C 15,6 C 50 % 200 cb 11 cb 1023,0 hPa 0,0 l/m 9,7 km/h (2 Bft) W 270 1 min 0,000 mm 3,8 UV-I 550 W/m 11,4 C 22,3 C 17,7 km/h (3 Bft) 91,30 %
27.09.2023 12:38 22,3 C 20,0 C 21,1 C 15,6 C 50 % 200 cb 11 cb 1022,9 hPa 0,0 l/m 8,0 km/h (2 Bft) W-SW 247 1 min 0,000 mm 3,8 UV-I 548 W/m 11,4 C 22,3 C 12,9 km/h (3 Bft) 95,65 %
27.09.2023 12:37 22,3 C 20,0 C 21,7 C 15,6 C 50 % 200 cb 11 cb 1023,0 hPa 0,0 l/m 12,9 km/h (3 Bft) W 270 1 min 0,000 mm 3,8 UV-I 548 W/m 11,4 C 22,3 C 22,5 km/h (4 Bft) 95,65 %
27.09.2023 12:36 22,2 C 20,0 C 21,7 C 15,6 C 48 % 200 cb 11 cb 1023,0 hPa 0,0 l/m 12,9 km/h (3 Bft) NW 315 1 min 0,000 mm 3,8 UV-I 548 W/m 10,7 C 22,2 C 19,3 km/h (3 Bft) 91,30 %
27.09.2023 12:35 22,2 C 20,0 C 22,2 C 15,6 C 50 % 200 cb 11 cb 1023,1 hPa 0,0 l/m 8,0 km/h (2 Bft) W 270 1 min 0,000 mm 3,8 UV-I 547 W/m 11,3 C 22,2 C 16,1 km/h (3 Bft) 95,65 %
27.09.2023 12:34 22,2 C 20,6 C 22,2 C 15,6 C 50 % 200 cb 11 cb 1023,0 hPa 0,0 l/m 4,8 km/h (1 Bft) W 270 1 min 0,000 mm 3,8 UV-I 548 W/m 11,3 C 22,2 C 8,0 km/h (2 Bft) 86,96 %
27.09.2023 12:33 22,2 C 20,6 C 22,8 C 15,6 C 51 % 200 cb 11 cb 1022,9 hPa 0,0 l/m 6,4 km/h (2 Bft) O-NO 67 1 min 0,000 mm 3,8 UV-I 548 W/m 11,6 C 22,2 C 9,7 km/h (2 Bft) 95,65 %
27.09.2023 12:32 22,2 C 20,6 C 23,3 C 15,6 C 48 % 200 cb 11 cb 1023,0 hPa 0,0 l/m 4,8 km/h (1 Bft) O-SO 112 1 min 0,000 mm 3,8 UV-I 550 W/m 10,7 C 22,2 C 8,0 km/h (2 Bft) 95,65 %
27.09.2023 12:31 22,3 C 20,6 C 23,3 C 15,6 C 48 % 200 cb 11 cb 1023,0 hPa 0,0 l/m 4,8 km/h (1 Bft) W 270 1 min 0,000 mm 3,8 UV-I 547 W/m 10,8 C 22,3 C 9,7 km/h (2 Bft) 95,65 %
27.09.2023 12:30 22,4 C 21,1 C 23,9 C 15,6 C 50 % 200 cb 11 cb 1023,0 hPa 0,0 l/m 17,7 km/h (3 Bft) S 180 1 min 0,000 mm 3,8 UV-I 545 W/m 11,5 C 22,4 C 25,7 km/h (4 Bft) 86,96 %
27.09.2023 12:29 22,5 C 21,1 C 23,9 C 15,6 C 54 % 200 cb 11 cb 1023,0 hPa 0,0 l/m 19,3 km/h (3 Bft) S 180 1 min 0,000 mm 3,8 UV-I 545 W/m 12,7 C 22,5 C 27,4 km/h (4 Bft) 91,30 %
27.09.2023 12:28 22,4 C 21,1 C 23,9 C 15,6 C 52 % 200 cb 12 cb 1023,0 hPa 0,0 l/m 12,9 km/h (3 Bft) SO 135 1 min 0,000 mm 3,8 UV-I 545 W/m 12,1 C 22,4 C 20,9 km/h (4 Bft) 91,30 %
27.09.2023 12:27 22,5 C 21,1 C 23,9 C 15,0 C 50 % 200 cb 11 cb 1023,1 hPa 0,0 l/m 20,9 km/h (4 Bft) SO 135 1 min 0,000 mm 3,8 UV-I 545 W/m 11,5 C 22,5 C 29,0 km/h (5 Bft) 95,65 %
27.09.2023 12:26 22,5 C 21,7 C 23,9 C 15,0 C 51 % 200 cb 11 cb 1023,1 hPa 0,0 l/m 11,3 km/h (2 Bft) O-SO 112 1 min 0,000 mm 3,8 UV-I 548 W/m 11,8 C 22,5 C 19,3 km/h (3 Bft) 95,65 %
27.09.2023 12:25 22,6 C 21,7 C 23,9 C 15,0 C 49 % 200 cb 11 cb 1023,1 hPa 0,0 l/m 12,9 km/h (3 Bft) W-NW 292 1 min 0,000 mm 3,9 UV-I 545 W/m 11,3 C 22,6 C 17,7 km/h (3 Bft) 91,30 %
27.09.2023 12:24 22,7 C 21,7 C 23,3 C 15,0 C 52 % 200 cb 11 cb 1023,1 hPa 0,0 l/m 4,8 km/h (1 Bft) S-SO 157 1 min 0,000 mm 3,8 UV-I 548 W/m 12,3 C 22,7 C 6,4 km/h (2 Bft) 95,65 %
27.09.2023 12:23 22,5 C 22,2 C 23,3 C 15,0 C 51 % 200 cb 11 cb 1023,1 hPa 0,0 l/m 3,2 km/h (1 Bft) S 180 1 min 0,000 mm 3,8 UV-I 550 W/m 11,8 C 22,5 C 6,4 km/h (2 Bft) 95,65 %
27.09.2023 12:22 22,5 C 22,2 C 22,8 C 15,0 C 51 % 200 cb 11 cb 1023,0 hPa 0,0 l/m 3,2 km/h (1 Bft) SO 135 1 min 0,000 mm 3,8 UV-I 550 W/m 11,8 C 22,5 C 6,4 km/h (2 Bft) 91,30 %
27.09.2023 12:21 22,5 C 22,2 C 22,8 C 15,0 C 49 % 200 cb 11 cb 1023,1 hPa 0,0 l/m 3,2 km/h (1 Bft) SW 225 1 min 0,000 mm 3,8 UV-I 548 W/m 11,2 C 22,5 C 4,8 km/h (1 Bft) 95,65 %
27.09.2023 12:20 22,5 C 22,8 C 23,3 C 15,0 C 49 % 200 cb 11 cb 1023,2 hPa 0,0 l/m 4,8 km/h (1 Bft) S 180 1 min 0,000 mm 3,8 UV-I 547 W/m 11,2 C 22,5 C 14,5 km/h (3 Bft) 95,65 %
27.09.2023 12:19 22,7 C 22,8 C 23,3 C 15,0 C 50 % 200 cb 11 cb 1023,3 hPa 0,0 l/m 8,0 km/h (2 Bft) S 180 1 min 0,000 mm 3,8 UV-I 545 W/m 11,7 C 22,7 C 19,3 km/h (3 Bft) 91,30 %
27.09.2023 12:18 22,7 C 22,8 C 23,3 C 15,0 C 51 % 200 cb 11 cb 1023,2 hPa 0,0 l/m 14,5 km/h (3 Bft) S 180 1 min 0,000 mm 3,8 UV-I 550 W/m 12,0 C 22,7 C 19,3 km/h (3 Bft) 95,65 %
27.09.2023 12:17 22,6 C 22,8 C 23,3 C 15,0 C 50 % 200 cb 11 cb 1023,2 hPa 0,0 l/m 6,4 km/h (2 Bft) SO 135 1 min 0,000 mm 3,8 UV-I 547 W/m 11,6 C 22,6 C 11,3 km/h (2 Bft) 95,65 %
27.09.2023 12:16 22,5 C 22,8 C 23,3 C 15,0 C 52 % 200 cb 11 cb 1023,2 hPa 0,0 l/m 9,7 km/h (2 Bft) SO 135 1 min 0,000 mm 3,8 UV-I 548 W/m 12,1 C 22,5 C 14,5 km/h (3 Bft) 91,30 %
27.09.2023 12:15 22,4 C 22,8 C 23,3 C 15,0 C 52 % 200 cb 11 cb 1023,3 hPa 0,0 l/m 11,3 km/h (2 Bft) S-SO 157 1 min 0,000 mm 3,8 UV-I 548 W/m 12,1 C 22,4 C 16,1 km/h (3 Bft) 91,30 %
27.09.2023 12:14 22,4 C 22,8 C 23,3 C 15,0 C 51 % 200 cb 11 cb 1023,2 hPa 0,0 l/m 9,7 km/h (2 Bft) SO 135 1 min 0,000 mm 3,8 UV-I 552 W/m 11,8 C 22,4 C 12,9 km/h (3 Bft) 91,30 %
27.09.2023 12:13 22,4 C 22,8 C 22,8 C 15,0 C 52 % 200 cb 11 cb 1023,2 hPa 0,0 l/m 6,4 km/h (2 Bft) N-NO 22 1 min 0,000 mm 3,7 UV-I 548 W/m 12,1 C 22,4 C 9,7 km/h (2 Bft) 91,30 %
27.09.2023 12:12 22,2 C 22,8 C 22,8 C 15,0 C 54 % 200 cb 11 cb 1023,2 hPa 0,0 l/m 6,4 km/h (2 Bft) SW 225 1 min 0,000 mm 3,7 UV-I 550 W/m 12,4 C 22,2 C 11,3 km/h (2 Bft) 95,65 %
27.09.2023 12:11 22,2 C 22,8 C 22,8 C 15,0 C 51 % 200 cb 11 cb 1023,2 hPa 0,0 l/m 8,0 km/h (2 Bft) O-SO 112 1 min 0,000 mm 3,7 UV-I 548 W/m 11,6 C 22,2 C 12,9 km/h (3 Bft) 91,30 %
27.09.2023 12:10 22,1 C 22,8 C 22,8 C 15,0 C 51 % 200 cb 11 cb 1023,4 hPa 0,0 l/m 6,4 km/h (2 Bft) O-SO 112 1 min 0,000 mm 3,7 UV-I 545 W/m 11,5 C 22,1 C 9,7 km/h (2 Bft) 95,65 %
27.09.2023 12:09 22,1 C 22,8 C 22,8 C 15,0 C 50 % 200 cb 11 cb 1023,3 hPa 0,0 l/m 8,0 km/h (2 Bft) SO 135 1 min 0,000 mm 3,7 UV-I 545 W/m 11,2 C 22,1 C 22,5 km/h (4 Bft) 91,30 %
27.09.2023 12:08 22,1 C 23,3 C 22,8 C 15,0 C 49 % 200 cb 11 cb 1023,3 hPa 0,0 l/m 11,3 km/h (2 Bft) O-SO 112 1 min 0,000 mm 3,7 UV-I 543 W/m 10,9 C 22,1 C 25,7 km/h (4 Bft) 91,30 %
27.09.2023 12:07 22,1 C 23,3 C 22,8 C 15,0 C 50 % 200 cb 11 cb 1023,3 hPa 0,0 l/m 14,5 km/h (3 Bft) S-SW 202 1 min 0,000 mm 3,7 UV-I 545 W/m 11,2 C 22,1 C 37,0 km/h (5 Bft) 86,96 %
27.09.2023 12:06 22,1 C 23,3 C 22,8 C 15,0 C 52 % 200 cb 12 cb 1023,4 hPa 0,0 l/m 16,1 km/h (3 Bft) S-SW 202 1 min 0,000 mm 3,7 UV-I 547 W/m 11,8 C 22,1 C 27,4 km/h (4 Bft) 95,65 %
27.09.2023 12:05 22,0 C 23,3 C 22,8 C 15,0 C 50 % 200 cb 12 cb 1023,3 hPa 0,0 l/m 11,3 km/h (2 Bft) S 180 1 min 0,000 mm 3,6 UV-I 541 W/m 11,1 C 22,0 C 16,1 km/h (3 Bft) 86,96 %
27.09.2023 12:04 21,9 C 23,9 C 22,8 C 15,0 C 52 % 200 cb 11 cb 1023,2 hPa 0,0 l/m 11,3 km/h (2 Bft) S-SW 202 1 min 0,000 mm 3,6 UV-I 541 W/m 11,6 C 21,9 C 19,3 km/h (3 Bft) 95,65 %
27.09.2023 12:03 21,9 C 23,9 C 22,8 C 15,0 C 50 % 200 cb 12 cb 1023,4 hPa 0,0 l/m 16,1 km/h (3 Bft) O-SO 112 1 min 0,000 mm 3,6 UV-I 541 W/m 11,0 C 21,9 C 25,7 km/h (4 Bft) 82,61 %
27.09.2023 12:02 21,8 C 23,9 C 22,8 C 15,0 C 51 % 200 cb 12 cb 1023,2 hPa 0,0 l/m 11,3 km/h (2 Bft) W 270 1 min 0,000 mm 3,6 UV-I 547 W/m 11,2 C 21,8 C 17,7 km/h (3 Bft) 91,30 %
27.09.2023 12:01 21,8 C 24,4 C 22,8 C 15,0 C 49 % 200 cb 12 cb 1023,2 hPa 0,0 l/m 16,1 km/h (3 Bft) W-NW 292 1 min 0,000 mm 3,7 UV-I 547 W/m 10,6 C 21,8 C 25,7 km/h (4 Bft) 86,96 %
27.09.2023 12:00 21,9 C 25,0 C 23,3 C 15,0 C 50 % 200 cb 12 cb 1023,2 hPa 0,0 l/m 19,3 km/h (3 Bft) W 270 1 min 0,381 mm 3,6 UV-I 545 W/m 11,0 C 21,9 C 32,2 km/h (5 Bft) 91,30 %
27.09.2023 11:59 21,9 C 25,0 C 23,3 C 15,0 C 51 % 200 cb 12 cb 1023,2 hPa 0,0 l/m 9,7 km/h (2 Bft) W-SW 247 1 min 0,000 mm 3,6 UV-I 543 W/m 11,3 C 21,9 C 19,3 km/h (3 Bft) 86,96 %
27.09.2023 11:58 21,9 C 25,0 C 23,3 C 15,0 C 53 % 200 cb 12 cb 1023,2 hPa 0,0 l/m 9,7 km/h (2 Bft) SW 225 1 min 0,000 mm 3,6 UV-I 540 W/m 11,9 C 21,9 C 20,9 km/h (4 Bft) 95,65 %
27.09.2023 11:57 21,8 C 25,0 C 22,8 C 15,0 C 51 % 200 cb 12 cb 1023,0 hPa 0,0 l/m 11,3 km/h (2 Bft) W-NW 292 1 min 0,000 mm 3,6 UV-I 541 W/m 11,2 C 21,8 C 24,1 km/h (4 Bft) 78,26 %
27.09.2023 11:56 21,8 C 25,6 C 22,8 C 15,0 C 49 % 200 cb 12 cb 1023,2 hPa 0,0 l/m 12,9 km/h (3 Bft) W-SW 247 1 min 0,000 mm 3,6 UV-I 540 W/m 10,6 C 21,8 C 25,7 km/h (4 Bft) 91,30 %
27.09.2023 11:55 21,9 C 25,6 C 22,8 C 15,0 C 50 % 200 cb 12 cb 1023,1 hPa 0,0 l/m 19,3 km/h (3 Bft) W 270 1 min 0,000 mm 3,6 UV-I 534 W/m 11,0 C 21,9 C 30,6 km/h (5 Bft) 91,30 %
27.09.2023 11:54 22,1 C 26,1 C 22,8 C 15,0 C 50 % 200 cb 12 cb 1023,1 hPa 0,0 l/m 12,9 km/h (3 Bft) W-NW 292 1 min 0,000 mm 3,6 UV-I 534 W/m 11,2 C 22,1 C 24,1 km/h (4 Bft) 95,65 %
27.09.2023 11:53 22,1 C 26,1 C 22,8 C 15,0 C 50 % 200 cb 12 cb 1023,2 hPa 0,0 l/m 8,0 km/h (2 Bft) N 360 1 min 0,000 mm 3,6 UV-I 533 W/m 11,2 C 22,1 C 11,3 km/h (2 Bft) 82,61 %
27.09.2023 11:52 22,0 C 26,7 C 22,8 C 15,0 C 53 % 200 cb 12 cb 1023,2 hPa 0,0 l/m 11,3 km/h (2 Bft) SW 225 1 min 0,000 mm 3,6 UV-I 534 W/m 12,0 C 22,0 C 22,5 km/h (4 Bft) 95,65 %
27.09.2023 11:51 22,0 C 26,7 C 22,8 C 15,0 C 53 % 200 cb 12 cb 1023,1 hPa 0,0 l/m 8,0 km/h (2 Bft) O-NO 67 1 min 0,000 mm 3,6 UV-I 536 W/m 12,0 C 22,0 C 16,1 km/h (3 Bft) 86,96 %
27.09.2023 11:50 21,9 C 27,2 C 22,8 C 14,4 C 51 % 200 cb 12 cb 1023,0 hPa 0,0 l/m 4,8 km/h (1 Bft) NO 45 1 min 0,000 mm 3,5 UV-I 533 W/m 11,3 C 21,9 C 14,5 km/h (3 Bft) 91,30 %
27.09.2023 11:49 21,9 C 27,2 C 22,8 C 14,4 C 50 % 200 cb 12 cb 1023,0 hPa 0,0 l/m 3,2 km/h (1 Bft) O 90 1 min 0,000 mm 3,5 UV-I 531 W/m 11,0 C 21,9 C 6,4 km/h (2 Bft) 91,30 %
27.09.2023 11:48 22,1 C 27,2 C 22,8 C 14,4 C 51 % 200 cb 12 cb 1023,2 hPa 0,0 l/m 8,0 km/h (2 Bft) W 270 1 min 0,000 mm 3,5 UV-I 531 W/m 11,5 C 22,1 C 12,9 km/h (3 Bft) 95,65 %
27.09.2023 11:47 22,1 C 27,2 C 22,2 C 14,4 C 51 % 200 cb 12 cb 1023,1 hPa 0,0 l/m 8,0 km/h (2 Bft) S-SW 202 1 min 0,000 mm 3,5 UV-I 529 W/m 11,5 C 22,1 C 16,1 km/h (3 Bft) 86,96 %
27.09.2023 11:46 21,9 C 27,8 C 22,2 C 14,4 C 52 % 200 cb 12 cb 1023,1 hPa 0,0 l/m 14,5 km/h (3 Bft) O-SO 112 1 min 0,000 mm 3,5 UV-I 526 W/m 11,6 C 21,9 C 17,7 km/h (3 Bft) 86,96 %
27.09.2023 11:45 22,1 C 27,8 C 22,2 C 14,4 C 50 % 200 cb 12 cb 1023,1 hPa 0,0 l/m 19,3 km/h (3 Bft) SO 135 1 min 0,000 mm 3,5 UV-I 522 W/m 11,2 C 22,1 C 29,0 km/h (5 Bft) 86,96 %
27.09.2023 11:44 22,1 C 27,8 C 22,2 C 14,4 C 51 % 200 cb 12 cb 1023,0 hPa 0,0 l/m 9,7 km/h (2 Bft) S-SW 202 1 min 0,000 mm 3,5 UV-I 522 W/m 11,5 C 22,1 C 17,7 km/h (3 Bft) 95,65 %
27.09.2023 11:43 22,1 C 27,8 C 22,2 C 14,4 C 50 % 200 cb 12 cb 1023,1 hPa 0,0 l/m 22,5 km/h (4 Bft) NW 315 1 min 0,000 mm 3,5 UV-I 524 W/m 11,2 C 22,1 C 27,4 km/h (4 Bft) 91,30 %
27.09.2023 11:42 22,1 C 28,3 C 22,8 C 14,4 C 51 % 200 cb 12 cb 1023,1 hPa 0,0 l/m 12,9 km/h (3 Bft) NW 315 1 min 0,000 mm 3,5 UV-I 522 W/m 11,5 C 22,1 C 29,0 km/h (5 Bft) 91,30 %
27.09.2023 11:41 22,1 C 28,3 C 22,2 C 14,4 C 52 % 200 cb 12 cb 1023,1 hPa 0,0 l/m 4,8 km/h (1 Bft) S-SO 157 1 min 0,000 mm 3,4 UV-I 522 W/m 11,8 C 22,1 C 9,7 km/h (2 Bft) 91,30 %
27.09.2023 11:40 22,1 C 28,3 C 22,2 C 14,4 C 53 % 200 cb 12 cb 1023,2 hPa 0,0 l/m 16,1 km/h (3 Bft) S 180 1 min 0,000 mm 3,4 UV-I 519 W/m 12,1 C 22,1 C 29,0 km/h (5 Bft) 91,30 %
27.09.2023 11:39 22,1 C 28,3 C 22,2 C 14,4 C 52 % 200 cb 12 cb 1023,0 hPa 0,0 l/m 8,0 km/h (2 Bft) SO 135 1 min 0,000 mm 3,4 UV-I 520 W/m 11,8 C 22,1 C 14,5 km/h (3 Bft) 91,30 %
27.09.2023 11:38 22,1 C 27,8 C 22,2 C 14,4 C 52 % 200 cb 12 cb 1023,1 hPa 0,0 l/m 11,3 km/h (2 Bft) O 90 1 min 0,000 mm 3,4 UV-I 517 W/m 11,8 C 22,1 C 14,5 km/h (3 Bft) 95,65 %
27.09.2023 11:37 22,1 C 28,3 C 22,2 C 14,4 C 52 % 200 cb 12 cb 1023,2 hPa 0,0 l/m 8,0 km/h (2 Bft) O-NO 67 1 min 0,000 mm 3,4 UV-I 515 W/m 11,8 C 22,1 C 11,3 km/h (2 Bft) 91,30 %
27.09.2023 11:36 22,1 C 28,3 C 22,2 C 14,4 C 54 % 200 cb 12 cb 1023,1 hPa 0,0 l/m 4,8 km/h (1 Bft) S-SO 157 1 min 0,000 mm 3,4 UV-I 515 W/m 12,3 C 22,1 C 8,0 km/h (2 Bft) 95,65 %
27.09.2023 11:35 21,9 C 27,8 C 22,2 C 14,4 C 54 % 200 cb 12 cb 1023,2 hPa 0,0 l/m 9,7 km/h (2 Bft) SO 135 1 min 0,000 mm 3,4 UV-I 512 W/m 12,2 C 21,9 C 14,5 km/h (3 Bft) 86,96 %
27.09.2023 11:34 21,9 C 27,8 C 22,2 C 14,4 C 52 % 200 cb 12 cb 1023,2 hPa 0,0 l/m 9,7 km/h (2 Bft) O 90 1 min 0,000 mm 3,3 UV-I 512 W/m 11,6 C 21,9 C 14,5 km/h (3 Bft) 95,65 %
27.09.2023 11:33 21,8 C 27,8 C 22,2 C 14,4 C 52 % 200 cb 12 cb 1023,1 hPa 0,0 l/m 6,4 km/h (2 Bft) SO 135 1 min 0,000 mm 3,3 UV-I 510 W/m 11,5 C 21,8 C 9,7 km/h (2 Bft) 91,30 %
27.09.2023 11:32 21,8 C 27,2 C 21,7 C 14,4 C 51 % 200 cb 12 cb 1023,2 hPa 0,0 l/m 4,8 km/h (1 Bft) SW 225 1 min 0,000 mm 3,3 UV-I 512 W/m 11,2 C 21,8 C 9,7 km/h (2 Bft) 91,30 %
27.09.2023 11:31 21,8 C 27,2 C 21,7 C 14,4 C 53 % 200 cb 12 cb 1023,1 hPa 0,0 l/m 4,8 km/h (1 Bft) N 360 1 min 0,000 mm 3,3 UV-I 508 W/m 11,8 C 21,8 C 11,3 km/h (2 Bft) 86,96 %
27.09.2023 11:30 21,8 C 27,2 C 21,7 C 14,4 C 53 % 200 cb 12 cb 1023,2 hPa 0,0 l/m 9,7 km/h (2 Bft) SO 135 1 min 0,000 mm 3,3 UV-I 510 W/m 11,8 C 21,8 C 16,1 km/h (3 Bft) 86,96 %
27.09.2023 11:29 21,8 C 27,2 C 21,1 C 14,4 C 57 % 200 cb 12 cb 1023,1 hPa 0,0 l/m 9,7 km/h (2 Bft) S-SO 157 1 min 0,000 mm 3,3 UV-I 508 W/m 12,9 C 21,8 C 16,1 km/h (3 Bft) 86,96 %
27.09.2023 11:28 21,7 C 26,7 C 21,1 C 14,4 C 51 % 200 cb 12 cb 1022,9 hPa 0,0 l/m 9,7 km/h (2 Bft) W 270 1 min 0,000 mm 3,3 UV-I 508 W/m 11,1 C 21,7 C 22,5 km/h (4 Bft) 95,65 %
27.09.2023 11:27 21,7 C 26,7 C 21,1 C 14,4 C 52 % 200 cb 12 cb 1023,1 hPa 0,0 l/m 19,3 km/h (3 Bft) NW 315 1 min 0,000 mm 3,3 UV-I 504 W/m 11,4 C 21,7 C 30,6 km/h (5 Bft) 86,96 %
27.09.2023 11:26 21,6 C 26,7 C 21,1 C 14,4 C 52 % 200 cb 12 cb 1023,1 hPa 0,0 l/m 12,9 km/h (3 Bft) O-NO 67 1 min 0,000 mm 3,2 UV-I 504 W/m 11,3 C 21,6 C 17,7 km/h (3 Bft) 95,65 %
27.09.2023 11:25 21,6 C 26,7 C 21,1 C 14,4 C 54 % 200 cb 12 cb 1023,1 hPa 0,0 l/m 9,7 km/h (2 Bft) O 90 1 min 0,000 mm 3,2 UV-I 503 W/m 11,9 C 21,6 C 16,1 km/h (3 Bft) 91,30 %
27.09.2023 11:24 21,6 C 26,7 C 21,1 C 13,9 C 55 % 200 cb 12 cb 1023,1 hPa 0,0 l/m 9,7 km/h (2 Bft) SO 135 1 min 0,000 mm 3,2 UV-I 503 W/m 12,2 C 21,6 C 12,9 km/h (3 Bft) 86,96 %
27.09.2023 11:23 21,7 C 26,7 C 20,6 C 13,9 C 52 % 200 cb 12 cb 1022,9 hPa 0,0 l/m 12,9 km/h (3 Bft) N-NW 337 1 min 0,000 mm 3,2 UV-I 503 W/m 11,4 C 21,7 C 22,5 km/h (4 Bft) 82,61 %
27.09.2023 11:22 21,7 C 26,7 C 20,6 C 14,4 C 50 % 200 cb 12 cb 1023,1 hPa 0,0 l/m 9,7 km/h (2 Bft) NO 45 1 min 0,000 mm 3,2 UV-I 499 W/m 10,8 C 21,7 C 17,7 km/h (3 Bft) 91,30 %
27.09.2023 11:21 21,6 C 26,7 C 20,6 C 13,9 C 53 % 200 cb 12 cb 1023,1 hPa 0,0 l/m 8,0 km/h (2 Bft) S 180 1 min 0,000 mm 3,2 UV-I 497 W/m 11,6 C 21,6 C 16,1 km/h (3 Bft) 86,96 %
27.09.2023 11:20 21,5 C 26,7 C 20,6 C 13,9 C 51 % 200 cb 12 cb 1023,1 hPa 0,0 l/m 11,3 km/h (2 Bft) S 180 1 min 0,000 mm 3,1 UV-I 499 W/m 10,9 C 21,5 C 19,3 km/h (3 Bft) 95,65 %
27.09.2023 11:19 21,3 C 26,1 C 20,6 C 13,9 C 52 % 200 cb 12 cb 1023,1 hPa 0,0 l/m 8,0 km/h (2 Bft) S 180 1 min 0,000 mm 3,1 UV-I 496 W/m 11,0 C 21,3 C 11,3 km/h (2 Bft) 86,96 %
27.09.2023 11:18 21,3 C 25,6 C 20,6 C 13,9 C 50 % 200 cb 12 cb 1022,9 hPa 0,0 l/m 25,7 km/h (4 Bft) W-NW 292 1 min 0,000 mm 3,1 UV-I 494 W/m 10,4 C 21,3 C 40,2 km/h (6 Bft) 91,30 %
27.09.2023 11:17 21,4 C 26,7 C 20,6 C 13,9 C 51 % 200 cb 12 cb 1023,0 hPa 0,0 l/m 12,9 km/h (3 Bft) W-NW 292 1 min 0,000 mm 3,1 UV-I 494 W/m 10,8 C 21,4 C 27,4 km/h (4 Bft) 86,96 %
27.09.2023 11:16 21,4 C 26,7 C 20,0 C 13,9 C 51 % 200 cb 12 cb 1023,0 hPa 0,0 l/m 8,0 km/h (2 Bft) NO 45 1 min 0,000 mm 3,1 UV-I 494 W/m 10,8 C 21,4 C 16,1 km/h (3 Bft) 95,65 %
27.09.2023 11:15 21,4 C 26,7 C 20,0 C 13,9 C 50 % 200 cb 12 cb 1023,1 hPa 0,0 l/m 4,8 km/h (1 Bft) O 90 1 min 0,000 mm 3,1 UV-I 490 W/m 10,5 C 21,4 C 8,0 km/h (2 Bft) 86,96 %
27.09.2023 11:14 21,5 C 26,1 C 20,0 C 13,9 C 51 % 200 cb 12 cb 1023,1 hPa 0,0 l/m 14,5 km/h (3 Bft) W-SW 247 1 min 0,000 mm 3,1 UV-I 490 W/m 10,9 C 21,5 C 19,3 km/h (3 Bft) 95,65 %
27.09.2023 11:13 21,4 C 26,1 C 20,0 C 13,9 C 51 % 200 cb 12 cb 1023,0 hPa 0,0 l/m 8,0 km/h (2 Bft) S 180 1 min 0,000 mm 3,0 UV-I 489 W/m 10,8 C 21,4 C 14,5 km/h (3 Bft) 78,26 %
27.09.2023 11:12 21,4 C 26,1 C 19,4 C 13,9 C 51 % 200 cb 12 cb 1023,2 hPa 0,0 l/m 9,7 km/h (2 Bft) S-SW 202 1 min 0,000 mm 3,0 UV-I 485 W/m 10,8 C 21,4 C 17,7 km/h (3 Bft) 95,65 %
27.09.2023 11:11 21,3 C 25,6 C 19,4 C 13,9 C 51 % 200 cb 12 cb 1023,0 hPa 0,0 l/m 6,4 km/h (2 Bft) O 90 1 min 0,000 mm 3,0 UV-I 483 W/m 10,7 C 21,3 C 11,3 km/h (2 Bft) 91,30 %
27.09.2023 11:10 21,3 C 25,0 C 19,4 C 13,9 C 51 % 200 cb 12 cb 1023,1 hPa 0,0 l/m 3,2 km/h (1 Bft) NW 315 1 min 0,000 mm 3,0 UV-I 482 W/m 10,7 C 21,3 C 6,4 km/h (2 Bft) 91,30 %
27.09.2023 11:09 21,2 C 25,0 C 19,4 C 13,9 C 52 % 200 cb 12 cb 1023,1 hPa 0,0 l/m 6,4 km/h (2 Bft) W-SW 247 1 min 0,000 mm 3,0 UV-I 480 W/m 10,9 C 21,2 C 11,3 km/h (2 Bft) 86,96 %
27.09.2023 11:08 21,2 C 25,0 C 18,9 C 13,9 C 51 % 200 cb 12 cb 1023,1 hPa 0,0 l/m 9,7 km/h (2 Bft) S 180 1 min 0,000 mm 3,0 UV-I 482 W/m 10,7 C 21,2 C 14,5 km/h (3 Bft) 91,30 %
27.09.2023 11:07 21,3 C 25,0 C 18,9 C 13,9 C 51 % 200 cb 12 cb 1023,1 hPa 0,0 l/m 25,7 km/h (4 Bft) W 270 1 min 0,000 mm 3,0 UV-I 478 W/m 10,7 C 21,3 C 41,8 km/h (6 Bft) 91,30 %
27.09.2023 11:06 21,3 C 25,0 C 18,9 C 13,9 C 52 % 200 cb 12 cb 1023,0 hPa 0,0 l/m 8,0 km/h (2 Bft) NW 315 1 min 0,000 mm 3,0 UV-I 476 W/m 11,0 C 21,3 C 14,5 km/h (3 Bft) 91,30 %
27.09.2023 11:05 21,2 C 25,0 C 18,9 C 13,9 C 52 % 200 cb 12 cb 1023,1 hPa 0,0 l/m 9,7 km/h (2 Bft) O 90 1 min 0,000 mm 2,9 UV-I 476 W/m 10,9 C 21,2 C 17,7 km/h (3 Bft) 95,65 %
27.09.2023 11:04 21,2 C 25,0 C 18,9 C 13,9 C 52 % 200 cb 12 cb 1023,0 hPa 0,0 l/m 9,7 km/h (2 Bft) O-SO 112 1 min 0,000 mm 2,9 UV-I 476 W/m 10,9 C 21,2 C 17,7 km/h (3 Bft) 86,96 %
27.09.2023 11:03 21,2 C 25,0 C 18,9 C 13,9 C 53 % 200 cb 12 cb 1023,2 hPa 0,0 l/m 9,7 km/h (2 Bft) SW 225 1 min 0,000 mm 2,9 UV-I 473 W/m 11,2 C 21,2 C 17,7 km/h (3 Bft) 95,65 %
27.09.2023 11:02 21,1 C 24,4 C 18,9 C 13,9 C 51 % 200 cb 12 cb 1023,0 hPa 0,0 l/m 9,7 km/h (2 Bft) SW 225 1 min 0,000 mm 2,9 UV-I 473 W/m 10,6 C 21,1 C 17,7 km/h (3 Bft) 86,96 %
27.09.2023 11:01 21,1 C 24,4 C 18,9 C 13,9 C 51 % 200 cb 12 cb 1023,4 hPa 0,0 l/m 22,5 km/h (4 Bft) W-SW 247 1 min 0,000 mm 2,9 UV-I 469 W/m 10,6 C 21,1 C 32,2 km/h (5 Bft) 91,30 %
27.09.2023 11:00 21,1 C 24,4 C 18,3 C 13,9 C 51 % 200 cb 12 cb 1023,1 hPa 0,0 l/m 4,8 km/h (1 Bft) W 270 1 min 0,330 mm 2,9 UV-I 469 W/m 10,6 C 21,1 C 12,9 km/h (3 Bft) 82,61 %
27.09.2023 10:59 21,1 C 24,4 C 18,3 C 13,9 C 54 % 200 cb 12 cb 1023,1 hPa 0,0 l/m 4,8 km/h (1 Bft) NW 315 1 min 0,000 mm 2,8 UV-I 468 W/m 11,4 C 21,1 C 9,7 km/h (2 Bft) 95,65 %
27.09.2023 10:58 21,1 C 24,4 C 18,3 C 13,9 C 53 % 200 cb 12 cb 1023,1 hPa 0,0 l/m 6,4 km/h (2 Bft) S 180 1 min 0,000 mm 2,8 UV-I 466 W/m 11,1 C 21,1 C 9,7 km/h (2 Bft) 91,30 %
27.09.2023 10:57 21,1 C 23,9 C 18,3 C 13,9 C 52 % 200 cb 12 cb 1022,9 hPa 0,0 l/m 16,1 km/h (3 Bft) W-NW 292 1 min 0,000 mm 2,8 UV-I 464 W/m 10,9 C 21,1 C 35,4 km/h (5 Bft) 91,30 %
27.09.2023 10:56 21,1 C 24,4 C 18,3 C 13,9 C 52 % 200 cb 12 cb 1022,9 hPa 0,0 l/m 20,9 km/h (4 Bft) NW 315 1 min 0,000 mm 2,8 UV-I 466 W/m 10,9 C 21,1 C 37,0 km/h (5 Bft) 78,26 %
27.09.2023 10:55 21,1 C 24,4 C 18,3 C 13,9 C 52 % 200 cb 12 cb 1023,0 hPa 0,0 l/m 6,4 km/h (2 Bft) W-NW 292 1 min 0,000 mm 2,8 UV-I 462 W/m 10,9 C 21,1 C 16,1 km/h (3 Bft) 91,30 %
27.09.2023 10:54 21,1 C 23,9 C 17,8 C 13,9 C 52 % 200 cb 12 cb 1023,1 hPa 0,0 l/m 6,4 km/h (2 Bft) N 360 1 min 0,000 mm 2,8 UV-I 461 W/m 10,9 C 21,1 C 11,3 km/h (2 Bft) 86,96 %
27.09.2023 10:53 20,9 C 23,3 C 17,8 C 13,9 C 51 % 200 cb 12 cb 1023,2 hPa 0,0 l/m 17,7 km/h (3 Bft) W 270 1 min 0,000 mm 2,7 UV-I 455 W/m 10,4 C 20,9 C 29,0 km/h (5 Bft) 95,65 %
27.09.2023 10:52 20,9 C 23,3 C 17,8 C 13,9 C 50 % 200 cb 12 cb 1023,0 hPa 0,0 l/m 8,0 km/h (2 Bft) O-SO 112 1 min 0,000 mm 2,7 UV-I 461 W/m 10,1 C 20,9 C 16,1 km/h (3 Bft) 91,30 %
27.09.2023 10:51 21,0 C 22,8 C 17,8 C 13,9 C 51 % 200 cb 12 cb 1022,9 hPa 0,0 l/m 19,3 km/h (3 Bft) W-NW 292 1 min 0,000 mm 2,7 UV-I 381 W/m 10,5 C 21,0 C 30,6 km/h (5 Bft) 91,30 %
27.09.2023 10:50 21,1 C 22,8 C 17,8 C 13,9 C 51 % 200 cb 12 cb 1022,9 hPa 0,0 l/m 30,6 km/h (5 Bft) W 270 1 min 0,000 mm 2,7 UV-I 381 W/m 10,6 C 21,1 C 45,1 km/h (6 Bft) 91,30 %
27.09.2023 10:49 21,2 C 22,8 C 17,2 C 13,9 C 51 % 200 cb 12 cb 1023,0 hPa 0,0 l/m 17,7 km/h (3 Bft) NW 315 1 min 0,000 mm 2,7 UV-I 385 W/m 10,7 C 21,2 C 30,6 km/h (5 Bft) 95,65 %
27.09.2023 10:48 21,2 C 23,3 C 17,2 C 13,3 C 52 % 200 cb 12 cb 1023,2 hPa 0,0 l/m 14,5 km/h (3 Bft) O 90 1 min 0,000 mm 2,7 UV-I 450 W/m 10,9 C 21,2 C 25,7 km/h (4 Bft) 91,30 %
27.09.2023 10:47 21,1 C 22,8 C 17,2 C 13,3 C 55 % 200 cb 12 cb 1023,2 hPa 0,0 l/m 11,3 km/h (2 Bft) SW 225 1 min 0,000 mm 2,7 UV-I 452 W/m 11,7 C 21,1 C 17,7 km/h (3 Bft) 86,96 %
27.09.2023 10:46 20,9 C 22,2 C 16,7 C 13,3 C 54 % 200 cb 12 cb 1023,0 hPa 0,0 l/m 8,0 km/h (2 Bft) SO 135 1 min 0,000 mm 2,6 UV-I 450 W/m 11,2 C 20,9 C 12,9 km/h (3 Bft) 91,30 %
27.09.2023 10:45 20,8 C 21,7 C 16,7 C 13,3 C 55 % 200 cb 12 cb 1023,0 hPa 0,0 l/m 11,3 km/h (2 Bft) O-SO 112 1 min 0,000 mm 2,6 UV-I 446 W/m 11,4 C 20,8 C 17,7 km/h (3 Bft) 91,30 %
27.09.2023 10:44 20,8 C 21,1 C 16,7 C 13,3 C 52 % 200 cb 12 cb 1022,9 hPa 0,0 l/m 8,0 km/h (2 Bft) SO 135 1 min 0,000 mm 2,6 UV-I 445 W/m 10,6 C 20,8 C 12,9 km/h (3 Bft) 91,30 %
27.09.2023 10:43 20,8 C 21,1 C 16,7 C 13,3 C 52 % 200 cb 12 cb 1023,0 hPa 0,0 l/m 14,5 km/h (3 Bft) W-NW 292 1 min 0,000 mm 2,6 UV-I 443 W/m 10,6 C 20,8 C 27,4 km/h (4 Bft) 91,30 %
27.09.2023 10:42 20,9 C 21,1 C 16,7 C 13,3 C 53 % 200 cb 12 cb 1023,0 hPa 0,0 l/m 16,1 km/h (3 Bft) W-NW 292 1 min 0,000 mm 2,6 UV-I 441 W/m 11,0 C 20,9 C 35,4 km/h (5 Bft) 91,30 %
27.09.2023 10:41 20,9 C 20,6 C 16,7 C 13,3 C 52 % 200 cb 12 cb 1023,1 hPa 0,0 l/m 11,3 km/h (2 Bft) S-SW 202 1 min 0,000 mm 2,6 UV-I 443 W/m 10,7 C 20,9 C 24,1 km/h (4 Bft) 95,65 %
27.09.2023 10:40 20,9 C 20,6 C 16,7 C 13,3 C 53 % 200 cb 12 cb 1023,0 hPa 0,0 l/m 9,7 km/h (2 Bft) W-NW 292 1 min 0,000 mm 2,5 UV-I 443 W/m 11,0 C 20,9 C 20,9 km/h (4 Bft) 82,61 %
27.09.2023 10:39 20,8 C 20,0 C 16,7 C 13,3 C 54 % 200 cb 12 cb 1023,0 hPa 0,0 l/m 8,0 km/h (2 Bft) S-SO 157 1 min 0,000 mm 2,5 UV-I 438 W/m 11,1 C 20,8 C 16,1 km/h (3 Bft) 95,65 %
27.09.2023 10:38 20,7 C 19,4 C 16,7 C 13,3 C 54 % 200 cb 12 cb 1022,9 hPa 0,0 l/m 6,4 km/h (2 Bft) W-SW 247 1 min 0,000 mm 2,5 UV-I 438 W/m 11,1 C 20,7 C 9,7 km/h (2 Bft) 86,96 %
27.09.2023 10:37 20,7 C 18,9 C 16,7 C 13,3 C 52 % 200 cb 12 cb 1022,9 hPa 0,0 l/m 14,5 km/h (3 Bft) NW 315 1 min 0,000 mm 2,5 UV-I 438 W/m 10,5 C 20,7 C 20,9 km/h (4 Bft) 86,96 %
27.09.2023 10:36 20,7 C 18,3 C 16,7 C 13,3 C 53 % 200 cb 12 cb 1023,1 hPa 0,0 l/m 16,1 km/h (3 Bft) W 270 1 min 0,000 mm 2,5 UV-I 434 W/m 10,8 C 20,7 C 27,4 km/h (4 Bft) 91,30 %
27.09.2023 10:35 20,7 C 18,9 C 16,7 C 13,3 C 53 % 200 cb 12 cb 1022,9 hPa 0,0 l/m 14,5 km/h (3 Bft) S-SW 202 1 min 0,000 mm 2,5 UV-I 438 W/m 10,8 C 20,7 C 22,5 km/h (4 Bft) 91,30 %
27.09.2023 10:34 20,7 C 18,9 C 16,7 C 13,3 C 53 % 200 cb 12 cb 1023,2 hPa 0,0 l/m 11,3 km/h (2 Bft) NW 315 1 min 0,000 mm 2,5 UV-I 434 W/m 10,8 C 20,7 C 17,7 km/h (3 Bft) 78,26 %
27.09.2023 10:33 20,7 C 18,3 C 16,7 C 13,3 C 54 % 200 cb 12 cb 1023,0 hPa 0,0 l/m 16,1 km/h (3 Bft) SW 225 1 min 0,000 mm 2,4 UV-I 432 W/m 11,1 C 20,7 C 29,0 km/h (5 Bft) 86,96 %
27.09.2023 10:32 20,7 C 18,3 C 16,1 C 13,3 C 52 % 200 cb 12 cb 1022,9 hPa 0,0 l/m 12,9 km/h (3 Bft) O-NO 67 1 min 0,000 mm 2,4 UV-I 429 W/m 10,5 C 20,7 C 20,9 km/h (4 Bft) 86,96 %
27.09.2023 10:31 20,7 C 18,9 C 16,1 C 13,3 C 52 % 200 cb 12 cb 1023,0 hPa 0,0 l/m 8,0 km/h (2 Bft) S 180 1 min 0,000 mm 2,4 UV-I 429 W/m 10,5 C 20,7 C 46,7 km/h (6 Bft) 86,96 %
27.09.2023 10:30 20,8 C 18,9 C 16,1 C 13,3 C 53 % 200 cb 12 cb 1022,7 hPa 0,0 l/m 20,9 km/h (4 Bft) W 270 1 min 0,000 mm 2,4 UV-I 425 W/m 10,9 C 20,8 C 46,7 km/h (6 Bft) 91,30 %
27.09.2023 10:29 20,8 C 19,4 C 16,1 C 13,3 C 54 % 200 cb 12 cb 1022,9 hPa 0,0 l/m 14,5 km/h (3 Bft) S-SO 157 1 min 0,000 mm 2,4 UV-I 424 W/m 11,1 C 20,8 C 30,6 km/h (5 Bft) 82,61 %
27.09.2023 10:28 20,8 C 19,4 C 15,6 C 13,3 C 53 % 200 cb 12 cb 1023,0 hPa 0,0 l/m 11,3 km/h (2 Bft) O-SO 112 1 min 0,000 mm 2,4 UV-I 424 W/m 10,9 C 20,8 C 20,9 km/h (4 Bft) 86,96 %
27.09.2023 10:27 20,7 C 19,4 C 15,6 C 13,3 C 54 % 200 cb 12 cb 1022,9 hPa 0,0 l/m 8,0 km/h (2 Bft) S 180 1 min 0,000 mm 2,3 UV-I 422 W/m 11,1 C 20,7 C 14,5 km/h (3 Bft) 95,65 %
27.09.2023 10:26 20,6 C 19,4 C 15,6 C 13,3 C 55 % 200 cb 12 cb 1022,9 hPa 0,0 l/m 11,3 km/h (2 Bft) S 180 1 min 0,000 mm 2,3 UV-I 420 W/m 11,2 C 20,6 C 19,3 km/h (3 Bft) 78,26 %
27.09.2023 10:25 20,4 C 18,3 C 15,0 C 13,3 C 54 % 200 cb 12 cb 1022,8 hPa 0,0 l/m 11,3 km/h (2 Bft) S-SW 202 1 min 0,000 mm 2,3 UV-I 418 W/m 10,8 C 20,4 C 20,9 km/h (4 Bft) 95,65 %
27.09.2023 10:24 20,5 C 18,3 C 15,0 C 13,3 C 53 % 200 cb 12 cb 1022,8 hPa 0,0 l/m 8,0 km/h (2 Bft) O 90 1 min 0,000 mm 2,3 UV-I 417 W/m 10,6 C 20,5 C 17,7 km/h (3 Bft) 86,96 %
27.09.2023 10:23 20,4 C 17,8 C 15,0 C 13,3 C 54 % 200 cb 12 cb 1022,9 hPa 0,0 l/m 8,0 km/h (2 Bft) S-SW 202 1 min 0,000 mm 2,3 UV-I 415 W/m 10,8 C 20,4 C 20,9 km/h (4 Bft) 91,30 %
27.09.2023 10:22 20,3 C 16,7 C 14,4 C 13,3 C 54 % 200 cb 12 cb 1022,9 hPa 0,0 l/m 8,0 km/h (2 Bft) SO 135 1 min 0,000 mm 2,2 UV-I 415 W/m 10,7 C 20,3 C 16,1 km/h (3 Bft) 91,30 %
27.09.2023 10:21 20,3 C 16,7 C 14,4 C 13,3 C 54 % 200 cb 12 cb 1022,9 hPa 0,0 l/m 8,0 km/h (2 Bft) O-NO 67 1 min 0,000 mm 2,2 UV-I 410 W/m 10,7 C 20,3 C 12,9 km/h (3 Bft) 95,65 %
27.09.2023 10:20 20,3 C 16,1 C 14,4 C 13,3 C 54 % 200 cb 12 cb 1022,9 hPa 0,0 l/m 4,8 km/h (1 Bft) N-NO 22 1 min 0,000 mm 2,2 UV-I 410 W/m 10,7 C 20,3 C 11,3 km/h (2 Bft) 91,30 %
27.09.2023 10:19 20,4 C 15,6 C 14,4 C 13,3 C 54 % 200 cb 12 cb 1022,8 hPa 0,0 l/m 17,7 km/h (3 Bft) W-NW 292 1 min 0,000 mm 2,2 UV-I 408 W/m 10,8 C 20,4 C 29,0 km/h (5 Bft) 95,65 %
27.09.2023 10:18 20,4 C 15,6 C 14,4 C 13,3 C 52 % 200 cb 12 cb 1022,7 hPa 0,0 l/m 8,0 km/h (2 Bft) W-NW 292 1 min 0,000 mm 2,2 UV-I 406 W/m 10,2 C 20,4 C 20,9 km/h (4 Bft) 82,61 %
27.09.2023 10:17 20,3 C 15,0 C 13,9 C 13,3 C 53 % 200 cb 12 cb 1023,2 hPa 0,0 l/m 11,3 km/h (2 Bft) SW 225 1 min 0,000 mm 2,2 UV-I 404 W/m 10,4 C 20,3 C 19,3 km/h (3 Bft) 95,65 %
27.09.2023 10:16 20,3 C 15,0 C 13,9 C 13,3 C 57 % 200 cb 12 cb 1022,9 hPa 0,0 l/m 20,9 km/h (4 Bft) SO 135 1 min 0,000 mm 2,2 UV-I 404 W/m 11,5 C 20,3 C 30,6 km/h (5 Bft) 86,96 %
27.09.2023 10:15 20,2 C 15,0 C 13,9 C 13,3 C 55 % 200 cb 12 cb 1022,8 hPa 0,0 l/m 11,3 km/h (2 Bft) S-SW 202 1 min 0,000 mm 2,1 UV-I 403 W/m 10,9 C 20,2 C 19,3 km/h (3 Bft) 95,65 %
27.09.2023 10:14 20,3 C 15,0 C 13,9 C 13,3 C 55 % 200 cb 12 cb 1022,9 hPa 0,0 l/m 17,7 km/h (3 Bft) SW 225 1 min 0,000 mm 2,1 UV-I 399 W/m 11,0 C 20,3 C 33,8 km/h (5 Bft) 91,30 %
27.09.2023 10:13 20,2 C 15,0 C 13,9 C 13,3 C 53 % 200 cb 12 cb 1023,0 hPa 0,0 l/m 11,3 km/h (2 Bft) NO 45 1 min 0,000 mm 2,1 UV-I 399 W/m 10,3 C 20,2 C 17,7 km/h (3 Bft) 95,65 %
27.09.2023 10:12 20,2 C 15,0 C 13,9 C 13,3 C 55 % 200 cb 12 cb 1022,9 hPa 0,0 l/m 22,5 km/h (4 Bft) S 180 1 min 0,000 mm 2,1 UV-I 397 W/m 10,9 C 20,2 C 29,0 km/h (5 Bft) 82,61 %
27.09.2023 10:11 20,2 C 15,0 C 13,9 C 13,3 C 54 % 200 cb 12 cb 1022,9 hPa 0,0 l/m 14,5 km/h (3 Bft) W-SW 247 1 min 0,000 mm 2,1 UV-I 396 W/m 10,6 C 20,2 C 40,2 km/h (6 Bft) 91,30 %
27.09.2023 10:10 20,2 C 15,0 C 13,9 C 13,3 C 53 % 200 cb 12 cb 1022,8 hPa 0,0 l/m 19,3 km/h (3 Bft) W 270 1 min 0,000 mm 2,1 UV-I 392 W/m 10,3 C 20,2 C 40,2 km/h (6 Bft) 91,30 %
27.09.2023 10:09 20,2 C 15,0 C 13,9 C 13,3 C 54 % 200 cb 12 cb 1022,9 hPa 0,0 l/m 24,1 km/h (4 Bft) W-SW 247 1 min 0,000 mm 2,1 UV-I 392 W/m 10,6 C 20,2 C 32,2 km/h (5 Bft) 95,65 %
27.09.2023 10:08 20,2 C 15,0 C 13,9 C 13,3 C 54 % 200 cb 12 cb 1023,1 hPa 0,0 l/m 22,5 km/h (4 Bft) W 270 1 min 0,000 mm 2,1 UV-I 392 W/m 10,6 C 20,2 C 38,6 km/h (5 Bft) 91,30 %
27.09.2023 10:07 20,2 C 15,0 C 13,9 C 13,3 C 54 % 200 cb 12 cb 1023,1 hPa 0,0 l/m 12,9 km/h (3 Bft) W-SW 247 1 min 0,000 mm 2,0 UV-I 388 W/m 10,6 C 20,2 C 25,7 km/h (4 Bft) 82,61 %
27.09.2023 10:06 20,2 C 14,4 C 13,9 C 13,3 C 54 % 200 cb 12 cb 1023,1 hPa 0,0 l/m 4,8 km/h (1 Bft) W 270 1 min 0,000 mm 2,0 UV-I 385 W/m 10,6 C 20,2 C 9,7 km/h (2 Bft) 91,30 %
27.09.2023 10:05 20,1 C 14,4 C 13,9 C 13,3 C 56 % 200 cb 12 cb 1022,9 hPa 0,0 l/m 9,7 km/h (2 Bft) S-SO 157 1 min 0,000 mm 2,0 UV-I 385 W/m 11,0 C 20,1 C 14,5 km/h (3 Bft) 95,65 %
27.09.2023 10:04 20,1 C 14,4 C 13,9 C 13,3 C 54 % 200 cb 12 cb 1022,7 hPa 0,0 l/m 11,3 km/h (2 Bft) O 90 1 min 0,000 mm 2,0 UV-I 383 W/m 10,5 C 20,1 C 16,1 km/h (3 Bft) 86,96 %
27.09.2023 10:03 20,1 C 14,4 C 13,9 C 13,3 C 56 % 200 cb 12 cb 1022,8 hPa 0,0 l/m 14,5 km/h (3 Bft) NO 45 1 min 0,000 mm 2,0 UV-I 381 W/m 11,0 C 20,1 C 19,3 km/h (3 Bft) 95,65 %
27.09.2023 10:02 20,0 C 14,4 C 13,9 C 13,3 C 55 % 200 cb 12 cb 1022,9 hPa 0,0 l/m 8,0 km/h (2 Bft) O 90 1 min 0,000 mm 1,9 UV-I 378 W/m 10,7 C 20,0 C 20,9 km/h (4 Bft) 91,30 %
27.09.2023 10:01 20,0 C 14,4 C 13,9 C 13,3 C 54 % 200 cb 12 cb 1022,9 hPa 0,0 l/m 16,1 km/h (3 Bft) W 270 1 min 0,000 mm 1,9 UV-I 378 W/m 10,4 C 20,0 C 24,1 km/h (4 Bft) 91,30 %
27.09.2023 10:00 20,0 C 14,4 C 13,9 C 13,3 C 54 % 200 cb 12 cb 1023,0 hPa 0,0 l/m 12,9 km/h (3 Bft) W 270 1 min 0,203 mm 1,9 UV-I 378 W/m 10,4 C 20,0 C 22,5 km/h (4 Bft) 91,30 %
27.09.2023 09:59 20,0 C 14,4 C 13,9 C 13,3 C 54 % 200 cb 12 cb 1022,9 hPa 0,0 l/m 19,3 km/h (3 Bft) NW 315 1 min 0,000 mm 1,9 UV-I 374 W/m 10,4 C 20,0 C 29,0 km/h (5 Bft) 91,30 %
27.09.2023 09:58 20,0 C 13,9 C 13,9 C 13,3 C 55 % 200 cb 12 cb 1023,1 hPa 0,0 l/m 16,1 km/h (3 Bft) NW 315 1 min 0,000 mm 1,9 UV-I 371 W/m 10,7 C 20,0 C 35,4 km/h (5 Bft) 95,65 %
27.09.2023 09:57 20,0 C 13,9 C 13,9 C 13,3 C 55 % 200 cb 12 cb 1023,1 hPa 0,0 l/m 12,9 km/h (3 Bft) NW 315 1 min 0,000 mm 1,9 UV-I 371 W/m 10,7 C 20,0 C 25,7 km/h (4 Bft) 91,30 %
27.09.2023 09:56 20,0 C 13,9 C 13,9 C 13,3 C 54 % 200 cb 12 cb 1022,9 hPa 0,0 l/m 11,3 km/h (2 Bft) S 180 1 min 0,000 mm 1,8 UV-I 369 W/m 10,4 C 20,0 C 20,9 km/h (4 Bft) 82,61 %
27.09.2023 09:55 19,9 C 13,9 C 13,3 C 13,3 C 54 % 200 cb 12 cb 1023,1 hPa 0,0 l/m 8,0 km/h (2 Bft) SW 225 1 min 0,000 mm 1,8 UV-I 366 W/m 10,3 C 19,9 C 22,5 km/h (4 Bft) 86,96 %
27.09.2023 09:54 19,9 C 13,9 C 13,3 C 13,3 C 54 % 200 cb 12 cb 1022,9 hPa 0,0 l/m 11,3 km/h (2 Bft) W-NW 292 1 min 0,000 mm 1,8 UV-I 366 W/m 10,3 C 19,9 C 22,5 km/h (4 Bft) 95,65 %
27.09.2023 09:53 20,0 C 13,9 C 13,3 C 13,3 C 54 % 200 cb 12 cb 1022,8 hPa 0,0 l/m 17,7 km/h (3 Bft) W-NW 292 1 min 0,000 mm 1,8 UV-I 364 W/m 10,4 C 20,0 C 25,7 km/h (4 Bft) 91,30 %
27.09.2023 09:52 20,0 C 13,3 C 13,3 C 13,3 C 54 % 200 cb 12 cb 1023,1 hPa 0,0 l/m 14,5 km/h (3 Bft) SW 225 1 min 0,000 mm 1,8 UV-I 362 W/m 10,4 C 20,0 C 27,4 km/h (4 Bft) 91,30 %
27.09.2023 09:51 19,9 C 13,3 C 13,3 C 13,3 C 54 % 200 cb 12 cb 1023,0 hPa 0,0 l/m 16,1 km/h (3 Bft) S-SW 202 1 min 0,000 mm 1,8 UV-I 362 W/m 10,3 C 19,9 C 22,5 km/h (4 Bft) 86,96 %
27.09.2023 09:50 19,9 C 13,3 C 13,3 C 13,3 C 56 % 200 cb 12 cb 1022,9 hPa 0,0 l/m 12,9 km/h (3 Bft) SW 225 1 min 0,000 mm 1,7 UV-I 357 W/m 10,9 C 19,9 C 22,5 km/h (4 Bft) 86,96 %
27.09.2023 09:49 19,9 C 13,9 C 13,3 C 13,3 C 56 % 200 cb 12 cb 1022,7 hPa 0,0 l/m 16,1 km/h (3 Bft) O-SO 112 1 min 0,000 mm 1,7 UV-I 357 W/m 10,9 C 19,9 C 25,7 km/h (4 Bft) 82,61 %
27.09.2023 09:48 19,8 C 13,9 C 13,3 C 13,3 C 56 % 200 cb 12 cb 1022,8 hPa 0,0 l/m 17,7 km/h (3 Bft) S 180 1 min 0,000 mm 1,7 UV-I 353 W/m 10,8 C 19,8 C 37,0 km/h (5 Bft) 91,30 %
27.09.2023 09:47 19,8 C 13,9 C 13,3 C 13,3 C 54 % 200 cb 12 cb 1022,8 hPa 0,0 l/m 8,0 km/h (2 Bft) W-SW 247 1 min 0,000 mm 1,7 UV-I 352 W/m 10,2 C 19,8 C 20,9 km/h (4 Bft) 86,96 %
27.09.2023 09:46 19,7 C 13,3 C 13,3 C 13,3 C 54 % 200 cb 12 cb 1022,7 hPa 0,0 l/m 25,7 km/h (4 Bft) W 270 1 min 0,000 mm 1,7 UV-I 348 W/m 10,1 C 19,7 C 37,0 km/h (5 Bft) 86,96 %
27.09.2023 09:45 19,7 C 13,3 C 13,3 C 13,3 C 55 % 200 cb 12 cb 1022,9 hPa 0,0 l/m 11,3 km/h (2 Bft) S-SW 202 1 min 0,000 mm 1,6 UV-I 346 W/m 10,4 C 19,7 C 30,6 km/h (5 Bft) 86,96 %
27.09.2023 09:44 19,7 C 13,3 C 13,3 C 13,3 C 56 % 200 cb 12 cb 1022,7 hPa 0,0 l/m 8,0 km/h (2 Bft) NW 315 1 min 0,000 mm 1,6 UV-I 346 W/m 10,7 C 19,7 C 14,5 km/h (3 Bft) 91,30 %
27.09.2023 09:43 19,6 C 13,3 C 13,3 C 13,3 C 56 % 200 cb 12 cb 1022,6 hPa 0,0 l/m 16,1 km/h (3 Bft) NW 315 1 min 0,000 mm 1,6 UV-I 343 W/m 10,6 C 19,6 C 27,4 km/h (4 Bft) 86,96 %
27.09.2023 09:42 19,7 C 13,3 C 13,3 C 13,3 C 57 % 200 cb 12 cb 1022,8 hPa 0,0 l/m 9,7 km/h (2 Bft) W 270 1 min 0,000 mm 1,6 UV-I 341 W/m 10,9 C 19,7 C 24,1 km/h (4 Bft) 86,96 %
27.09.2023 09:41 19,7 C 13,3 C 13,3 C 13,3 C 56 % 200 cb 12 cb 1022,8 hPa 0,0 l/m 8,0 km/h (2 Bft) O-NO 67 1 min 0,000 mm 1,6 UV-I 338 W/m 10,7 C 19,7 C 14,5 km/h (3 Bft) 82,61 %
27.09.2023 09:40 19,7 C 13,3 C 13,3 C 13,3 C 56 % 200 cb 12 cb 1022,8 hPa 0,0 l/m 14,5 km/h (3 Bft) S 180 1 min 0,000 mm 1,5 UV-I 336 W/m 10,7 C 19,7 C 22,5 km/h (4 Bft) 91,30 %
27.09.2023 09:39 19,6 C 13,3 C 13,3 C 13,3 C 55 % 200 cb 12 cb 1022,8 hPa 0,0 l/m 8,0 km/h (2 Bft) S-SO 157 1 min 0,000 mm 1,5 UV-I 332 W/m 10,3 C 19,6 C 19,3 km/h (3 Bft) 86,96 %
27.09.2023 09:38 19,5 C 13,3 C 13,3 C 13,3 C 57 % 200 cb 12 cb 1022,8 hPa 0,0 l/m 8,0 km/h (2 Bft) SO 135 1 min 0,000 mm 1,5 UV-I 329 W/m 10,8 C 19,5 C 14,5 km/h (3 Bft) 91,30 %
27.09.2023 09:37 19,6 C 13,3 C 13,3 C 13,3 C 56 % 200 cb 12 cb 1022,7 hPa 0,0 l/m 11,3 km/h (2 Bft) O 90 1 min 0,000 mm 1,5 UV-I 329 W/m 10,6 C 19,6 C 19,3 km/h (3 Bft) 86,96 %
27.09.2023 09:36 19,6 C 13,3 C 13,3 C 13,3 C 56 % 200 cb 12 cb 1022,8 hPa 0,0 l/m 6,4 km/h (2 Bft) SO 135 1 min 0,000 mm 1,5 UV-I 327 W/m 10,6 C 19,6 C 14,5 km/h (3 Bft) 86,96 %
27.09.2023 09:35 19,6 C 12,8 C 13,3 C 13,3 C 55 % 200 cb 12 cb 1022,8 hPa 0,0 l/m 12,9 km/h (3 Bft) O 90 1 min 0,000 mm 1,4 UV-I 323 W/m 10,3 C 19,6 C 17,7 km/h (3 Bft) 86,96 %
27.09.2023 09:34 19,6 C 12,8 C 13,3 C 13,3 C 56 % 200 cb 12 cb 1022,9 hPa 0,0 l/m 11,3 km/h (2 Bft) SW 225 1 min 0,000 mm 1,4 UV-I 323 W/m 10,6 C 19,6 C 20,9 km/h (4 Bft) 91,30 %
27.09.2023 09:33 19,6 C 12,8 C 13,3 C 13,3 C 56 % 200 cb 12 cb 1022,8 hPa 0,0 l/m 9,7 km/h (2 Bft) O-NO 67 1 min 0,000 mm 1,4 UV-I 322 W/m 10,6 C 19,6 C 17,7 km/h (3 Bft) 82,61 %
27.09.2023 09:32 19,6 C 12,8 C 13,3 C 12,8 C 56 % 200 cb 12 cb 1022,8 hPa 0,0 l/m 12,9 km/h (3 Bft) SW 225 1 min 0,000 mm 1,3 UV-I 318 W/m 10,6 C 19,6 C 38,6 km/h (5 Bft) 95,65 %
27.09.2023 09:31 19,5 C 12,8 C 13,3 C 12,8 C 55 % 200 cb 12 cb 1022,6 hPa 0,0 l/m 20,9 km/h (4 Bft) W 270 1 min 0,000 mm 1,3 UV-I 316 W/m 10,2 C 19,5 C 38,6 km/h (5 Bft) 91,30 %
27.09.2023 09:30 19,5 C 12,8 C 13,3 C 12,8 C 55 % 200 cb 12 cb 1022,7 hPa 0,0 l/m 11,3 km/h (2 Bft) S-SW 202 1 min 0,000 mm 1,2 UV-I 313 W/m 10,2 C 19,5 C 20,9 km/h (4 Bft) 95,65 %
27.09.2023 09:29 19,4 C 12,8 C 12,8 C 12,8 C 56 % 200 cb 12 cb 1022,8 hPa 0,0 l/m 8,0 km/h (2 Bft) S-SO 157 1 min 0,000 mm 1,1 UV-I 262 W/m 10,4 C 19,4 C 14,5 km/h (3 Bft) 91,30 %
27.09.2023 09:28 19,4 C 12,8 C 12,8 C 12,8 C 56 % 200 cb 12 cb 1022,9 hPa 0,0 l/m 17,7 km/h (3 Bft) S-SW 202 1 min 0,000 mm 1,0 UV-I 192 W/m 10,4 C 19,4 C 25,7 km/h (4 Bft) 86,96 %
27.09.2023 09:27 19,3 C 12,8 C 12,8 C 12,8 C 58 % 200 cb 12 cb 1022,8 hPa 0,0 l/m 14,5 km/h (3 Bft) SO 135 0 min 0,000 mm 1,0 UV-I 113 W/m 10,8 C 19,3 C 20,9 km/h (4 Bft) 86,96 %
27.09.2023 09:26 19,3 C 12,8 C 12,8 C 12,8 C 58 % 200 cb 12 cb 1022,6 hPa 0,0 l/m 12,9 km/h (3 Bft) NW 315 0 min 0,000 mm 0,0 UV-I 53 W/m 10,8 C 19,3 C 19,3 km/h (3 Bft) 95,65 %
27.09.2023 09:25 19,3 C 12,8 C 12,8 C 12,8 C 58 % 200 cb 12 cb 1022,7 hPa 0,0 l/m 14,5 km/h (3 Bft) NO 45 0 min 0,000 mm 0,0 UV-I 33 W/m 10,8 C 19,3 C 25,7 km/h (4 Bft) 91,30 %
27.09.2023 09:24 19,2 C 12,8 C 12,8 C 12,8 C 58 % 200 cb 12 cb 1022,8 hPa 0,0 l/m 8,0 km/h (2 Bft) SO 135 0 min 0,000 mm 0,0 UV-I 33 W/m 10,7 C 19,2 C 14,5 km/h (3 Bft) 95,65 %
27.09.2023 09:23 19,1 C 12,8 C 12,8 C 12,8 C 57 % 200 cb 12 cb 1022,7 hPa 0,0 l/m 9,7 km/h (2 Bft) O 90 0 min 0,000 mm 0,0 UV-I 33 W/m 10,4 C 19,1 C 16,1 km/h (3 Bft) 82,61 %
27.09.2023 09:22 19,1 C 12,8 C 12,8 C 12,8 C 61 % 200 cb 12 cb 1022,9 hPa 0,0 l/m 12,9 km/h (3 Bft) S-SO 157 0 min 0,000 mm 0,0 UV-I 32 W/m 11,4 C 19,1 C 33,8 km/h (5 Bft) 91,30 %
27.09.2023 09:21 19,1 C 12,8 C 12,8 C 12,8 C 60 % 200 cb 12 cb 1022,7 hPa 0,0 l/m 12,9 km/h (3 Bft) S-SW 202 0 min 0,000 mm 0,0 UV-I 32 W/m 11,1 C 19,1 C 20,9 km/h (4 Bft) 86,96 %
27.09.2023 09:20 19,1 C 12,8 C 12,8 C 12,8 C 59 % 200 cb 12 cb 1022,6 hPa 0,0 l/m 16,1 km/h (3 Bft) O 90 0 min 0,000 mm 0,0 UV-I 32 W/m 10,9 C 19,1 C 30,6 km/h (5 Bft) 95,65 %
27.09.2023 09:19 19,1 C 12,8 C 12,8 C 12,8 C 58 % 200 cb 12 cb 1022,8 hPa 0,0 l/m 11,3 km/h (2 Bft) O-NO 67 0 min 0,000 mm 0,0 UV-I 32 W/m 10,6 C 19,1 C 25,7 km/h (4 Bft) 91,30 %
27.09.2023 09:18 19,1 C 12,2 C 12,8 C 12,8 C 60 % 200 cb 12 cb 1022,7 hPa 0,0 l/m 9,7 km/h (2 Bft) O 90 0 min 0,000 mm 0,0 UV-I 32 W/m 11,1 C 19,1 C 20,9 km/h (4 Bft) 91,30 %
27.09.2023 09:17 19,2 C 12,2 C 12,8 C 12,8 C 58 % 200 cb 12 cb 1022,7 hPa 0,0 l/m 9,7 km/h (2 Bft) S-SO 157 0 min 0,000 mm 0,0 UV-I 32 W/m 10,7 C 19,2 C 35,4 km/h (5 Bft) 82,61 %
27.09.2023 09:16 19,3 C 12,2 C 12,8 C 12,8 C 57 % 200 cb 12 cb 1022,7 hPa 0,0 l/m 8,0 km/h (2 Bft) N-NW 337 0 min 0,000 mm 0,0 UV-I 30 W/m 10,6 C 19,3 C 16,1 km/h (3 Bft) 91,30 %
27.09.2023 09:15 19,3 C 12,2 C 12,8 C 12,8 C 56 % 200 cb 12 cb 1022,7 hPa 0,0 l/m 12,9 km/h (3 Bft) S 180 0 min 0,000 mm 0,0 UV-I 30 W/m 10,3 C 19,3 C 35,4 km/h (5 Bft) 86,96 %
27.09.2023 09:14 19,2 C 12,2 C 12,8 C 12,8 C 58 % 200 cb 12 cb 1022,5 hPa 0,0 l/m 16,1 km/h (3 Bft) SW 225 0 min 0,000 mm 0,0 UV-I 30 W/m 10,7 C 19,2 C 24,1 km/h (4 Bft) 91,30 %
27.09.2023 09:13 19,1 C 12,2 C 12,8 C 12,8 C 57 % 200 cb 12 cb 1022,8 hPa 0,0 l/m 9,7 km/h (2 Bft) S 180 0 min 0,000 mm 0,0 UV-I 30 W/m 10,4 C 19,1 C 25,7 km/h (4 Bft) 82,61 %
27.09.2023 09:12 19,0 C 12,2 C 12,8 C 12,8 C 57 % 200 cb 12 cb 1022,8 hPa 0,0 l/m 17,7 km/h (3 Bft) S-SW 202 0 min 0,000 mm 0,0 UV-I 30 W/m 10,3 C 19,0 C 25,7 km/h (4 Bft) 86,96 %
27.09.2023 09:11 18,9 C 12,2 C 12,8 C 12,8 C 58 % 200 cb 12 cb 1022,9 hPa 0,0 l/m 14,5 km/h (3 Bft) SW 225 0 min 0,000 mm 0,0 UV-I 30 W/m 10,5 C 18,9 C 25,7 km/h (4 Bft) 86,96 %
27.09.2023 09:10 19,0 C 12,2 C 12,8 C 12,8 C 58 % 200 cb 12 cb 1022,8 hPa 0,0 l/m 12,9 km/h (3 Bft) W 270 0 min 0,000 mm 0,0 UV-I 30 W/m 10,5 C 19,0 C 25,7 km/h (4 Bft) 82,61 %
27.09.2023 09:09 18,9 C 12,2 C 12,8 C 12,8 C 59 % 200 cb 12 cb 1022,7 hPa 0,0 l/m 14,5 km/h (3 Bft) W-NW 292 0 min 0,000 mm 0,0 UV-I 30 W/m 10,7 C 18,9 C 27,4 km/h (4 Bft) 86,96 %
27.09.2023 09:08 18,8 C 12,2 C 12,2 C 12,8 C 59 % 200 cb 12 cb 1022,8 hPa 0,0 l/m 8,0 km/h (2 Bft) S 180 0 min 0,000 mm 0,0 UV-I 30 W/m 10,6 C 18,8 C 14,5 km/h (3 Bft) 91,30 %
27.09.2023 09:07 18,7 C 12,2 C 12,2 C 12,8 C 60 % 200 cb 12 cb 1022,8 hPa 0,0 l/m 11,3 km/h (2 Bft) S-SW 202 0 min 0,000 mm 0,0 UV-I 30 W/m 10,8 C 18,7 C 20,9 km/h (4 Bft) 86,96 %
27.09.2023 09:06 18,6 C 11,7 C 12,2 C 12,8 C 61 % 200 cb 12 cb 1022,7 hPa 0,0 l/m 9,7 km/h (2 Bft) W-SW 247 0 min 0,000 mm 0,0 UV-I 28 W/m 10,9 C 18,6 C 17,7 km/h (3 Bft) 86,96 %
27.09.2023 09:05 18,6 C 11,7 C 12,2 C 12,8 C 61 % 200 cb 12 cb 1022,7 hPa 0,0 l/m 8,0 km/h (2 Bft) SW 225 0 min 0,000 mm 0,0 UV-I 28 W/m 10,9 C 18,6 C 14,5 km/h (3 Bft) 82,61 %
27.09.2023 09:04 18,6 C 11,7 C 12,2 C 12,8 C 60 % 200 cb 12 cb 1022,9 hPa 0,0 l/m 12,9 km/h (3 Bft) SW 225 0 min 0,000 mm 0,0 UV-I 28 W/m 10,7 C 18,6 C 27,4 km/h (4 Bft) 91,30 %
27.09.2023 09:03 18,4 C 11,7 C 12,2 C 12,8 C 61 % 200 cb 12 cb 1022,7 hPa 0,0 l/m 9,7 km/h (2 Bft) W 270 0 min 0,000 mm 0,0 UV-I 28 W/m 10,7 C 18,4 C 20,9 km/h (4 Bft) 86,96 %
27.09.2023 09:02 18,2 C 11,7 C 12,2 C 12,8 C 61 % 200 cb 12 cb 1022,7 hPa 0,0 l/m 12,9 km/h (3 Bft) W 270 0 min 0,000 mm 0,0 UV-I 28 W/m 10,6 C 18,2 C 25,7 km/h (4 Bft) 86,96 %
27.09.2023 09:01 18,1 C 11,7 C 12,2 C 12,8 C 63 % 200 cb 12 cb 1022,6 hPa 0,0 l/m 11,3 km/h (2 Bft) O-SO 112 0 min 0,000 mm 0,0 UV-I 28 W/m 10,9 C 18,1 C 16,1 km/h (3 Bft) 86,96 %
27.09.2023 09:00 18,1 C 11,7 C 12,2 C 12,8 C 64 % 200 cb 12 cb 1022,7 hPa 0,0 l/m 4,8 km/h (1 Bft) O-NO 67 0 min 0,025 mm 0,0 UV-I 28 W/m 11,2 C 18,1 C 12,9 km/h (3 Bft) 86,96 %
27.09.2023 08:59 17,9 C 11,7 C 12,2 C 12,8 C 66 % 200 cb 12 cb 1022,6 hPa 0,0 l/m 9,7 km/h (2 Bft) O 90 0 min 0,000 mm 0,0 UV-I 28 W/m 11,5 C 17,9 C 19,3 km/h (3 Bft) 86,96 %
27.09.2023 08:58 17,9 C 11,7 C 12,2 C 12,8 C 66 % 200 cb 12 cb 1022,5 hPa 0,0 l/m 8,0 km/h (2 Bft) O-SO 112 0 min 0,000 mm 0,0 UV-I 28 W/m 11,5 C 17,9 C 16,1 km/h (3 Bft) 86,96 %
27.09.2023 08:57 17,8 C 11,7 C 12,2 C 12,8 C 64 % 200 cb 12 cb 1022,5 hPa 0,0 l/m 11,3 km/h (2 Bft) O-SO 112 0 min 0,000 mm 0,0 UV-I 28 W/m 10,9 C 17,8 C 33,8 km/h (5 Bft) 86,96 %
27.09.2023 08:56 17,4 C 11,7 C 12,2 C 12,8 C 67 % 200 cb 12 cb 1022,7 hPa 0,0 l/m 19,3 km/h (3 Bft) S-SO 157 0 min 0,000 mm 0,0 UV-I 28 W/m 11,2 C 17,4 C 33,8 km/h (5 Bft) 86,96 %
27.09.2023 08:55 17,1 C 11,1 C 12,2 C 12,8 C 66 % 200 cb 12 cb 1023,0 hPa 0,0 l/m 8,0 km/h (2 Bft) S-SW 202 0 min 0,000 mm 0,0 UV-I 28 W/m 10,7 C 17,1 C 16,1 km/h (3 Bft) 82,61 %
27.09.2023 08:54 16,8 C 11,1 C 11,7 C 12,8 C 69 % 200 cb 12 cb 1022,6 hPa 0,0 l/m 6,4 km/h (2 Bft) O 90 0 min 0,000 mm 0,0 UV-I 28 W/m 11,1 C 16,8 C 11,3 km/h (2 Bft) 86,96 %
27.09.2023 08:53 16,2 C 11,1 C 11,7 C 12,8 C 71 % 200 cb 12 cb 1022,7 hPa 0,0 l/m 9,7 km/h (2 Bft) W 270 0 min 0,000 mm 0,0 UV-I 28 W/m 10,9 C 16,2 C 14,5 km/h (3 Bft) 86,96 %
27.09.2023 08:52 15,8 C 11,1 C 11,7 C 12,8 C 75 % 200 cb 12 cb 1022,6 hPa 0,0 l/m 6,4 km/h (2 Bft) O-NO 67 0 min 0,000 mm 0,0 UV-I 28 W/m 11,4 C 15,8 C 12,9 km/h (3 Bft) 73,91 %
27.09.2023 08:51 15,1 C 11,1 C 11,7 C 12,8 C 81 % 200 cb 12 cb 1022,7 hPa 0,0 l/m 8,0 km/h (2 Bft) N-NO 22 0 min 0,000 mm 0,0 UV-I 28 W/m 11,9 C 15,1 C 11,3 km/h (2 Bft) 91,30 %
27.09.2023 08:50 14,9 C 10,6 C 11,7 C 12,8 C 81 % 200 cb 12 cb 1022,6 hPa 0,0 l/m 6,4 km/h (2 Bft) O-NO 67 0 min 0,000 mm 0,0 UV-I 28 W/m 11,7 C 14,9 C 9,7 km/h (2 Bft) 82,61 %
27.09.2023 08:49 14,8 C 10,6 C 11,7 C 12,8 C 81 % 200 cb 12 cb 1022,7 hPa 0,0 l/m 6,4 km/h (2 Bft) O 90 0 min 0,000 mm 0,0 UV-I 26 W/m 11,6 C 14,8 C 11,3 km/h (2 Bft) 82,61 %
27.09.2023 08:48 14,5 C 10,6 C 11,7 C 12,8 C 83 % 200 cb 12 cb 1022,6 hPa 0,0 l/m 4,8 km/h (1 Bft) NW 315 0 min 0,000 mm 0,0 UV-I 26 W/m 11,6 C 14,5 C 8,0 km/h (2 Bft) 86,96 %
27.09.2023 08:47 14,4 C 10,6 C 11,7 C 12,8 C 85 % 200 cb 12 cb 1022,8 hPa 0,0 l/m 9,7 km/h (2 Bft) S-SW 202 0 min 0,000 mm 0,0 UV-I 26 W/m 11,9 C 14,4 C 14,5 km/h (3 Bft) 86,96 %
27.09.2023 08:46 14,0 C 10,6 C 11,7 C 12,8 C 84 % 200 cb 12 cb 1022,7 hPa 0,0 l/m 11,3 km/h (2 Bft) NO 45 0 min 0,000 mm 0,0 UV-I 28 W/m 11,3 C 14,0 C 24,1 km/h (4 Bft) 86,96 %
27.09.2023 08:45 13,8 C 10,6 C 11,7 C 12,8 C 86 % 200 cb 12 cb 1022,6 hPa 0,0 l/m 6,4 km/h (2 Bft) W 270 0 min 0,000 mm 0,0 UV-I 28 W/m 11,5 C 13,8 C 11,3 km/h (2 Bft) 82,61 %
27.09.2023 08:44 13,8 C 10,6 C 11,7 C 12,8 C 86 % 200 cb 12 cb 1022,6 hPa 0,0 l/m 12,9 km/h (3 Bft) O 90 0 min 0,000 mm 0,0 UV-I 28 W/m 11,5 C 13,8 C 19,3 km/h (3 Bft) 82,61 %
27.09.2023 08:43 13,7 C 10,0 C 11,7 C 12,8 C 87 % 200 cb 12 cb 1022,7 hPa 0,0 l/m 12,9 km/h (3 Bft) N-NO 22 0 min 0,000 mm 0,0 UV-I 26 W/m 11,6 C 13,7 C 20,9 km/h (4 Bft) 86,96 %
27.09.2023 08:42 13,4 C 10,0 C 11,7 C 12,8 C 88 % 200 cb 12 cb 1022,6 hPa 0,0 l/m 11,3 km/h (2 Bft) N-NO 22 0 min 0,000 mm 0,0 UV-I 26 W/m 11,5 C 13,4 C 12,9 km/h (3 Bft) 86,96 %
27.09.2023 08:41 13,2 C 10,0 C 11,7 C 12,8 C 89 % 200 cb 12 cb 1022,5 hPa 0,0 l/m 9,7 km/h (2 Bft) NO 45 0 min 0,000 mm 0,0 UV-I 26 W/m 11,4 C 13,2 C 11,3 km/h (2 Bft) 91,30 %
27.09.2023 08:40 13,2 C 10,0 C 11,7 C 12,8 C 90 % 200 cb 12 cb 1022,8 hPa 0,0 l/m 8,0 km/h (2 Bft) N-NO 22 0 min 0,000 mm 0,0 UV-I 28 W/m 11,6 C 13,2 C 12,9 km/h (3 Bft) 91,30 %
27.09.2023 08:39 13,2 C 9,4 C 11,7 C 12,8 C 92 % 200 cb 12 cb 1022,6 hPa 0,0 l/m 6,4 km/h (2 Bft) S-SW 202 0 min 0,000 mm 0,0 UV-I 28 W/m 11,9 C 13,2 C 30,6 km/h (5 Bft) 91,30 %
27.09.2023 08:38 12,9 C 9,4 C 11,1 C 12,8 C 94 % 200 cb 12 cb 1022,4 hPa 0,0 l/m 9,7 km/h (2 Bft) N-NO 22 0 min 0,000 mm 0,0 UV-I 28 W/m 12,0 C 12,9 C 24,1 km/h (4 Bft) 82,61 %
27.09.2023 08:37 11,8 C 8,3 C 11,1 C 12,8 C 96 % 200 cb 12 cb 1022,6 hPa 0,0 l/m 19,3 km/h (3 Bft) NO 45 0 min 0,000 mm 0,0 UV-I 28 W/m 11,2 C 11,8 C 30,6 km/h (5 Bft) 91,30 %
27.09.2023 08:36 11,1 C 8,3 C 11,1 C 12,8 C 96 % 200 cb 12 cb 1022,7 hPa 0,0 l/m 4,8 km/h (1 Bft) SW 225 0 min 0,000 mm 0,0 UV-I 28 W/m 10,5 C 11,1 C 14,5 km/h (3 Bft) 86,96 %
27.09.2023 08:35 10,9 C 8,3 C 11,1 C 12,8 C 96 % 200 cb 12 cb 1022,8 hPa 0,0 l/m 6,4 km/h (2 Bft) S-SW 202 0 min 0,000 mm 0,0 UV-I 28 W/m 10,3 C 10,9 C 8,0 km/h (2 Bft) 91,30 %
27.09.2023 08:34 10,6 C 8,3 C 11,1 C 12,8 C 96 % 200 cb 12 cb 1022,8 hPa 0,0 l/m 3,2 km/h (1 Bft) S 180 0 min 0,000 mm 0,0 UV-I 28 W/m 10,0 C 10,6 C 6,4 km/h (2 Bft) 86,96 %
27.09.2023 08:33 10,4 C 8,3 C 11,1 C 12,8 C 95 % 200 cb 12 cb 1022,6 hPa 0,0 l/m 1,6 km/h (1 Bft) N 360 0 min 0,000 mm 0,0 UV-I 28 W/m 9,6 C 10,4 C 3,2 km/h (1 Bft) 82,61 %
27.09.2023 08:32 10,3 C 8,3 C 11,1 C 12,8 C 95 % 200 cb 12 cb 1022,6 hPa 0,0 l/m 3,2 km/h (1 Bft) W-NW 292 0 min 0,000 mm 0,0 UV-I 30 W/m 9,5 C 10,3 C 6,4 km/h (2 Bft) 86,96 %
27.09.2023 08:31 10,3 C 8,3 C 11,1 C 12,8 C 95 % 200 cb 12 cb 1022,6 hPa 0,0 l/m 8,0 km/h (2 Bft) O-SO 112 0 min 0,000 mm 0,0 UV-I 30 W/m 9,5 C 10,3 C 11,3 km/h (2 Bft) 86,96 %
27.09.2023 08:30 10,3 C 8,3 C 11,1 C 12,8 C 95 % 200 cb 12 cb 1022,6 hPa 0,0 l/m 11,3 km/h (2 Bft) O-NO 67 0 min 0,000 mm 0,0 UV-I 30 W/m 9,5 C 10,3 C 12,9 km/h (3 Bft) 86,96 %
27.09.2023 08:29 10,5 C 8,3 C 11,1 C 12,8 C 96 % 200 cb 12 cb 1022,6 hPa 0,0 l/m 11,3 km/h (2 Bft) O 90 0 min 0,000 mm 0,0 UV-I 30 W/m 9,9 C 10,5 C 12,9 km/h (3 Bft) 86,96 %
27.09.2023 08:28 10,5 C 8,3 C 11,1 C 12,8 C 96 % 200 cb 12 cb 1022,6 hPa 0,0 l/m 3,2 km/h (1 Bft) S-SO 157 0 min 0,000 mm 0,0 UV-I 28 W/m 9,9 C 10,5 C 4,8 km/h (1 Bft) 86,96 %
27.09.2023 08:27 10,3 C 8,3 C 11,1 C 12,8 C 97 % 200 cb 12 cb 1022,6 hPa 0,0 l/m 3,2 km/h (1 Bft) SO 135 0 min 0,000 mm 0,0 UV-I 28 W/m 9,8 C 10,3 C 6,4 km/h (2 Bft) 82,61 %
27.09.2023 08:26 10,1 C 7,8 C 11,1 C 12,8 C 96 % 200 cb 12 cb 1022,5 hPa 0,0 l/m 3,2 km/h (1 Bft) W-SW 247 0 min 0,000 mm 0,0 UV-I 28 W/m 9,5 C 10,1 C 4,8 km/h (1 Bft) 86,96 %
27.09.2023 08:25 9,8 C 7,8 C 11,1 C 12,8 C 96 % 200 cb 12 cb 1022,6 hPa 0,0 l/m 4,8 km/h (1 Bft) W-NW 292 0 min 0,000 mm 0,0 UV-I 28 W/m 9,2 C 9,6 C 6,4 km/h (2 Bft) 91,30 %
27.09.2023 08:24 9,7 C 7,8 C 11,1 C 12,8 C 96 % 200 cb 12 cb 1022,4 hPa 0,0 l/m 3,2 km/h (1 Bft) W-NW 292 0 min 0,000 mm 0,0 UV-I 28 W/m 9,1 C 9,7 C 6,4 km/h (2 Bft) 95,65 %
27.09.2023 08:23 9,8 C 7,8 C 11,1 C 12,8 C 96 % 200 cb 12 cb 1022,5 hPa 0,0 l/m 6,4 km/h (2 Bft) S 180 0 min 0,000 mm 0,0 UV-I 28 W/m 9,2 C 9,1 C 9,7 km/h (2 Bft) 86,96 %
27.09.2023 08:22 9,8 C 7,8 C 11,1 C 12,8 C 96 % 200 cb 12 cb 1022,5 hPa 0,0 l/m 3,2 km/h (1 Bft) O-NO 67 0 min 0,000 mm 0,0 UV-I 28 W/m 9,2 C 9,8 C 4,8 km/h (1 Bft) 86,96 %
27.09.2023 08:21 9,8 C 7,8 C 11,1 C 12,8 C 96 % 200 cb 12 cb 1022,5 hPa 0,0 l/m 3,2 km/h (1 Bft) O-NO 67 0 min 0,000 mm 0,0 UV-I 28 W/m 9,2 C 9,8 C 4,8 km/h (1 Bft) 91,30 %
27.09.2023 08:20 9,8 C 7,8 C 11,1 C 12,8 C 96 % 200 cb 12 cb 1022,5 hPa 0,0 l/m 4,8 km/h (1 Bft) O-SO 112 0 min 0,000 mm 0,0 UV-I 28 W/m 9,2 C 9,6 C 6,4 km/h (2 Bft) 91,30 %
27.09.2023 08:19 9,9 C 7,8 C 11,1 C 12,8 C 96 % 200 cb 12 cb 1022,6 hPa 0,0 l/m 3,2 km/h (1 Bft) SO 135 0 min 0,000 mm 0,0 UV-I 28 W/m 9,3 C 9,9 C 4,8 km/h (1 Bft) 95,65 %
27.09.2023 08:18 9,8 C 7,8 C 11,1 C 12,8 C 96 % 200 cb 12 cb 1022,5 hPa 0,0 l/m 1,6 km/h (1 Bft) W 270 0 min 0,000 mm 0,0 UV-I 30 W/m 9,2 C 9,8 C 3,2 km/h (1 Bft) 91,30 %
27.09.2023 08:17 9,8 C 7,8 C 11,1 C 12,8 C 97 % 200 cb 12 cb 1022,5 hPa 0,0 l/m 1,6 km/h (1 Bft) N 360 0 min 0,000 mm 0,0 UV-I 30 W/m 9,3 C 9,8 C 4,8 km/h (1 Bft) 95,65 %
27.09.2023 08:16 9,8 C 7,8 C 11,1 C 12,8 C 97 % 200 cb 12 cb 1022,5 hPa 0,1 l/m 1,6 km/h (1 Bft) NO 45 0 min 0,000 mm 0,0 UV-I 30 W/m 9,3 C 9,8 C 3,2 km/h (1 Bft) 91,30 %
27.09.2023 08:15 9,7 C 7,8 C 11,1 C 12,8 C 97 % 200 cb 12 cb 1022,5 hPa 0,0 l/m 1,6 km/h (1 Bft) S-SW 202 0 min 0,000 mm 0,0 UV-I 30 W/m 9,2 C 9,7 C 3,2 km/h (1 Bft) 95,65 %
27.09.2023 08:14 9,7 C 7,8 C 11,1 C 12,8 C 97 % 200 cb 12 cb 1022,5 hPa 0,0 l/m 3,2 km/h (1 Bft) O-NO 67 0 min 0,000 mm 0,0 UV-I 30 W/m 9,2 C 9,7 C 4,8 km/h (1 Bft) 95,65 %
27.09.2023 08:13 9,7 C 7,8 C 11,1 C 12,8 C 97 % 200 cb 12 cb 1022,5 hPa 0,0 l/m 6,4 km/h (2 Bft) NO 45 0 min 0,000 mm 0,0 UV-I 30 W/m 9,2 C 9,0 C 9,7 km/h (2 Bft) 91,30 %
27.09.2023 08:12 9,5 C 7,8 C 11,1 C 12,8 C 97 % 200 cb 12 cb 1022,5 hPa 0,0 l/m 6,4 km/h (2 Bft) N-NW 337 0 min 0,000 mm 0,0 UV-I 30 W/m 9,0 C 8,8 C 8,0 km/h (2 Bft) 91,30 %
27.09.2023 08:11 9,4 C 7,8 C 11,1 C 12,8 C 97 % 200 cb 12 cb 1022,5 hPa 0,0 l/m 4,8 km/h (1 Bft) NW 315 0 min 0,000 mm 0,0 UV-I 30 W/m 8,9 C 9,1 C 6,4 km/h (2 Bft) 91,30 %
27.09.2023 08:10 9,4 C 7,2 C 11,1 C 12,8 C 96 % 200 cb 12 cb 1022,5 hPa 0,0 l/m 1,6 km/h (1 Bft) O-SO 112 0 min 0,000 mm 0,0 UV-I 30 W/m 8,8 C 9,4 C 3,2 km/h (1 Bft) 95,65 %
27.09.2023 08:09 9,3 C 7,2 C 11,1 C 12,8 C 97 % 200 cb 12 cb 1022,5 hPa 0,0 l/m 3,2 km/h (1 Bft) S-SO 157 0 min 0,000 mm 0,0 UV-I 30 W/m 8,8 C 9,3 C 4,8 km/h (1 Bft) 91,30 %
27.09.2023 08:08 9,3 C 7,2 C 11,1 C 12,8 C 96 % 200 cb 12 cb 1022,5 hPa 0,0 l/m 4,8 km/h (1 Bft) SO 135 0 min 0,000 mm 0,0 UV-I 30 W/m 8,7 C 9,0 C 6,4 km/h (2 Bft) 95,65 %
27.09.2023 08:07 9,3 C 7,2 C 11,1 C 12,8 C 97 % 200 cb 12 cb 1022,5 hPa 0,0 l/m 4,8 km/h (1 Bft) O-NO 67 0 min 0,000 mm 0,0 UV-I 30 W/m 8,8 C 9,0 C 8,0 km/h (2 Bft) 95,65 %
27.09.2023 08:06 9,3 C 7,2 C 11,1 C 12,8 C 97 % 200 cb 12 cb 1022,5 hPa 0,0 l/m 1,6 km/h (1 Bft) S 180 0 min 0,000 mm 0,0 UV-I 30 W/m 8,8 C 9,3 C 4,8 km/h (1 Bft) 91,30 %
27.09.2023 08:05 9,3 C 7,2 C 11,1 C 12,8 C 97 % 200 cb 12 cb 1022,5 hPa 0,0 l/m 3,2 km/h (1 Bft) S-SW 202 0 min 0,000 mm 0,0 UV-I 30 W/m 8,8 C 9,3 C 4,8 km/h (1 Bft) 91,30 %
27.09.2023 08:04 9,3 C 7,2 C 11,1 C 12,8 C 97 % 200 cb 12 cb 1022,4 hPa 0,0 l/m 3,2 km/h (1 Bft) O-NO 67 0 min 0,000 mm 0,0 UV-I 30 W/m 8,8 C 9,3 C 4,8 km/h (1 Bft) 95,65 %
27.09.2023 08:03 9,3 C 6,7 C 11,1 C 12,8 C 97 % 200 cb 12 cb 1022,5 hPa 0,0 l/m 1,6 km/h (1 Bft) O-NO 67 0 min 0,000 mm 0,0 UV-I 30 W/m 8,8 C 9,3 C 3,2 km/h (1 Bft) 95,65 %
27.09.2023 08:02 9,3 C 6,7 C 11,1 C 12,8 C 97 % 200 cb 12 cb 1022,4 hPa 0,0 l/m 1,6 km/h (1 Bft) SO 135 0 min 0,000 mm 0,0 UV-I 30 W/m 8,8 C 9,3 C 3,2 km/h (1 Bft) 95,65 %
27.09.2023 08:01 9,2 C 6,7 C 11,1 C 12,8 C 97 % 200 cb 12 cb 1022,4 hPa 0,0 l/m 4,8 km/h (1 Bft) O 90 0 min 0,000 mm 0,0 UV-I 30 W/m 8,7 C 8,9 C 6,4 km/h (2 Bft) 95,65 %
27.09.2023 08:00 9,1 C 6,7 C 11,1 C 12,8 C 97 % 200 cb 12 cb 1022,5 hPa 0,0 l/m 3,2 km/h (1 Bft) O 90 0 min 0,000 mm 0,0 UV-I 30 W/m 8,6 C 9,1 C 6,4 km/h (2 Bft) 91,30 %
27.09.2023 07:59 9,2 C 6,7 C 11,1 C 12,8 C 97 % 200 cb 12 cb 1022,5 hPa 0,0 l/m 1,6 km/h (1 Bft) SO 135 0 min 0,000 mm 0,0 UV-I 30 W/m 8,7 C 9,2 C 3,2 km/h (1 Bft) 95,65 %
27.09.2023 07:58 9,1 C 6,7 C 11,1 C 12,8 C 97 % 200 cb 12 cb 1022,5 hPa 0,0 l/m 1,6 km/h (1 Bft) SO 135 0 min 0,000 mm 0,0 UV-I 30 W/m 8,6 C 9,1 C 1,6 km/h (1 Bft) 95,65 %
27.09.2023 07:57 9,1 C 6,7 C 11,1 C 12,8 C 97 % 200 cb 12 cb 1022,5 hPa 0,0 l/m 1,6 km/h (1 Bft) NO 45 0 min 0,000 mm 0,0 UV-I 30 W/m 8,6 C 9,1 C 3,2 km/h (1 Bft) 95,65 %
27.09.2023 07:56 8,9 C 6,7 C 11,1 C 12,8 C 96 % 200 cb 12 cb 1022,8 hPa 0,0 l/m 1,6 km/h (1 Bft) NO 45 0 min 0,000 mm 0,0 UV-I 28 W/m 8,3 C 8,9 C 3,2 km/h (1 Bft) 95,65 %
27.09.2023 07:55 8,9 C 6,7 C 11,1 C 12,8 C 96 % 200 cb 12 cb 1022,5 hPa 0,0 l/m 1,6 km/h (1 Bft) W 270 0 min 0,000 mm 0,0 UV-I 28 W/m 8,3 C 8,9 C 3,2 km/h (1 Bft) 91,30 %
27.09.2023 07:54 9,1 C 6,7 C 11,1 C 12,8 C 97 % 200 cb 12 cb 1022,4 hPa 0,0 l/m 1,6 km/h (1 Bft) W 270 0 min 0,000 mm 0,0 UV-I 28 W/m 8,6 C 9,1 C 4,8 km/h (1 Bft) 82,61 %
27.09.2023 07:53 9,1 C 6,1 C 11,1 C 12,8 C 97 % 200 cb 12 cb 1022,4 hPa 0,0 l/m 1,6 km/h (1 Bft) O-NO 67 0 min 0,000 mm 0,0 UV-I 28 W/m 8,6 C 9,1 C 3,2 km/h (1 Bft) 95,65 %
27.09.2023 07:52 9,1 C 6,1 C 11,1 C 12,8 C 96 % 200 cb 12 cb 1022,4 hPa 0,0 l/m 1,6 km/h (1 Bft) O 90 0 min 0,000 mm 0,0 UV-I 28 W/m 8,5 C 9,1 C 3,2 km/h (1 Bft) 95,65 %
27.09.2023 07:51 9,0 C 6,1 C 11,1 C 12,8 C 97 % 200 cb 12 cb 1022,4 hPa 0,0 l/m 0,0 km/h (0 Bft) N 360 0 min 0,000 mm 0,0 UV-I 26 W/m 8,5 C 9,0 C 1,6 km/h (1 Bft) 95,65 %
27.09.2023 07:50 8,9 C 6,1 C 11,1 C 12,8 C 96 % 200 cb 12 cb 1022,5 hPa 0,0 l/m 0,0 km/h (0 Bft) NO 45 0 min 0,000 mm 0,0 UV-I 26 W/m 8,3 C 8,9 C 1,6 km/h (1 Bft) 95,65 %
27.09.2023 07:49 8,9 C 6,1 C 11,1 C 12,8 C 96 % 200 cb 12 cb 1022,4 hPa 0,0 l/m 0,0 km/h (0 Bft) SO 135 0 min 0,000 mm 0,0 UV-I 26 W/m 8,3 C 8,9 C 1,6 km/h (1 Bft) 91,30 %
27.09.2023 07:48 8,8 C 6,1 C 11,1 C 12,8 C 96 % 200 cb 12 cb 1022,4 hPa 0,0 l/m 1,6 km/h (1 Bft) NW 315 0 min 0,000 mm 0,0 UV-I 25 W/m 8,2 C 8,8 C 1,6 km/h (1 Bft) 95,65 %
27.09.2023 07:47 8,8 C 6,1 C 11,1 C 12,8 C 96 % 200 cb 12 cb 1022,5 hPa 0,0 l/m 1,6 km/h (1 Bft) N 360 0 min 0,000 mm 0,0 UV-I 25 W/m 8,2 C 8,8 C 3,2 km/h (1 Bft) 95,65 %
27.09.2023 07:46 8,8 C 6,1 C 11,1 C 12,8 C 96 % 200 cb 12 cb 1022,5 hPa 0,0 l/m 1,6 km/h (1 Bft) N-NW 337 0 min 0,000 mm 0,0 UV-I 23 W/m 8,2 C 8,8 C 3,2 km/h (1 Bft) 91,30 %
27.09.2023 07:45 8,8 C 6,1 C 11,1 C 12,8 C 96 % 200 cb 12 cb 1022,5 hPa 0,0 l/m 3,2 km/h (1 Bft) S 180 0 min 0,000 mm 0,0 UV-I 23 W/m 8,2 C 8,8 C 4,8 km/h (1 Bft) 95,65 %
27.09.2023 07:44 8,9 C 6,1 C 11,1 C 12,8 C 96 % 200 cb 12 cb 1022,4 hPa 0,0 l/m 3,2 km/h (1 Bft) S-SO 157 0 min 0,000 mm 0,0 UV-I 23 W/m 8,3 C 8,9 C 4,8 km/h (1 Bft) 95,65 %
27.09.2023 07:43 8,9 C 6,1 C 11,1 C 12,8 C 96 % 200 cb 12 cb 1022,5 hPa 0,0 l/m 1,6 km/h (1 Bft) O-SO 112 0 min 0,000 mm 0,0 UV-I 21 W/m 8,3 C 8,9 C 3,2 km/h (1 Bft) 91,30 %
27.09.2023 07:42 8,9 C 6,1 C 11,1 C 12,8 C 96 % 200 cb 12 cb 1022,4 hPa 0,0 l/m 1,6 km/h (1 Bft) O 90 0 min 0,000 mm 0,0 UV-I 21 W/m 8,3 C 8,9 C 3,2 km/h (1 Bft) 91,30 %
27.09.2023 07:41 9,1 C 6,1 C 11,1 C 12,8 C 96 % 200 cb 12 cb 1022,5 hPa 0,0 l/m 1,6 km/h (1 Bft) NO 45 0 min 0,000 mm 0,0 UV-I 21 W/m 8,5 C 9,1 C 1,6 km/h (1 Bft) 95,65 %
27.09.2023 07:40 9,0 C 6,1 C 11,1 C 12,8 C 96 % 200 cb 12 cb 1022,5 hPa 0,0 l/m 1,6 km/h (1 Bft) S-SW 202 0 min 0,000 mm 0,0 UV-I 19 W/m 8,4 C 9,0 C 3,2 km/h (1 Bft) 91,30 %
27.09.2023 07:39 9,0 C 6,1 C 11,1 C 12,8 C 96 % 200 cb 12 cb 1022,5 hPa 0,0 l/m 0,0 km/h (0 Bft) W 270 0 min 0,000 mm 0,0 UV-I 19 W/m 8,4 C 9,0 C 3,2 km/h (1 Bft) 91,30 %
27.09.2023 07:38 9,0 C 6,1 C 11,1 C 12,8 C 96 % 200 cb 12 cb 1022,5 hPa 0,0 l/m 1,6 km/h (1 Bft) W 270 0 min 0,000 mm 0,0 UV-I 18 W/m 8,4 C 9,0 C 3,2 km/h (1 Bft) 86,96 %
27.09.2023 07:37 9,1 C 6,1 C 11,1 C 12,8 C 96 % 200 cb 12 cb 1022,5 hPa 0,0 l/m 1,6 km/h (1 Bft) W 270 0 min 0,000 mm 0,0 UV-I 18 W/m 8,5 C 9,1 C 3,2 km/h (1 Bft) 91,30 %
27.09.2023 07:36 9,1 C 6,1 C 11,1 C 12,8 C 96 % 200 cb 12 cb 1022,5 hPa 0,0 l/m 1,6 km/h (1 Bft) W-SW 247 0 min 0,000 mm 0,0 UV-I 16 W/m 8,5 C 9,1 C 3,2 km/h (1 Bft) 95,65 %
27.09.2023 07:35 9,1 C 6,1 C 11,1 C 12,8 C 96 % 200 cb 12 cb 1022,5 hPa 0,0 l/m 1,6 km/h (1 Bft) N-NO 22 0 min 0,000 mm 0,0 UV-I 16 W/m 8,5 C 9,1 C 3,2 km/h (1 Bft) 91,30 %
27.09.2023 07:34 9,1 C 5,6 C 11,1 C 12,8 C 96 % 200 cb 12 cb 1022,4 hPa 0,0 l/m 3,2 km/h (1 Bft) NO 45 0 min 0,000 mm 0,0 UV-I 16 W/m 8,5 C 9,1 C 4,8 km/h (1 Bft) 91,30 %
27.09.2023 07:33 9,1 C 5,6 C 11,1 C 12,8 C 96 % 200 cb 12 cb 1022,5 hPa 0,0 l/m 4,8 km/h (1 Bft) N-NO 22 0 min 0,000 mm 0,0 UV-I 14 W/m 8,5 C 8,8 C 6,4 km/h (2 Bft) 86,96 %
27.09.2023 07:32 9,1 C 5,6 C 11,1 C 12,8 C 96 % 200 cb 12 cb 1022,4 hPa 0,0 l/m 3,2 km/h (1 Bft) N 360 0 min 0,000 mm 0,0 UV-I 14 W/m 8,5 C 9,1 C 4,8 km/h (1 Bft) 91,30 %
27.09.2023 07:31 9,3 C 5,6 C 11,1 C 12,8 C 97 % 200 cb 12 cb 1022,5 hPa 0,0 l/m 4,8 km/h (1 Bft) NW 315 0 min 0,000 mm 0,0 UV-I 14 W/m 8,8 C 9,0 C 6,4 km/h (2 Bft) 91,30 %
27.09.2023 07:30 9,3 C 5,6 C 11,1 C 12,8 C 96 % 200 cb 12 cb 1022,4 hPa 0,0 l/m 3,2 km/h (1 Bft) N-NW 337 0 min 0,000 mm 0,0 UV-I 12 W/m 8,7 C 9,3 C 4,8 km/h (1 Bft) 95,65 %
27.09.2023 07:29 9,1 C 5,6 C 11,1 C 12,8 C 96 % 200 cb 12 cb 1022,4 hPa 0,0 l/m 3,2 km/h (1 Bft) W-NW 292 0 min 0,000 mm 0,0 UV-I 11 W/m 8,5 C 9,1 C 4,8 km/h (1 Bft) 91,30 %
27.09.2023 07:28 9,1 C 5,6 C 11,1 C 12,8 C 96 % 200 cb 12 cb 1022,4 hPa 0,0 l/m 1,6 km/h (1 Bft) N-NO 22 0 min 0,000 mm 0,0 UV-I 11 W/m 8,5 C 9,1 C 1,6 km/h (1 Bft) 95,65 %
27.09.2023 07:27 9,1 C 5,6 C 11,1 C 12,8 C 96 % 200 cb 12 cb 1022,4 hPa 0,0 l/m 1,6 km/h (1 Bft) N 360 0 min 0,000 mm 0,0 UV-I 11 W/m 8,5 C 9,1 C 1,6 km/h (1 Bft) 86,96 %
27.09.2023 07:26 9,1 C 5,6 C 11,1 C 12,8 C 96 % 200 cb 12 cb 1022,4 hPa 0,0 l/m 0,0 km/h (0 Bft) N 360 0 min 0,000 mm 0,0 UV-I 11 W/m 8,5 C 9,1 C 1,6 km/h (1 Bft) 95,65 %
27.09.2023 07:25 9,0 C 5,6 C 11,1 C 12,8 C 96 % 200 cb 12 cb 1022,4 hPa 0,0 l/m 3,2 km/h (1 Bft) O-NO 67 0 min 0,000 mm 0,0 UV-I 9 W/m 8,4 C 9,0 C 4,8 km/h (1 Bft) 91,30 %
27.09.2023 07:24 8,9 C 5,6 C 11,1 C 12,8 C 96 % 200 cb 12 cb 1022,4 hPa 0,0 l/m 3,2 km/h (1 Bft) O 90 0 min 0,000 mm 0,0 UV-I 9 W/m 8,3 C 8,9 C 4,8 km/h (1 Bft) 95,65 %
27.09.2023 07:23 9,2 C 5,6 C 11,1 C 12,8 C 96 % 200 cb 12 cb 1022,4 hPa 0,0 l/m 4,8 km/h (1 Bft) O-SO 112 0 min 0,000 mm 0,0 UV-I 9 W/m 8,6 C 8,9 C 6,4 km/h (2 Bft) 86,96 %
27.09.2023 07:22 9,2 C 5,6 C 11,1 C 12,8 C 96 % 200 cb 12 cb 1022,3 hPa 0,0 l/m 3,2 km/h (1 Bft) O-SO 112 0 min 0,000 mm 0,0 UV-I 9 W/m 8,6 C 9,2 C 4,8 km/h (1 Bft) 91,30 %
27.09.2023 07:21 9,2 C 5,6 C 11,1 C 12,8 C 96 % 200 cb 12 cb 1022,4 hPa 0,0 l/m 3,2 km/h (1 Bft) NO 45 0 min 0,000 mm 0,0 UV-I 7 W/m 8,6 C 9,2 C 3,2 km/h (1 Bft) 91,30 %
27.09.2023 07:20 8,9 C 5,6 C 11,1 C 12,8 C 96 % 200 cb 12 cb 1022,4 hPa 0,0 l/m 1,6 km/h (1 Bft) N 360 0 min 0,000 mm 0,0 UV-I 7 W/m 8,3 C 8,9 C 3,2 km/h (1 Bft) 86,96 %
27.09.2023 07:19 9,1 C 5,6 C 11,1 C 12,8 C 96 % 200 cb 12 cb 1022,3 hPa 0,0 l/m 1,6 km/h (1 Bft) W-SW 247 0 min 0,000 mm 0,0 UV-I 7 W/m 8,5 C 9,1 C 3,2 km/h (1 Bft) 86,96 %
27.09.2023 07:18 9,2 C 5,6 C 11,1 C 12,8 C 96 % 200 cb 12 cb 1022,3 hPa 0,0 l/m 3,2 km/h (1 Bft) SW 225 0 min 0,000 mm 0,0 UV-I 7 W/m 8,6 C 9,2 C 3,2 km/h (1 Bft) 86,96 %
27.09.2023 07:17 9,2 C 5,6 C 11,1 C 12,8 C 96 % 200 cb 12 cb 1022,3 hPa 0,0 l/m 0,0 km/h (0 Bft) S-SW 202 0 min 0,000 mm 0,0 UV-I 7 W/m 8,6 C 9,2 C 1,6 km/h (1 Bft) 95,65 %
27.09.2023 07:16 9,2 C 5,6 C 11,1 C 12,8 C 96 % 200 cb 12 cb 1022,3 hPa 0,0 l/m 1,6 km/h (1 Bft) N-NW 337 0 min 0,000 mm 0,0 UV-I 7 W/m 8,6 C 9,2 C 1,6 km/h (1 Bft) 86,96 %
27.09.2023 07:15 9,2 C 5,6 C 11,1 C 12,8 C 97 % 200 cb 12 cb 1022,2 hPa 0,0 l/m 3,2 km/h (1 Bft) S-SW 202 0 min 0,000 mm 0,0 UV-I 7 W/m 8,7 C 9,2 C 4,8 km/h (1 Bft) 91,30 %
27.09.2023 07:14 9,3 C 5,6 C 11,1 C 12,8 C 97 % 200 cb 12 cb 1022,3 hPa 0,0 l/m 1,6 km/h (1 Bft) SO 135 0 min 0,000 mm 0,0 UV-I 7 W/m 8,8 C 9,3 C 6,4 km/h (2 Bft) 91,30 %
27.09.2023 07:13 9,2 C 5,6 C 11,1 C 12,8 C 96 % 200 cb 12 cb 1022,3 hPa 0,0 l/m 3,2 km/h (1 Bft) O-SO 112 0 min 0,000 mm 0,0 UV-I 7 W/m 8,6 C 9,2 C 3,2 km/h (1 Bft) 95,65 %
27.09.2023 07:12 9,1 C 5,6 C 11,1 C 12,8 C 96 % 200 cb 12 cb 1022,2 hPa 0,0 l/m 3,2 km/h (1 Bft) O 90 0 min 0,000 mm 0,0 UV-I 7 W/m 8,5 C 9,1 C 3,2 km/h (1 Bft) 86,96 %
27.09.2023 07:11 9,0 C 5,6 C 11,1 C 12,8 C 96 % 200 cb 12 cb 1022,2 hPa 0,0 l/m 1,6 km/h (1 Bft) O-SO 112 0 min 0,000 mm 0,0 UV-I 7 W/m 8,4 C 9,0 C 3,2 km/h (1 Bft) 95,65 %
27.09.2023 07:10 9,0 C 5,6 C 11,1 C 12,8 C 96 % 200 cb 12 cb 1022,3 hPa 0,0 l/m 1,6 km/h (1 Bft) S 180 0 min 0,000 mm 0,0 UV-I 7 W/m 8,4 C 9,0 C 3,2 km/h (1 Bft) 91,30 %
27.09.2023 07:09 9,0 C 5,6 C 11,1 C 12,8 C 96 % 200 cb 12 cb 1022,2 hPa 0,0 l/m 1,6 km/h (1 Bft) S 180 0 min 0,000 mm 0,0 UV-I 7 W/m 8,4 C 9,0 C 3,2 km/h (1 Bft) 91,30 %
27.09.2023 07:08 9,1 C 5,6 C 11,1 C 12,8 C 96 % 200 cb 12 cb 1022,2 hPa 0,0 l/m 3,2 km/h (1 Bft) SO 135 0 min 0,000 mm 0,0 UV-I 7 W/m 8,5 C 9,1 C 4,8 km/h (1 Bft) 95,65 %
27.09.2023 07:07 9,2 C 5,0 C 11,1 C 12,8 C 97 % 200 cb 12 cb 1022,4 hPa 0,0 l/m 1,6 km/h (1 Bft) O-SO 112 0 min 0,000 mm 0,0 UV-I 7 W/m 8,7 C 9,2 C 3,2 km/h (1 Bft) 95,65 %
27.09.2023 07:06 9,2 C 5,0 C 11,1 C 12,8 C 96 % 200 cb 12 cb 1022,2 hPa 0,0 l/m 1,6 km/h (1 Bft) W 270 0 min 0,000 mm 0,0 UV-I 5 W/m 8,6 C 9,2 C 3,2 km/h (1 Bft) 95,65 %
27.09.2023 07:05 9,1 C 5,0 C 11,1 C 12,8 C 96 % 200 cb 12 cb 1022,2 hPa 0,0 l/m 3,2 km/h (1 Bft) N 360 0 min 0,000 mm 0,0 UV-I 5 W/m 8,5 C 9,1 C 4,8 km/h (1 Bft) 91,30 %
27.09.2023 07:04 8,8 C 5,0 C 11,1 C 12,8 C 96 % 200 cb 12 cb 1022,2 hPa 0,0 l/m 3,2 km/h (1 Bft) W-NW 292 0 min 0,000 mm 0,0 UV-I 5 W/m 8,2 C 8,8 C 4,8 km/h (1 Bft) 95,65 %
27.09.2023 07:03 9,1 C 5,0 C 11,1 C 12,8 C 96 % 200 cb 12 cb 1022,2 hPa 0,0 l/m 1,6 km/h (1 Bft) W-SW 247 0 min 0,000 mm 0,0 UV-I 5 W/m 8,5 C 9,1 C 4,8 km/h (1 Bft) 95,65 %
27.09.2023 07:02 9,1 C 5,0 C 11,1 C 12,8 C 96 % 200 cb 12 cb 1022,1 hPa 0,0 l/m 3,2 km/h (1 Bft) O 90 0 min 0,000 mm 0,0 UV-I 5 W/m 8,5 C 9,1 C 4,8 km/h (1 Bft) 95,65 %
27.09.2023 07:01 9,1 C 5,0 C 11,1 C 12,8 C 96 % 200 cb 12 cb 1022,1 hPa 0,0 l/m 6,4 km/h (2 Bft) N-NO 22 0 min 0,000 mm 0,0 UV-I 5 W/m 8,5 C 8,3 C 9,7 km/h (2 Bft) 95,65 %
27.09.2023 07:00 9,2 C 5,0 C 11,1 C 12,8 C 97 % 200 cb 12 cb 1022,1 hPa 0,0 l/m 6,4 km/h (2 Bft) N 360 0 min 0,000 mm 0,0 UV-I 5 W/m 8,7 C 8,4 C 6,4 km/h (2 Bft) 95,65 %
27.09.2023 06:59 9,2 C 5,0 C 11,1 C 12,8 C 97 % 200 cb 12 cb 1022,1 hPa 0,0 l/m 4,8 km/h (1 Bft) N-NW 337 0 min 0,000 mm 0,0 UV-I 5 W/m 8,7 C 8,9 C 6,4 km/h (2 Bft) 91,30 %
27.09.2023 06:58 9,1 C 5,0 C 11,1 C 12,8 C 97 % 200 cb 12 cb 1022,1 hPa 0,0 l/m 1,6 km/h (1 Bft) NW 315 0 min 0,000 mm 0,0 UV-I 5 W/m 8,6 C 9,1 C 3,2 km/h (1 Bft) 95,65 %
27.09.2023 06:57 8,8 C 5,0 C 11,1 C 12,8 C 96 % 200 cb 12 cb 1022,1 hPa 0,0 l/m 1,6 km/h (1 Bft) N 360 0 min 0,000 mm 0,0 UV-I 0 W/m 8,2 C 8,8 C 3,2 km/h (1 Bft) 95,65 %
27.09.2023 06:56 8,7 C 5,0 C 11,1 C 12,8 C 96 % 200 cb 12 cb 1022,1 hPa 0,0 l/m 3,2 km/h (1 Bft) N 360 0 min 0,000 mm 0,0 UV-I 0 W/m 8,1 C 8,7 C 4,8 km/h (1 Bft) 95,65 %
27.09.2023 06:55 8,7 C 5,0 C 11,1 C 12,8 C 96 % 200 cb 12 cb 1022,2 hPa 0,0 l/m 4,8 km/h (1 Bft) N-NO 22 0 min 0,000 mm 0,0 UV-I 0 W/m 8,1 C 8,3 C 4,8 km/h (1 Bft) 91,30 %
27.09.2023 06:54 8,8 C 5,0 C 11,1 C 12,8 C 96 % 200 cb 12 cb 1022,1 hPa 0,0 l/m 3,2 km/h (1 Bft) NO 45 0 min 0,000 mm 0,0 UV-I 0 W/m 8,2 C 8,8 C 4,8 km/h (1 Bft) 86,96 %
27.09.2023 06:53 8,8 C 5,0 C 11,1 C 12,8 C 96 % 200 cb 12 cb 1022,2 hPa 0,0 l/m 3,2 km/h (1 Bft) O-NO 67 0 min 0,000 mm 0,0 UV-I 0 W/m 8,2 C 8,8 C 4,8 km/h (1 Bft) 91,30 %
27.09.2023 06:52 8,8 C 5,0 C 11,1 C 12,8 C 96 % 200 cb 12 cb 1022,1 hPa 0,0 l/m 3,2 km/h (1 Bft) O 90 0 min 0,000 mm 0,0 UV-I 0 W/m 8,2 C 8,8 C 4,8 km/h (1 Bft) 95,65 %
27.09.2023 06:51 8,8 C 5,0 C 11,1 C 12,8 C 96 % 200 cb 12 cb 1022,1 hPa 0,0 l/m 1,6 km/h (1 Bft) S 180 0 min 0,000 mm 0,0 UV-I 0 W/m 8,2 C 8,8 C 3,2 km/h (1 Bft) 95,65 %
27.09.2023 06:50 8,8 C 5,0 C 11,1 C 12,8 C 96 % 200 cb 12 cb 1022,1 hPa 0,0 l/m 1,6 km/h (1 Bft) S-SO 157 0 min 0,000 mm 0,0 UV-I 0 W/m 8,2 C 8,8 C 3,2 km/h (1 Bft) 86,96 %
27.09.2023 06:49 8,8 C 5,0 C 11,1 C 12,8 C 96 % 200 cb 12 cb 1022,1 hPa 0,0 l/m 0,0 km/h (0 Bft) O-SO 112 0 min 0,000 mm 0,0 UV-I 0 W/m 8,2 C 8,8 C 1,6 km/h (1 Bft) 91,30 %
27.09.2023 06:48 8,7 C 5,0 C 11,1 C 12,8 C 96 % 200 cb 12 cb 1022,1 hPa 0,0 l/m 0,0 km/h (0 Bft) O-SO 112 0 min 0,000 mm 0,0 UV-I 0 W/m 8,1 C 8,7 C 3,2 km/h (1 Bft) 86,96 %
27.09.2023 06:47 8,8 C 5,0 C 11,1 C 12,8 C 96 % 200 cb 12 cb 1022,1 hPa 0,0 l/m 3,2 km/h (1 Bft) O-SO 112 0 min 0,000 mm 0,0 UV-I 0 W/m 8,2 C 8,8 C 4,8 km/h (1 Bft) 95,65 %
27.09.2023 06:46 8,8 C 5,0 C 11,1 C 12,8 C 96 % 200 cb 12 cb 1022,1 hPa 0,0 l/m 0,0 km/h (0 Bft) O-SO 112 0 min 0,000 mm 0,0 UV-I 0 W/m 8,2 C 8,8 C 3,2 km/h (1 Bft) 95,65 %
27.09.2023 06:45 8,8 C 5,0 C 11,1 C 12,8 C 96 % 200 cb 12 cb 1022,2 hPa 0,0 l/m 0,0 km/h (0 Bft) S 180 0 min 0,000 mm 0,0 UV-I 0 W/m 8,2 C 8,8 C 1,6 km/h (1 Bft) 91,30 %
27.09.2023 06:44 8,8 C 5,6 C 11,1 C 12,8 C 96 % 200 cb 12 cb 1022,0 hPa 0,0 l/m 1,6 km/h (1 Bft) W 270 0 min 0,000 mm 0,0 UV-I 0 W/m 8,2 C 8,8 C 3,2 km/h (1 Bft) 91,30 %
27.09.2023 06:43 8,8 C 5,6 C 11,1 C 13,3 C 96 % 200 cb 12 cb 1022,1 hPa 0,0 l/m 0,0 km/h (0 Bft) W-NW 292 0 min 0,000 mm 0,0 UV-I 0 W/m 8,2 C 8,8 C 1,6 km/h (1 Bft) 86,96 %
27.09.2023 06:42 8,8 C 5,6 C 11,1 C 12,8 C 96 % 200 cb 12 cb 1022,1 hPa 0,0 l/m 1,6 km/h (1 Bft) S 180 0 min 0,000 mm 0,0 UV-I 0 W/m 8,2 C 8,8 C 1,6 km/h (1 Bft) 91,30 %
27.09.2023 06:41 9,0 C 5,6 C 11,1 C 13,3 C 96 % 200 cb 12 cb 1022,0 hPa 0,0 l/m 1,6 km/h (1 Bft) S-SW 202 0 min 0,000 mm 0,0 UV-I 0 W/m 8,4 C 9,0 C 3,2 km/h (1 Bft) 86,96 %
27.09.2023 06:40 9,0 C 5,6 C 11,1 C 12,8 C 96 % 200 cb 12 cb 1022,0 hPa 0,0 l/m 1,6 km/h (1 Bft) SW 225 0 min 0,000 mm 0,0 UV-I 0 W/m 8,4 C 9,0 C 3,2 km/h (1 Bft) 95,65 %
27.09.2023 06:39 9,0 C 5,6 C 11,1 C 13,3 C 96 % 200 cb 12 cb 1022,0 hPa 0,0 l/m 0,0 km/h (0 Bft) NW 315 0 min 0,000 mm 0,0 UV-I 0 W/m 8,4 C 9,0 C 1,6 km/h (1 Bft) 95,65 %
27.09.2023 06:38 9,1 C 5,6 C 11,1 C 13,3 C 96 % 200 cb 12 cb 1022,3 hPa 0,0 l/m 0,0 km/h (0 Bft) O-NO 67 0 min 0,000 mm 0,0 UV-I 0 W/m 8,5 C 9,1 C 1,6 km/h (1 Bft) 95,65 %
27.09.2023 06:37 9,2 C 5,6 C 11,1 C 13,3 C 96 % 200 cb 12 cb 1022,0 hPa 0,0 l/m 1,6 km/h (1 Bft) N-NO 22 0 min 0,000 mm 0,0 UV-I 0 W/m 8,6 C 9,2 C 3,2 km/h (1 Bft) 86,96 %
27.09.2023 06:36 9,3 C 5,6 C 11,1 C 13,3 C 96 % 200 cb 12 cb 1022,1 hPa 0,0 l/m 1,6 km/h (1 Bft) NW 315 0 min 0,000 mm 0,0 UV-I 0 W/m 8,7 C 9,3 C 3,2 km/h (1 Bft) 91,30 %
27.09.2023 06:35 9,3 C 5,6 C 11,1 C 13,3 C 96 % 200 cb 12 cb 1022,0 hPa 0,0 l/m 1,6 km/h (1 Bft) W 270 0 min 0,000 mm 0,0 UV-I 0 W/m 8,7 C 9,3 C 3,2 km/h (1 Bft) 95,65 %
27.09.2023 06:34 9,2 C 5,6 C 11,1 C 13,3 C 96 % 200 cb 12 cb 1022,0 hPa 0,0 l/m 3,2 km/h (1 Bft) O-NO 67 0 min 0,000 mm 0,0 UV-I 0 W/m 8,6 C 9,2 C 4,8 km/h (1 Bft) 95,65 %
27.09.2023 06:33 8,9 C 5,6 C 11,1 C 13,3 C 96 % 200 cb 12 cb 1022,0 hPa 0,0 l/m 1,6 km/h (1 Bft) NO 45 0 min 0,000 mm 0,0 UV-I 0 W/m 8,3 C 8,9 C 3,2 km/h (1 Bft) 95,65 %
27.09.2023 06:32 8,8 C 5,6 C 11,1 C 13,3 C 96 % 200 cb 12 cb 1022,0 hPa 0,0 l/m 1,6 km/h (1 Bft) W-SW 247 0 min 0,000 mm 0,0 UV-I 0 W/m 8,2 C 8,8 C 3,2 km/h (1 Bft) 91,30 %
27.09.2023 06:31 8,8 C 5,6 C 11,1 C 13,3 C 96 % 200 cb 12 cb 1022,0 hPa 0,0 l/m 3,2 km/h (1 Bft) N 360 0 min 0,000 mm 0,0 UV-I 0 W/m 8,2 C 8,8 C 4,8 km/h (1 Bft) 95,65 %
27.09.2023 06:30 8,9 C 5,6 C 11,1 C 13,3 C 96 % 200 cb 12 cb 1022,0 hPa 0,0 l/m 4,8 km/h (1 Bft) W-NW 292 0 min 0,000 mm 0,0 UV-I 0 W/m 8,3 C 8,6 C 6,4 km/h (2 Bft) 95,65 %
27.09.2023 06:29 9,2 C 5,6 C 11,1 C 13,3 C 96 % 200 cb 12 cb 1021,9 hPa 0,0 l/m 1,6 km/h (1 Bft) O-SO 112 0 min 0,000 mm 0,0 UV-I 0 W/m 8,6 C 9,2 C 4,8 km/h (1 Bft) 95,65 %
27.09.2023 06:28 9,1 C 5,6 C 11,1 C 13,3 C 96 % 200 cb 12 cb 1021,9 hPa 0,0 l/m 3,2 km/h (1 Bft) O 90 0 min 0,000 mm 0,0 UV-I 0 W/m 8,5 C 9,1 C 4,8 km/h (1 Bft) 91,30 %
27.09.2023 06:27 9,1 C 5,6 C 11,1 C 13,3 C 96 % 200 cb 12 cb 1022,0 hPa 0,0 l/m 3,2 km/h (1 Bft) O 90 0 min 0,000 mm 0,0 UV-I 0 W/m 8,5 C 9,1 C 4,8 km/h (1 Bft) 91,30 %
27.09.2023 06:26 9,1 C 5,6 C 11,1 C 13,3 C 96 % 200 cb 12 cb 1022,0 hPa 0,0 l/m 3,2 km/h (1 Bft) N-NW 337 0 min 0,000 mm 0,0 UV-I 0 W/m 8,5 C 9,1 C 4,8 km/h (1 Bft) 91,30 %
27.09.2023 06:25 9,2 C 5,6 C 11,1 C 13,3 C 96 % 200 cb 12 cb 1022,0 hPa 0,0 l/m 1,6 km/h (1 Bft) W 270 0 min 0,000 mm 0,0 UV-I 0 W/m 8,6 C 9,2 C 3,2 km/h (1 Bft) 95,65 %
27.09.2023 06:24 9,3 C 5,6 C 11,1 C 13,3 C 96 % 200 cb 12 cb 1021,9 hPa 0,0 l/m 1,6 km/h (1 Bft) S 180 0 min 0,000 mm 0,0 UV-I 0 W/m 8,7 C 9,3 C 3,2 km/h (1 Bft) 95,65 %
27.09.2023 06:23 9,4 C 5,6 C 11,1 C 13,3 C 96 % 200 cb 12 cb 1021,9 hPa 0,0 l/m 3,2 km/h (1 Bft) S-SW 202 0 min 0,000 mm 0,0 UV-I 0 W/m 8,8 C 9,4 C 6,4 km/h (2 Bft) 91,30 %
27.09.2023 06:22 9,4 C 5,6 C 11,1 C 13,3 C 96 % 200 cb 12 cb 1021,9 hPa 0,0 l/m 3,2 km/h (1 Bft) S 180 0 min 0,000 mm 0,0 UV-I 0 W/m 8,8 C 9,4 C 4,8 km/h (1 Bft) 95,65 %
27.09.2023 06:21 9,6 C 5,6 C 11,1 C 13,3 C 96 % 200 cb 12 cb 1021,9 hPa 0,0 l/m 3,2 km/h (1 Bft) SO 135 0 min 0,000 mm 0,0 UV-I 0 W/m 9,0 C 9,6 C 4,8 km/h (1 Bft) 86,96 %
27.09.2023 06:20 9,3 C 5,6 C 11,1 C 13,3 C 96 % 200 cb 12 cb 1022,0 hPa 0,0 l/m 6,4 km/h (2 Bft) O 90 0 min 0,000 mm 0,0 UV-I 0 W/m 8,7 C 8,6 C 8,0 km/h (2 Bft) 95,65 %
27.09.2023 06:19 9,1 C 5,6 C 11,1 C 13,3 C 96 % 200 cb 12 cb 1022,0 hPa 0,0 l/m 3,2 km/h (1 Bft) O 90 0 min 0,000 mm 0,0 UV-I 0 W/m 8,5 C 9,1 C 6,4 km/h (2 Bft) 95,65 %
27.09.2023 06:18 9,0 C 5,6 C 11,1 C 13,3 C 96 % 200 cb 12 cb 1022,0 hPa 0,0 l/m 3,2 km/h (1 Bft) W 270 0 min 0,000 mm 0,0 UV-I 0 W/m 8,4 C 9,0 C 4,8 km/h (1 Bft) 91,30 %
27.09.2023 06:17 9,3 C 5,6 C 11,1 C 13,3 C 96 % 200 cb 12 cb 1022,0 hPa 0,0 l/m 3,2 km/h (1 Bft) O 90 0 min 0,000 mm 0,0 UV-I 0 W/m 8,7 C 9,3 C 4,8 km/h (1 Bft) 95,65 %
27.09.2023 06:16 9,3 C 5,6 C 11,1 C 13,3 C 96 % 200 cb 12 cb 1022,1 hPa 0,0 l/m 3,2 km/h (1 Bft) O-SO 112 0 min 0,000 mm 0,0 UV-I 0 W/m 8,7 C 9,3 C 6,4 km/h (2 Bft) 95,65 %
27.09.2023 06:15 9,3 C 5,6 C 11,1 C 13,3 C 96 % 200 cb 12 cb 1022,0 hPa 0,0 l/m 4,8 km/h (1 Bft) O-NO 67 0 min 0,000 mm 0,0 UV-I 0 W/m 8,7 C 9,0 C 4,8 km/h (1 Bft) 91,30 %
27.09.2023 06:14 9,2 C 5,6 C 11,1 C 13,3 C 96 % 200 cb 12 cb 1022,0 hPa 0,0 l/m 3,2 km/h (1 Bft) N-NO 22 0 min 0,000 mm 0,0 UV-I 0 W/m 8,6 C 9,2 C 4,8 km/h (1 Bft) 95,65 %
27.09.2023 06:13 9,1 C 5,6 C 11,1 C 13,3 C 95 % 200 cb 12 cb 1022,0 hPa 0,0 l/m 3,2 km/h (1 Bft) W 270 0 min 0,000 mm 0,0 UV-I 0 W/m 8,3 C 9,1 C 4,8 km/h (1 Bft) 91,30 %
27.09.2023 06:12 9,3 C 5,6 C 11,1 C 13,3 C 96 % 200 cb 12 cb 1022,0 hPa 0,0 l/m 1,6 km/h (1 Bft) W-NW 292 0 min 0,000 mm 0,0 UV-I 0 W/m 8,7 C 9,3 C 3,2 km/h (1 Bft) 95,65 %
27.09.2023 06:11 9,4 C 5,6 C 11,1 C 13,3 C 96 % 200 cb 12 cb 1021,9 hPa 0,0 l/m 1,6 km/h (1 Bft) O-SO 112 0 min 0,000 mm 0,0 UV-I 0 W/m 8,8 C 9,4 C 3,2 km/h (1 Bft) 95,65 %
27.09.2023 06:10 9,4 C 5,6 C 11,1 C 13,3 C 96 % 200 cb 12 cb 1022,0 hPa 0,0 l/m 3,2 km/h (1 Bft) O 90 0 min 0,000 mm 0,0 UV-I 0 W/m 8,8 C 9,4 C 4,8 km/h (1 Bft) 91,30 %
27.09.2023 06:09 9,4 C 5,6 C 11,1 C 13,3 C 96 % 200 cb 12 cb 1022,0 hPa 0,0 l/m 3,2 km/h (1 Bft) O-NO 67 0 min 0,000 mm 0,0 UV-I 0 W/m 8,8 C 9,4 C 4,8 km/h (1 Bft) 91,30 %
27.09.2023 06:08 9,5 C 5,6 C 11,1 C 13,3 C 96 % 200 cb 12 cb 1021,9 hPa 0,0 l/m 3,2 km/h (1 Bft) NO 45 0 min 0,000 mm 0,0 UV-I 0 W/m 8,9 C 9,5 C 4,8 km/h (1 Bft) 91,30 %
27.09.2023 06:07 9,6 C 5,6 C 11,1 C 13,3 C 96 % 200 cb 12 cb 1021,9 hPa 0,0 l/m 3,2 km/h (1 Bft) W-NW 292 0 min 0,000 mm 0,0 UV-I 0 W/m 9,0 C 9,6 C 4,8 km/h (1 Bft) 95,65 %
27.09.2023 06:06 9,7 C 5,6 C 11,1 C 13,3 C 96 % 200 cb 12 cb 1021,9 hPa 0,0 l/m 1,6 km/h (1 Bft) W 270 0 min 0,000 mm 0,0 UV-I 0 W/m 9,1 C 9,7 C 4,8 km/h (1 Bft) 91,30 %
27.09.2023 06:05 9,7 C 5,6 C 11,1 C 13,3 C 96 % 200 cb 12 cb 1021,8 hPa 0,0 l/m 3,2 km/h (1 Bft) NO 45 0 min 0,000 mm 0,0 UV-I 0 W/m 9,1 C 9,7 C 4,8 km/h (1 Bft) 95,65 %
27.09.2023 06:04 9,9 C 5,6 C 11,1 C 13,3 C 96 % 200 cb 12 cb 1022,0 hPa 0,0 l/m 1,6 km/h (1 Bft) O-NO 67 0 min 0,000 mm 0,0 UV-I 0 W/m 9,3 C 9,9 C 3,2 km/h (1 Bft) 82,61 %
27.09.2023 06:03 9,9 C 5,6 C 11,1 C 13,3 C 96 % 200 cb 12 cb 1021,8 hPa 0,0 l/m 1,6 km/h (1 Bft) N-NO 22 0 min 0,000 mm 0,0 UV-I 0 W/m 9,3 C 9,9 C 3,2 km/h (1 Bft) 95,65 %
27.09.2023 06:02 9,9 C 5,6 C 11,1 C 13,3 C 96 % 200 cb 12 cb 1021,8 hPa 0,0 l/m 3,2 km/h (1 Bft) O-NO 67 0 min 0,000 mm 0,0 UV-I 0 W/m 9,3 C 9,9 C 4,8 km/h (1 Bft) 91,30 %
27.09.2023 06:01 9,8 C 5,6 C 11,1 C 13,3 C 96 % 200 cb 12 cb 1021,9 hPa 0,0 l/m 1,6 km/h (1 Bft) W-NW 292 0 min 0,000 mm 0,0 UV-I 0 W/m 9,2 C 9,8 C 3,2 km/h (1 Bft) 95,65 %
27.09.2023 06:00 9,8 C 5,6 C 11,1 C 13,3 C 96 % 200 cb 12 cb 1021,8 hPa 0,0 l/m 1,6 km/h (1 Bft) W 270 0 min 0,000 mm 0,0 UV-I 0 W/m 9,2 C 9,8 C 3,2 km/h (1 Bft) 91,30 %
27.09.2023 05:59 9,7 C 5,6 C 11,1 C 13,3 C 96 % 200 cb 12 cb 1021,8 hPa 0,0 l/m 3,2 km/h (1 Bft) SW 225 0 min 0,000 mm 0,0 UV-I 0 W/m 9,1 C 9,7 C 3,2 km/h (1 Bft) 91,30 %
27.09.2023 05:58 9,7 C 5,6 C 11,1 C 13,3 C 96 % 200 cb 12 cb 1021,8 hPa 0,0 l/m 1,6 km/h (1 Bft) N 360 0 min 0,000 mm 0,0 UV-I 0 W/m 9,1 C 9,7 C 3,2 km/h (1 Bft) 91,30 %
27.09.2023 05:57 9,7 C 5,6 C 11,1 C 13,3 C 96 % 200 cb 12 cb 1022,0 hPa 0,0 l/m 0,0 km/h (0 Bft) W 270 0 min 0,000 mm 0,0 UV-I 0 W/m 9,1 C 9,7 C 1,6 km/h (1 Bft) 91,30 %
27.09.2023 05:56 9,7 C 5,6 C 11,1 C 13,3 C 96 % 200 cb 12 cb 1021,9 hPa 0,0 l/m 1,6 km/h (1 Bft) O 90 0 min 0,000 mm 0,0 UV-I 0 W/m 9,1 C 9,7 C 4,8 km/h (1 Bft) 86,96 %
27.09.2023 05:55 9,6 C 5,6 C 11,1 C 13,3 C 96 % 200 cb 12 cb 1021,8 hPa 0,0 l/m 3,2 km/h (1 Bft) O 90 0 min 0,000 mm 0,0 UV-I 0 W/m 9,0 C 9,6 C 4,8 km/h (1 Bft) 95,65 %
27.09.2023 05:54 9,7 C 6,1 C 11,1 C 13,3 C 96 % 200 cb 12 cb 1021,9 hPa 0,0 l/m 1,6 km/h (1 Bft) N 360 0 min 0,000 mm 0,0 UV-I 0 W/m 9,1 C 9,7 C 3,2 km/h (1 Bft) 91,30 %
27.09.2023 05:53 9,6 C 6,1 C 11,1 C 13,3 C 96 % 200 cb 12 cb 1021,8 hPa 0,0 l/m 1,6 km/h (1 Bft) N 360 0 min 0,000 mm 0,0 UV-I 0 W/m 9,0 C 9,6 C 3,2 km/h (1 Bft) 86,96 %
27.09.2023 05:52 9,4 C 6,1 C 11,1 C 13,3 C 96 % 200 cb 12 cb 1022,0 hPa 0,0 l/m 1,6 km/h (1 Bft) S-SW 202 0 min 0,000 mm 0,0 UV-I 0 W/m 8,8 C 9,4 C 3,2 km/h (1 Bft) 95,65 %
27.09.2023 05:51 9,4 C 6,1 C 11,1 C 13,3 C 95 % 200 cb 12 cb 1021,8 hPa 0,0 l/m 1,6 km/h (1 Bft) S-SW 202 0 min 0,000 mm 0,0 UV-I 0 W/m 8,6 C 9,4 C 4,8 km/h (1 Bft) 91,30 %
27.09.2023 05:50 9,5 C 6,1 C 11,1 C 13,3 C 95 % 200 cb 12 cb 1021,8 hPa 0,0 l/m 1,6 km/h (1 Bft) S-SW 202 0 min 0,000 mm 0,0 UV-I 0 W/m 8,7 C 9,5 C 3,2 km/h (1 Bft) 91,30 %
27.09.2023 05:49 9,7 C 6,1 C 11,1 C 13,3 C 96 % 200 cb 12 cb 1021,9 hPa 0,0 l/m 3,2 km/h (1 Bft) S 180 0 min 0,000 mm 0,0 UV-I 0 W/m 9,1 C 9,7 C 4,8 km/h (1 Bft) 91,30 %
27.09.2023 05:48 9,9 C 6,1 C 11,1 C 13,3 C 96 % 200 cb 12 cb 1021,9 hPa 0,0 l/m 3,2 km/h (1 Bft) S-SO 157 0 min 0,000 mm 0,0 UV-I 0 W/m 9,3 C 9,9 C 3,2 km/h (1 Bft) 86,96 %
27.09.2023 05:47 9,8 C 6,1 C 11,1 C 13,3 C 96 % 200 cb 12 cb 1021,9 hPa 0,0 l/m 0,0 km/h (0 Bft) N-NO 22 0 min 0,000 mm 0,0 UV-I 0 W/m 9,2 C 9,8 C 1,6 km/h (1 Bft) 82,61 %
27.09.2023 05:46 9,7 C 6,1 C 11,1 C 13,3 C 96 % 200 cb 12 cb 1021,9 hPa 0,0 l/m 0,0 km/h (0 Bft) N-NW 337 0 min 0,000 mm 0,0 UV-I 0 W/m 9,1 C 9,7 C 1,6 km/h (1 Bft) 91,30 %
27.09.2023 05:45 9,6 C 6,1 C 11,1 C 13,3 C 96 % 200 cb 12 cb 1021,9 hPa 0,0 l/m 1,6 km/h (1 Bft) SO 135 0 min 0,000 mm 0,0 UV-I 0 W/m 9,0 C 9,6 C 3,2 km/h (1 Bft) 86,96 %
27.09.2023 05:44 9,7 C 6,1 C 11,1 C 13,3 C 96 % 200 cb 12 cb 1021,9 hPa 0,0 l/m 3,2 km/h (1 Bft) SO 135 0 min 0,000 mm 0,0 UV-I 0 W/m 9,1 C 9,7 C 4,8 km/h (1 Bft) 95,65 %
27.09.2023 05:43 9,6 C 6,1 C 11,1 C 13,3 C 96 % 200 cb 12 cb 1021,9 hPa 0,0 l/m 3,2 km/h (1 Bft) N 360 0 min 0,000 mm 0,0 UV-I 0 W/m 9,0 C 9,6 C 4,8 km/h (1 Bft) 86,96 %
27.09.2023 05:42 9,5 C 6,1 C 11,1 C 13,3 C 96 % 200 cb 12 cb 1021,8 hPa 0,0 l/m 3,2 km/h (1 Bft) N-NW 337 0 min 0,000 mm 0,0 UV-I 0 W/m 8,9 C 9,5 C 4,8 km/h (1 Bft) 82,61 %
27.09.2023 05:41 9,5 C 6,1 C 11,1 C 13,3 C 95 % 200 cb 12 cb 1022,0 hPa 0,0 l/m 3,2 km/h (1 Bft) N-NW 337 0 min 0,000 mm 0,0 UV-I 0 W/m 8,7 C 9,5 C 3,2 km/h (1 Bft) 95,65 %
27.09.2023 05:40 9,4 C 6,1 C 11,1 C 13,3 C 95 % 200 cb 12 cb 1021,9 hPa 0,0 l/m 3,2 km/h (1 Bft) W 270 0 min 0,000 mm 0,0 UV-I 0 W/m 8,6 C 9,4 C 4,8 km/h (1 Bft) 95,65 %
27.09.2023 05:39 9,6 C 6,1 C 11,7 C 13,3 C 95 % 200 cb 12 cb 1021,9 hPa 0,0 l/m 3,2 km/h (1 Bft) O-SO 112 0 min 0,000 mm 0,0 UV-I 0 W/m 8,8 C 9,6 C 3,2 km/h (1 Bft) 95,65 %
27.09.2023 05:38 9,7 C 6,1 C 11,7 C 13,3 C 96 % 200 cb 12 cb 1022,0 hPa 0,0 l/m 1,6 km/h (1 Bft) O-SO 112 0 min 0,000 mm 0,0 UV-I 0 W/m 9,1 C 9,7 C 4,8 km/h (1 Bft) 95,65 %
27.09.2023 05:37 9,7 C 6,1 C 11,7 C 13,3 C 96 % 200 cb 12 cb 1021,9 hPa 0,0 l/m 3,2 km/h (1 Bft) O 90 0 min 0,000 mm 0,0 UV-I 0 W/m 9,1 C 9,7 C 4,8 km/h (1 Bft) 91,30 %
27.09.2023 05:36 9,7 C 6,1 C 11,7 C 13,3 C 96 % 200 cb 12 cb 1021,9 hPa 0,0 l/m 1,6 km/h (1 Bft) O 90 0 min 0,000 mm 0,0 UV-I 0 W/m 9,1 C 9,7 C 4,8 km/h (1 Bft) 95,65 %
27.09.2023 05:35 9,8 C 6,1 C 11,7 C 13,3 C 96 % 200 cb 12 cb 1022,0 hPa 0,0 l/m 1,6 km/h (1 Bft) W 270 0 min 0,000 mm 0,0 UV-I 0 W/m 9,2 C 9,8 C 1,6 km/h (1 Bft) 95,65 %
27.09.2023 05:34 9,8 C 6,1 C 11,7 C 13,3 C 96 % 200 cb 12 cb 1021,9 hPa 0,0 l/m 1,6 km/h (1 Bft) W-SW 247 0 min 0,000 mm 0,0 UV-I 0 W/m 9,2 C 9,8 C 3,2 km/h (1 Bft) 95,65 %
27.09.2023 05:33 9,7 C 6,1 C 11,7 C 13,3 C 96 % 200 cb 11 cb 1021,9 hPa 0,0 l/m 3,2 km/h (1 Bft) O-NO 67 0 min 0,000 mm 0,0 UV-I 0 W/m 9,1 C 9,7 C 4,8 km/h (1 Bft) 95,65 %
27.09.2023 05:32 9,7 C 6,1 C 11,7 C 13,3 C 96 % 200 cb 11 cb 1021,9 hPa 0,0 l/m 1,6 km/h (1 Bft) O-NO 67 0 min 0,000 mm 0,0 UV-I 0 W/m 9,1 C 9,7 C 3,2 km/h (1 Bft) 95,65 %
27.09.2023 05:31 9,6 C 6,1 C 11,7 C 13,3 C 95 % 200 cb 11 cb 1022,0 hPa 0,0 l/m 1,6 km/h (1 Bft) O-SO 112 0 min 0,000 mm 0,0 UV-I 0 W/m 8,8 C 9,6 C 3,2 km/h (1 Bft) 91,30 %
27.09.2023 05:30 9,7 C 6,1 C 11,7 C 13,3 C 95 % 200 cb 11 cb 1021,9 hPa 0,0 l/m 4,8 km/h (1 Bft) N 360 0 min 0,000 mm 0,0 UV-I 0 W/m 8,9 C 9,5 C 8,0 km/h (2 Bft) 95,65 %
27.09.2023 05:29 9,8 C 6,1 C 11,7 C 13,3 C 96 % 200 cb 12 cb 1021,9 hPa 0,0 l/m 4,8 km/h (1 Bft) NW 315 0 min 0,000 mm 0,0 UV-I 0 W/m 9,2 C 9,6 C 8,0 km/h (2 Bft) 95,65 %
27.09.2023 05:28 9,8 C 6,1 C 11,7 C 13,3 C 96 % 200 cb 11 cb 1022,0 hPa 0,0 l/m 4,8 km/h (1 Bft) NW 315 0 min 0,000 mm 0,0 UV-I 0 W/m 9,2 C 9,6 C 6,4 km/h (2 Bft) 91,30 %
27.09.2023 05:27 9,7 C 6,1 C 11,7 C 13,3 C 96 % 200 cb 11 cb 1021,9 hPa 0,0 l/m 1,6 km/h (1 Bft) W-SW 247 0 min 0,000 mm 0,0 UV-I 0 W/m 9,1 C 9,7 C 3,2 km/h (1 Bft) 91,30 %
27.09.2023 05:26 9,7 C 6,1 C 11,7 C 13,3 C 95 % 200 cb 11 cb 1021,9 hPa 0,0 l/m 1,6 km/h (1 Bft) S 180 0 min 0,000 mm 0,0 UV-I 0 W/m 8,9 C 9,7 C 3,2 km/h (1 Bft) 91,30 %
27.09.2023 05:25 9,6 C 6,1 C 11,7 C 13,3 C 95 % 200 cb 11 cb 1021,9 hPa 0,0 l/m 4,8 km/h (1 Bft) O 90 0 min 0,000 mm 0,0 UV-I 0 W/m 8,8 C 9,4 C 6,4 km/h (2 Bft) 95,65 %
27.09.2023 05:24 9,6 C 6,1 C 11,7 C 13,3 C 95 % 200 cb 11 cb 1021,9 hPa 0,0 l/m 3,2 km/h (1 Bft) O 90 0 min 0,000 mm 0,0 UV-I 0 W/m 8,8 C 9,6 C 4,8 km/h (1 Bft) 95,65 %
27.09.2023 05:23 9,8 C 6,1 C 11,7 C 13,3 C 95 % 200 cb 11 cb 1021,9 hPa 0,0 l/m 1,6 km/h (1 Bft) O 90 0 min 0,000 mm 0,0 UV-I 0 W/m 9,0 C 9,8 C 1,6 km/h (1 Bft) 91,30 %
27.09.2023 05:22 10,1 C 6,7 C 11,7 C 13,3 C 96 % 200 cb 11 cb 1022,0 hPa 0,0 l/m 0,0 km/h (0 Bft) N 360 0 min 0,000 mm 0,0 UV-I 0 W/m 9,5 C 10,1 C 1,6 km/h (1 Bft) 95,65 %
27.09.2023 05:21 9,9 C 6,7 C 11,7 C 13,3 C 95 % 200 cb 11 cb 1021,9 hPa 0,0 l/m 0,0 km/h (0 Bft) NW 315 0 min 0,000 mm 0,0 UV-I 0 W/m 9,1 C 9,9 C 1,6 km/h (1 Bft) 95,65 %
27.09.2023 05:20 9,9 C 6,7 C 11,7 C 13,3 C 95 % 200 cb 11 cb 1021,9 hPa 0,0 l/m 1,6 km/h (1 Bft) W-SW 247 0 min 0,000 mm 0,0 UV-I 0 W/m 9,1 C 9,9 C 3,2 km/h (1 Bft) 91,30 %
27.09.2023 05:19 9,9 C 6,7 C 11,7 C 13,3 C 96 % 200 cb 11 cb 1021,8 hPa 0,0 l/m 3,2 km/h (1 Bft) S-SW 202 0 min 0,000 mm 0,0 UV-I 0 W/m 9,3 C 9,9 C 3,2 km/h (1 Bft) 95,65 %
27.09.2023 05:18 9,9 C 6,7 C 11,7 C 13,3 C 95 % 200 cb 11 cb 1021,8 hPa 0,0 l/m 3,2 km/h (1 Bft) O 90 0 min 0,000 mm 0,0 UV-I 0 W/m 9,1 C 9,9 C 3,2 km/h (1 Bft) 95,65 %
27.09.2023 05:17 10,0 C 6,7 C 11,7 C 13,3 C 95 % 200 cb 11 cb 1021,8 hPa 0,0 l/m 3,2 km/h (1 Bft) O 90 0 min 0,000 mm 0,0 UV-I 0 W/m 9,2 C 10,0 C 4,8 km/h (1 Bft) 95,65 %
27.09.2023 05:16 10,1 C 6,7 C 11,7 C 13,3 C 96 % 200 cb 11 cb 1021,9 hPa 0,0 l/m 3,2 km/h (1 Bft) N-NO 22 0 min 0,000 mm 0,0 UV-I 0 W/m 9,5 C 10,1 C 4,8 km/h (1 Bft) 95,65 %
27.09.2023 05:15 10,2 C 6,7 C 11,7 C 13,3 C 96 % 200 cb 11 cb 1021,9 hPa 0,0 l/m 1,6 km/h (1 Bft) N 360 0 min 0,000 mm 0,0 UV-I 0 W/m 9,6 C 10,2 C 3,2 km/h (1 Bft) 86,96 %
27.09.2023 05:14 10,1 C 6,7 C 11,7 C 13,3 C 96 % 200 cb 11 cb 1021,9 hPa 0,0 l/m 1,6 km/h (1 Bft) NW 315 0 min 0,000 mm 0,0 UV-I 0 W/m 9,5 C 10,1 C 4,8 km/h (1 Bft) 95,65 %
27.09.2023 05:13 10,1 C 6,7 C 11,7 C 13,3 C 96 % 200 cb 11 cb 1021,9 hPa 0,0 l/m 4,8 km/h (1 Bft) N-NW 337 0 min 0,000 mm 0,0 UV-I 0 W/m 9,5 C 10,1 C 4,8 km/h (1 Bft) 95,65 %
27.09.2023 05:12 10,0 C 6,7 C 11,7 C 13,3 C 95 % 200 cb 11 cb 1021,9 hPa 0,0 l/m 3,2 km/h (1 Bft) NW 315 0 min 0,000 mm 0,0 UV-I 0 W/m 9,2 C 10,0 C 6,4 km/h (2 Bft) 95,65 %
27.09.2023 05:11 10,0 C 6,7 C 11,7 C 13,3 C 95 % 200 cb 11 cb 1021,9 hPa 0,0 l/m 1,6 km/h (1 Bft) W 270 0 min 0,000 mm 0,0 UV-I 0 W/m 9,2 C 10,0 C 3,2 km/h (1 Bft) 95,65 %
27.09.2023 05:10 10,0 C 7,2 C 11,7 C 13,3 C 95 % 200 cb 11 cb 1021,9 hPa 0,0 l/m 1,6 km/h (1 Bft) S 180 0 min 0,000 mm 0,0 UV-I 0 W/m 9,2 C 10,0 C 6,4 km/h (2 Bft) 95,65 %
27.09.2023 05:09 10,1 C 7,2 C 11,7 C 13,3 C 95 % 200 cb 11 cb 1021,9 hPa 0,0 l/m 4,8 km/h (1 Bft) S-SW 202 0 min 0,000 mm 0,0 UV-I 0 W/m 9,3 C 10,1 C 6,4 km/h (2 Bft) 86,96 %
27.09.2023 05:08 10,2 C 6,7 C 11,7 C 13,3 C 95 % 200 cb 11 cb 1021,9 hPa 0,0 l/m 3,2 km/h (1 Bft) SW 225 0 min 0,000 mm 0,0 UV-I 0 W/m 9,4 C 10,2 C 6,4 km/h (2 Bft) 91,30 %
27.09.2023 05:07 10,3 C 6,7 C 11,7 C 13,3 C 95 % 200 cb 11 cb 1021,8 hPa 0,0 l/m 8,0 km/h (2 Bft) O 90 0 min 0,000 mm 0,0 UV-I 0 W/m 9,5 C 10,3 C 8,0 km/h (2 Bft) 95,65 %
27.09.2023 05:06 10,3 C 6,7 C 11,7 C 13,3 C 95 % 200 cb 11 cb 1021,9 hPa 0,0 l/m 6,4 km/h (2 Bft) NO 45 0 min 0,000 mm 0,0 UV-I 0 W/m 9,5 C 10,3 C 9,7 km/h (2 Bft) 95,65 %
27.09.2023 05:05 10,3 C 6,7 C 11,7 C 13,3 C 95 % 200 cb 11 cb 1022,0 hPa 0,0 l/m 3,2 km/h (1 Bft) N 360 0 min 0,000 mm 0,0 UV-I 0 W/m 9,5 C 10,3 C 4,8 km/h (1 Bft) 95,65 %
27.09.2023 05:04 10,3 C 6,7 C 11,7 C 13,3 C 95 % 200 cb 11 cb 1021,9 hPa 0,0 l/m 4,8 km/h (1 Bft) N-NW 337 0 min 0,000 mm 0,0 UV-I 0 W/m 9,5 C 10,3 C 8,0 km/h (2 Bft) 86,96 %
27.09.2023 05:03 10,3 C 6,7 C 11,7 C 13,3 C 95 % 200 cb 11 cb 1021,9 hPa 0,0 l/m 4,8 km/h (1 Bft) N 360 0 min 0,000 mm 0,0 UV-I 0 W/m 9,5 C 10,3 C 9,7 km/h (2 Bft) 95,65 %
27.09.2023 05:02 10,2 C 6,7 C 11,7 C 13,3 C 95 % 200 cb 11 cb 1021,9 hPa 0,0 l/m 1,6 km/h (1 Bft) SW 225 0 min 0,000 mm 0,0 UV-I 0 W/m 9,4 C 10,2 C 3,2 km/h (1 Bft) 91,30 %
27.09.2023 05:01 10,2 C 6,7 C 11,7 C 13,3 C 95 % 200 cb 11 cb 1021,8 hPa 0,0 l/m 3,2 km/h (1 Bft) NO 45 0 min 0,000 mm 0,0 UV-I 0 W/m 9,4 C 10,2 C 4,8 km/h (1 Bft) 86,96 %
27.09.2023 05:00 10,1 C 6,7 C 11,7 C 13,3 C 95 % 200 cb 11 cb 1021,8 hPa 0,0 l/m 1,6 km/h (1 Bft) O-SO 112 0 min 0,000 mm 0,0 UV-I 0 W/m 9,3 C 10,1 C 3,2 km/h (1 Bft) 91,30 %
27.09.2023 04:59 10,1 C 6,7 C 11,7 C 13,3 C 95 % 200 cb 11 cb 1021,8 hPa 0,0 l/m 3,2 km/h (1 Bft) O 90 0 min 0,000 mm 0,0 UV-I 0 W/m 9,3 C 10,1 C 4,8 km/h (1 Bft) 95,65 %
27.09.2023 04:58 10,2 C 6,7 C 11,7 C 13,3 C 95 % 200 cb 11 cb 1021,9 hPa 0,0 l/m 3,2 km/h (1 Bft) N 360 0 min 0,000 mm 0,0 UV-I 0 W/m 9,4 C 10,2 C 4,8 km/h (1 Bft) 91,30 %
27.09.2023 04:57 10,3 C 6,7 C 11,7 C 13,3 C 95 % 200 cb 11 cb 1021,9 hPa 0,0 l/m 3,2 km/h (1 Bft) W-SW 247 0 min 0,000 mm 0,0 UV-I 0 W/m 9,5 C 10,3 C 4,8 km/h (1 Bft) 95,65 %
27.09.2023 04:56 10,3 C 6,7 C 11,7 C 13,3 C 95 % 200 cb 11 cb 1021,8 hPa 0,0 l/m 4,8 km/h (1 Bft) O 90 0 min 0,000 mm 0,0 UV-I 0 W/m 9,5 C 10,3 C 8,0 km/h (2 Bft) 91,30 %
27.09.2023 04:55 10,3 C 6,7 C 11,7 C 13,3 C 95 % 200 cb 11 cb 1021,8 hPa 0,0 l/m 6,4 km/h (2 Bft) O 90 0 min 0,000 mm 0,0 UV-I 0 W/m 9,5 C 10,3 C 8,0 km/h (2 Bft) 95,65 %
27.09.2023 04:54 10,3 C 6,7 C 11,7 C 13,3 C 95 % 200 cb 11 cb 1021,9 hPa 0,0 l/m 1,6 km/h (1 Bft) O-SO 112 0 min 0,000 mm 0,0 UV-I 0 W/m 9,5 C 10,3 C 4,8 km/h (1 Bft) 91,30 %
27.09.2023 04:53 10,4 C 6,7 C 11,7 C 13,3 C 95 % 200 cb 11 cb 1021,8 hPa 0,0 l/m 1,6 km/h (1 Bft) SW 225 0 min 0,000 mm 0,0 UV-I 0 W/m 9,6 C 10,4 C 4,8 km/h (1 Bft) 91,30 %
27.09.2023 04:52 10,4 C 6,7 C 11,7 C 13,3 C 95 % 200 cb 11 cb 1021,8 hPa 0,0 l/m 4,8 km/h (1 Bft) O 90 0 min 0,000 mm 0,0 UV-I 0 W/m 9,6 C 10,4 C 6,4 km/h (2 Bft) 91,30 %
27.09.2023 04:51 10,5 C 6,7 C 11,7 C 13,3 C 95 % 200 cb 11 cb 1021,8 hPa 0,0 l/m 1,6 km/h (1 Bft) N-NW 337 0 min 0,000 mm 0,0 UV-I 0 W/m 9,7 C 10,5 C 3,2 km/h (1 Bft) 95,65 %
27.09.2023 04:50 10,4 C 6,7 C 11,7 C 13,3 C 95 % 200 cb 11 cb 1021,8 hPa 0,0 l/m 1,6 km/h (1 Bft) N-NO 22 0 min 0,000 mm 0,0 UV-I 0 W/m 9,6 C 10,4 C 3,2 km/h (1 Bft) 91,30 %
27.09.2023 04:49 10,5 C 6,7 C 11,7 C 13,3 C 95 % 200 cb 11 cb 1021,9 hPa 0,0 l/m 1,6 km/h (1 Bft) N-NO 22 0 min 0,000 mm 0,0 UV-I 0 W/m 9,7 C 10,5 C 3,2 km/h (1 Bft) 91,30 %
27.09.2023 04:48 10,5 C 6,7 C 11,7 C 13,3 C 95 % 200 cb 11 cb 1021,9 hPa 0,0 l/m 1,6 km/h (1 Bft) NW 315 0 min 0,000 mm 0,0 UV-I 0 W/m 9,7 C 10,5 C 6,4 km/h (2 Bft) 95,65 %
27.09.2023 04:47 10,6 C 6,7 C 11,7 C 13,3 C 95 % 200 cb 11 cb 1021,9 hPa 0,0 l/m 3,2 km/h (1 Bft) NW 315 0 min 0,000 mm 0,0 UV-I 0 W/m 9,8 C 10,6 C 4,8 km/h (1 Bft) 86,96 %
27.09.2023 04:46 10,6 C 6,7 C 11,7 C 13,3 C 95 % 200 cb 11 cb 1021,8 hPa 0,0 l/m 1,6 km/h (1 Bft) NO 45 0 min 0,000 mm 0,0 UV-I 0 W/m 9,8 C 10,6 C 3,2 km/h (1 Bft) 86,96 %
27.09.2023 04:45 10,6 C 6,7 C 11,7 C 13,3 C 95 % 200 cb 11 cb 1021,8 hPa 0,0 l/m 1,6 km/h (1 Bft) NO 45 0 min 0,000 mm 0,0 UV-I 0 W/m 9,8 C 10,6 C 4,8 km/h (1 Bft) 95,65 %
27.09.2023 04:44 10,5 C 6,7 C 11,7 C 13,3 C 95 % 200 cb 11 cb 1021,8 hPa 0,0 l/m 3,2 km/h (1 Bft) NW 315 0 min 0,000 mm 0,0 UV-I 0 W/m 9,7 C 10,5 C 4,8 km/h (1 Bft) 91,30 %
27.09.2023 04:43 10,5 C 6,7 C 11,7 C 13,3 C 94 % 200 cb 11 cb 1021,9 hPa 0,0 l/m 3,2 km/h (1 Bft) NW 315 0 min 0,000 mm 0,0 UV-I 0 W/m 9,6 C 10,5 C 4,8 km/h (1 Bft) 95,65 %
27.09.2023 04:42 10,6 C 6,7 C 11,7 C 13,3 C 95 % 200 cb 11 cb 1021,8 hPa 0,0 l/m 3,2 km/h (1 Bft) W 270 0 min 0,000 mm 0,0 UV-I 0 W/m 9,8 C 10,6 C 6,4 km/h (2 Bft) 86,96 %
27.09.2023 04:41 10,6 C 6,7 C 11,7 C 13,3 C 95 % 200 cb 11 cb 1021,8 hPa 0,0 l/m 1,6 km/h (1 Bft) O-NO 67 0 min 0,000 mm 0,0 UV-I 0 W/m 9,8 C 10,6 C 3,2 km/h (1 Bft) 91,30 %
27.09.2023 04:40 10,4 C 6,7 C 11,7 C 13,3 C 95 % 200 cb 11 cb 1021,8 hPa 0,0 l/m 1,6 km/h (1 Bft) S 180 0 min 0,000 mm 0,0 UV-I 0 W/m 9,6 C 10,4 C 1,6 km/h (1 Bft) 86,96 %
27.09.2023 04:39 10,6 C 6,7 C 11,7 C 13,3 C 95 % 200 cb 11 cb 1021,8 hPa 0,0 l/m 0,0 km/h (0 Bft) O 90 0 min 0,000 mm 0,0 UV-I 0 W/m 9,8 C 10,6 C 3,2 km/h (1 Bft) 86,96 %
27.09.2023 04:38 10,5 C 7,2 C 11,7 C 13,3 C 95 % 200 cb 11 cb 1021,9 hPa 0,0 l/m 0,0 km/h (0 Bft) O 90 0 min 0,000 mm 0,0 UV-I 0 W/m 9,7 C 10,5 C 1,6 km/h (1 Bft) 95,65 %
27.09.2023 04:37 10,6 C 7,2 C 11,7 C 13,3 C 95 % 200 cb 11 cb 1021,9 hPa 0,0 l/m 1,6 km/h (1 Bft) S 180 0 min 0,000 mm 0,0 UV-I 0 W/m 9,8 C 10,6 C 4,8 km/h (1 Bft) 91,30 %
27.09.2023 04:36 10,6 C 7,2 C 11,7 C 13,3 C 95 % 200 cb 11 cb 1021,9 hPa 0,0 l/m 3,2 km/h (1 Bft) S-SW 202 0 min 0,000 mm 0,0 UV-I 0 W/m 9,8 C 10,6 C 6,4 km/h (2 Bft) 91,30 %
27.09.2023 04:35 10,6 C 7,2 C 11,7 C 13,3 C 95 % 200 cb 11 cb 1021,7 hPa 0,0 l/m 3,2 km/h (1 Bft) O-NO 67 0 min 0,000 mm 0,0 UV-I 0 W/m 9,8 C 10,6 C 6,4 km/h (2 Bft) 91,30 %
27.09.2023 04:34 10,6 C 7,2 C 11,7 C 13,3 C 95 % 200 cb 11 cb 1021,8 hPa 0,0 l/m 3,2 km/h (1 Bft) O-NO 67 0 min 0,000 mm 0,0 UV-I 0 W/m 9,8 C 10,6 C 6,4 km/h (2 Bft) 91,30 %
27.09.2023 04:33 10,6 C 7,2 C 11,7 C 13,3 C 95 % 200 cb 11 cb 1021,8 hPa 0,0 l/m 3,2 km/h (1 Bft) W-SW 247 0 min 0,000 mm 0,0 UV-I 0 W/m 9,8 C 10,6 C 6,4 km/h (2 Bft) 91,30 %
27.09.2023 04:32 10,6 C 7,2 C 11,7 C 13,3 C 95 % 200 cb 11 cb 1021,9 hPa 0,0 l/m 3,2 km/h (1 Bft) O-SO 112 0 min 0,000 mm 0,0 UV-I 0 W/m 9,8 C 10,6 C 6,4 km/h (2 Bft) 95,65 %
27.09.2023 04:31 10,5 C 7,2 C 11,7 C 13,3 C 95 % 200 cb 11 cb 1021,9 hPa 0,0 l/m 3,2 km/h (1 Bft) O-NO 67 0 min 0,000 mm 0,0 UV-I 0 W/m 9,7 C 10,5 C 4,8 km/h (1 Bft) 86,96 %
27.09.2023 04:30 10,5 C 7,2 C 11,7 C 13,3 C 94 % 200 cb 11 cb 1021,8 hPa 0,0 l/m 3,2 km/h (1 Bft) NO 45 0 min 0,000 mm 0,0 UV-I 0 W/m 9,6 C 10,5 C 4,8 km/h (1 Bft) 95,65 %
27.09.2023 04:29 10,5 C 7,2 C 11,7 C 13,3 C 94 % 200 cb 11 cb 1021,8 hPa 0,0 l/m 4,8 km/h (1 Bft) N 360 0 min 0,000 mm 0,0 UV-I 0 W/m 9,6 C 10,5 C 8,0 km/h (2 Bft) 91,30 %
27.09.2023 04:28 10,6 C 7,2 C 11,7 C 13,3 C 94 % 200 cb 11 cb 1021,9 hPa 0,0 l/m 6,4 km/h (2 Bft) N 360 0 min 0,000 mm 0,0 UV-I 0 W/m 9,7 C 10,6 C 9,7 km/h (2 Bft) 95,65 %
27.09.2023 04:27 10,7 C 7,2 C 11,7 C 13,3 C 94 % 200 cb 11 cb 1021,8 hPa 0,0 l/m 4,8 km/h (1 Bft) N-NW 337 0 min 0,000 mm 0,0 UV-I 0 W/m 9,8 C 10,7 C 8,0 km/h (2 Bft) 86,96 %
27.09.2023 04:26 10,7 C 7,2 C 11,7 C 13,3 C 94 % 200 cb 11 cb 1021,8 hPa 0,0 l/m 3,2 km/h (1 Bft) NO 45 0 min 0,000 mm 0,0 UV-I 0 W/m 9,8 C 10,7 C 4,8 km/h (1 Bft) 95,65 %
27.09.2023 04:25 10,5 C 7,2 C 11,7 C 13,3 C 94 % 200 cb 11 cb 1021,9 hPa 0,0 l/m 4,8 km/h (1 Bft) NO 45 0 min 0,000 mm 0,0 UV-I 0 W/m 9,6 C 10,5 C 6,4 km/h (2 Bft) 91,30 %
27.09.2023 04:24 10,6 C 7,2 C 11,7 C 13,3 C 93 % 200 cb 11 cb 1021,9 hPa 0,0 l/m 6,4 km/h (2 Bft) NO 45 0 min 0,000 mm 0,0 UV-I 0 W/m 9,5 C 10,6 C 8,0 km/h (2 Bft) 95,65 %
27.09.2023 04:23 10,7 C 7,2 C 11,7 C 13,3 C 93 % 200 cb 11 cb 1021,8 hPa 0,0 l/m 3,2 km/h (1 Bft) NO 45 0 min 0,000 mm 0,0 UV-I 0 W/m 9,6 C 10,7 C 6,4 km/h (2 Bft) 91,30 %
27.09.2023 04:22 10,8 C 7,2 C 11,7 C 13,3 C 93 % 200 cb 11 cb 1021,9 hPa 0,0 l/m 1,6 km/h (1 Bft) SW 225 0 min 0,000 mm 0,0 UV-I 0 W/m 9,7 C 10,8 C 4,8 km/h (1 Bft) 86,96 %
27.09.2023 04:21 11,0 C 7,2 C 11,7 C 13,3 C 95 % 200 cb 11 cb 1021,9 hPa 0,0 l/m 4,8 km/h (1 Bft) S 180 0 min 0,000 mm 0,0 UV-I 0 W/m 10,2 C 11,0 C 8,0 km/h (2 Bft) 95,65 %
27.09.2023 04:20 10,9 C 7,2 C 11,7 C 13,3 C 94 % 200 cb 11 cb 1022,0 hPa 0,0 l/m 4,8 km/h (1 Bft) O 90 0 min 0,000 mm 0,0 UV-I 0 W/m 10,0 C 10,9 C 6,4 km/h (2 Bft) 91,30 %
27.09.2023 04:19 10,9 C 7,2 C 11,7 C 13,3 C 94 % 200 cb 11 cb 1021,9 hPa 0,0 l/m 4,8 km/h (1 Bft) S 180 0 min 0,000 mm 0,0 UV-I 0 W/m 10,0 C 10,9 C 6,4 km/h (2 Bft) 95,65 %
27.09.2023 04:18 10,9 C 7,2 C 11,7 C 13,3 C 94 % 200 cb 11 cb 1021,9 hPa 0,0 l/m 1,6 km/h (1 Bft) O 90 0 min 0,000 mm 0,0 UV-I 0 W/m 10,0 C 10,9 C 3,2 km/h (1 Bft) 95,65 %
27.09.2023 04:17 10,9 C 7,2 C 11,7 C 13,3 C 95 % 200 cb 11 cb 1021,9 hPa 0,0 l/m 4,8 km/h (1 Bft) O 90 0 min 0,000 mm 0,0 UV-I 0 W/m 10,1 C 10,9 C 6,4 km/h (2 Bft) 86,96 %
27.09.2023 04:16 10,9 C 7,2 C 11,7 C 13,3 C 95 % 200 cb 11 cb 1022,0 hPa 0,0 l/m 1,6 km/h (1 Bft) N-NO 22 0 min 0,000 mm 0,0 UV-I 0 W/m 10,1 C 10,9 C 3,2 km/h (1 Bft) 86,96 %
27.09.2023 04:15 10,8 C 7,2 C 11,7 C 13,3 C 95 % 200 cb 11 cb 1022,0 hPa 0,0 l/m 3,2 km/h (1 Bft) N 360 0 min 0,000 mm 0,0 UV-I 0 W/m 10,0 C 10,8 C 6,4 km/h (2 Bft) 86,96 %
27.09.2023 04:14 10,6 C 7,2 C 11,7 C 13,3 C 95 % 200 cb 11 cb 1022,0 hPa 0,0 l/m 3,2 km/h (1 Bft) W-NW 292 0 min 0,000 mm 0,0 UV-I 0 W/m 9,8 C 10,6 C 4,8 km/h (1 Bft) 78,26 %
27.09.2023 04:13 10,6 C 7,2 C 11,7 C 13,3 C 95 % 200 cb 11 cb 1022,0 hPa 0,0 l/m 3,2 km/h (1 Bft) S-SW 202 0 min 0,000 mm 0,0 UV-I 0 W/m 9,8 C 10,6 C 6,4 km/h (2 Bft) 91,30 %
27.09.2023 04:12 10,4 C 7,2 C 11,7 C 13,3 C 95 % 200 cb 11 cb 1022,0 hPa 0,0 l/m 3,2 km/h (1 Bft) O-SO 112 0 min 0,000 mm 0,0 UV-I 0 W/m 9,6 C 10,4 C 4,8 km/h (1 Bft) 95,65 %
27.09.2023 04:11 10,4 C 7,2 C 11,7 C 13,3 C 95 % 200 cb 11 cb 1021,9 hPa 0,0 l/m 3,2 km/h (1 Bft) NO 45 0 min 0,000 mm 0,0 UV-I 0 W/m 9,6 C 10,4 C 4,8 km/h (1 Bft) 95,65 %
27.09.2023 04:10 10,3 C 6,7 C 11,7 C 13,3 C 95 % 200 cb 11 cb 1021,9 hPa 0,0 l/m 6,4 km/h (2 Bft) O 90 0 min 0,000 mm 0,0 UV-I 0 W/m 9,5 C 10,3 C 8,0 km/h (2 Bft) 95,65 %
27.09.2023 04:09 10,4 C 6,7 C 11,7 C 13,3 C 95 % 200 cb 11 cb 1022,0 hPa 0,0 l/m 4,8 km/h (1 Bft) O-SO 112 0 min 0,000 mm 0,0 UV-I 0 W/m 9,6 C 10,4 C 8,0 km/h (2 Bft) 91,30 %
27.09.2023 04:08 10,4 C 6,7 C 11,7 C 13,3 C 94 % 200 cb 11 cb 1021,9 hPa 0,0 l/m 4,8 km/h (1 Bft) O 90 0 min 0,000 mm 0,0 UV-I 0 W/m 9,5 C 10,4 C 8,0 km/h (2 Bft) 95,65 %
27.09.2023 04:07 10,5 C 6,7 C 11,7 C 13,3 C 95 % 200 cb 11 cb 1021,9 hPa 0,0 l/m 1,6 km/h (1 Bft) W-NW 292 0 min 0,000 mm 0,0 UV-I 0 W/m 9,7 C 10,5 C 4,8 km/h (1 Bft) 95,65 %
27.09.2023 04:06 10,6 C 6,7 C 11,7 C 13,3 C 95 % 200 cb 11 cb 1022,0 hPa 0,0 l/m 4,8 km/h (1 Bft) O 90 0 min 0,000 mm 0,0 UV-I 0 W/m 9,8 C 10,6 C 4,8 km/h (1 Bft) 95,65 %
27.09.2023 04:05 10,4 C 6,7 C 11,7 C 13,3 C 95 % 200 cb 11 cb 1022,0 hPa 0,0 l/m 1,6 km/h (1 Bft) O 90 0 min 0,000 mm 0,0 UV-I 0 W/m 9,6 C 10,4 C 3,2 km/h (1 Bft) 91,30 %
27.09.2023 04:04 10,3 C 6,7 C 11,7 C 13,3 C 95 % 200 cb 11 cb 1022,0 hPa 0,0 l/m 1,6 km/h (1 Bft) W-NW 292 0 min 0,000 mm 0,0 UV-I 0 W/m 9,5 C 10,3 C 3,2 km/h (1 Bft) 91,30 %
27.09.2023 04:03 10,3 C 6,7 C 11,7 C 13,3 C 94 % 200 cb 11 cb 1022,0 hPa 0,0 l/m 3,2 km/h (1 Bft) O 90 0 min 0,000 mm 0,0 UV-I 0 W/m 9,4 C 10,3 C 4,8 km/h (1 Bft) 91,30 %
27.09.2023 04:02 10,4 C 6,7 C 11,7 C 13,3 C 94 % 200 cb 11 cb 1022,0 hPa 0,0 l/m 0,0 km/h (0 Bft) O-NO 67 0 min 0,000 mm 0,0 UV-I 0 W/m 9,5 C 10,4 C 3,2 km/h (1 Bft) 95,65 %
27.09.2023 04:01 10,6 C 6,7 C 11,7 C 13,3 C 95 % 200 cb 11 cb 1022,0 hPa 0,0 l/m 1,6 km/h (1 Bft) SO 135 0 min 0,000 mm 0,0 UV-I 0 W/m 9,8 C 10,6 C 1,6 km/h (1 Bft) 95,65 %
27.09.2023 04:00 10,6 C 7,2 C 11,7 C 13,3 C 95 % 200 cb 11 cb 1022,0 hPa 0,0 l/m 3,2 km/h (1 Bft) O 90 0 min 0,000 mm 0,0 UV-I 0 W/m 9,8 C 10,6 C 3,2 km/h (1 Bft) 95,65 %
27.09.2023 03:59 10,6 C 7,2 C 11,7 C 13,3 C 95 % 200 cb 11 cb 1022,0 hPa 0,0 l/m 3,2 km/h (1 Bft) SO 135 0 min 0,000 mm 0,0 UV-I 0 W/m 9,8 C 10,6 C 4,8 km/h (1 Bft) 95,65 %
27.09.2023 03:58 10,4 C 7,2 C 11,7 C 13,3 C 95 % 200 cb 11 cb 1022,0 hPa 0,0 l/m 3,2 km/h (1 Bft) O-SO 112 0 min 0,000 mm 0,0 UV-I 0 W/m 9,6 C 10,4 C 4,8 km/h (1 Bft) 91,30 %
27.09.2023 03:57 10,6 C 7,2 C 11,7 C 13,3 C 95 % 200 cb 11 cb 1022,1 hPa 0,0 l/m 1,6 km/h (1 Bft) S 180 0 min 0,000 mm 0,0 UV-I 0 W/m 9,8 C 10,6 C 4,8 km/h (1 Bft) 95,65 %
27.09.2023 03:56 10,5 C 6,7 C 11,7 C 13,3 C 94 % 200 cb 11 cb 1021,9 hPa 0,0 l/m 4,8 km/h (1 Bft) N-NO 22 0 min 0,000 mm 0,0 UV-I 0 W/m 9,6 C 10,5 C 8,0 km/h (2 Bft) 95,65 %
27.09.2023 03:55 10,7 C 6,7 C 11,7 C 13,3 C 95 % 200 cb 11 cb 1022,0 hPa 0,0 l/m 3,2 km/h (1 Bft) N-NW 337 0 min 0,000 mm 0,0 UV-I 0 W/m 9,9 C 10,7 C 8,0 km/h (2 Bft) 95,65 %
27.09.2023 03:54 10,7 C 6,7 C 11,7 C 13,3 C 95 % 200 cb 11 cb 1021,9 hPa 0,0 l/m 3,2 km/h (1 Bft) W-SW 247 0 min 0,000 mm 0,0 UV-I 0 W/m 9,9 C 10,7 C 4,8 km/h (1 Bft) 91,30 %
27.09.2023 03:53 10,6 C 6,7 C 11,7 C 13,3 C 95 % 200 cb 11 cb 1022,0 hPa 0,0 l/m 1,6 km/h (1 Bft) S-SW 202 0 min 0,000 mm 0,0 UV-I 0 W/m 9,8 C 10,6 C 3,2 km/h (1 Bft) 95,65 %
27.09.2023 03:52 10,5 C 6,7 C 11,7 C 13,3 C 95 % 200 cb 11 cb 1022,0 hPa 0,0 l/m 4,8 km/h (1 Bft) S-SW 202 0 min 0,000 mm 0,0 UV-I 0 W/m 9,7 C 10,5 C 6,4 km/h (2 Bft) 91,30 %
27.09.2023 03:51 10,3 C 6,7 C 11,7 C 13,3 C 95 % 200 cb 11 cb 1022,1 hPa 0,0 l/m 3,2 km/h (1 Bft) S-SW 202 0 min 0,000 mm 0,0 UV-I 0 W/m 9,5 C 10,3 C 8,0 km/h (2 Bft) 91,30 %
27.09.2023 03:50 10,4 C 6,7 C 11,7 C 13,3 C 95 % 200 cb 11 cb 1021,9 hPa 0,0 l/m 8,0 km/h (2 Bft) O-NO 67 0 min 0,000 mm 0,0 UV-I 0 W/m 9,6 C 10,4 C 12,9 km/h (3 Bft) 95,65 %
27.09.2023 03:49 10,5 C 6,7 C 11,7 C 13,3 C 95 % 200 cb 11 cb 1022,0 hPa 0,0 l/m 6,4 km/h (2 Bft) NO 45 0 min 0,000 mm 0,0 UV-I 0 W/m 9,7 C 10,5 C 11,3 km/h (2 Bft) 95,65 %
27.09.2023 03:48 10,4 C 6,7 C 11,7 C 13,3 C 95 % 200 cb 11 cb 1022,0 hPa 0,0 l/m 3,2 km/h (1 Bft) O 90 0 min 0,000 mm 0,0 UV-I 0 W/m 9,6 C 10,4 C 4,8 km/h (1 Bft) 95,65 %
27.09.2023 03:47 10,4 C 6,7 C 11,7 C 13,9 C 95 % 200 cb 11 cb 1022,1 hPa 0,0 l/m 1,6 km/h (1 Bft) O-SO 112 0 min 0,000 mm 0,0 UV-I 0 W/m 9,6 C 10,4 C 3,2 km/h (1 Bft) 91,30 %
27.09.2023 03:46 10,4 C 6,7 C 11,7 C 13,3 C 94 % 200 cb 11 cb 1022,2 hPa 0,0 l/m 1,6 km/h (1 Bft) SW 225 0 min 0,000 mm 0,0 UV-I 0 W/m 9,5 C 10,4 C 3,2 km/h (1 Bft) 91,30 %
27.09.2023 03:45 10,4 C 6,7 C 11,7 C 13,9 C 94 % 200 cb 11 cb 1022,0 hPa 0,0 l/m 3,2 km/h (1 Bft) O-NO 67 0 min 0,000 mm 0,0 UV-I 0 W/m 9,5 C 10,4 C 4,8 km/h (1 Bft) 95,65 %
27.09.2023 03:44 10,5 C 6,7 C 11,7 C 13,3 C 95 % 200 cb 11 cb 1022,2 hPa 0,0 l/m 1,6 km/h (1 Bft) SO 135 0 min 0,000 mm 0,0 UV-I 0 W/m 9,7 C 10,5 C 3,2 km/h (1 Bft) 95,65 %
27.09.2023 03:43 10,4 C 6,7 C 11,7 C 13,9 C 94 % 200 cb 11 cb 1022,1 hPa 0,0 l/m 1,6 km/h (1 Bft) SO 135 0 min 0,000 mm 0,0 UV-I 0 W/m 9,5 C 10,4 C 3,2 km/h (1 Bft) 95,65 %
27.09.2023 03:42 10,5 C 6,7 C 11,7 C 13,9 C 94 % 200 cb 11 cb 1022,1 hPa 0,0 l/m 1,6 km/h (1 Bft) O-SO 112 0 min 0,000 mm 0,0 UV-I 0 W/m 9,6 C 10,5 C 3,2 km/h (1 Bft) 95,65 %
27.09.2023 03:41 10,6 C 6,7 C 11,7 C 13,9 C 94 % 200 cb 11 cb 1022,1 hPa 0,0 l/m 1,6 km/h (1 Bft) SW 225 0 min 0,000 mm 0,0 UV-I 0 W/m 9,7 C 10,6 C 3,2 km/h (1 Bft) 91,30 %
27.09.2023 03:40 10,6 C 7,2 C 11,7 C 13,9 C 95 % 200 cb 11 cb 1022,1 hPa 0,0 l/m 3,2 km/h (1 Bft) NO 45 0 min 0,000 mm 0,0 UV-I 0 W/m 9,8 C 10,6 C 4,8 km/h (1 Bft) 95,65 %
27.09.2023 03:39 10,6 C 7,2 C 11,7 C 13,3 C 94 % 200 cb 11 cb 1022,1 hPa 0,0 l/m 4,8 km/h (1 Bft) NO 45 0 min 0,000 mm 0,0 UV-I 0 W/m 9,7 C 10,6 C 6,4 km/h (2 Bft) 95,65 %
27.09.2023 03:38 10,5 C 7,2 C 11,7 C 13,3 C 94 % 200 cb 11 cb 1022,1 hPa 0,0 l/m 1,6 km/h (1 Bft) W 270 0 min 0,000 mm 0,0 UV-I 0 W/m 9,6 C 10,5 C 3,2 km/h (1 Bft) 91,30 %
27.09.2023 03:37 10,5 C 7,2 C 11,7 C 13,9 C 94 % 200 cb 11 cb 1022,1 hPa 0,0 l/m 0,0 km/h (0 Bft) SO 135 0 min 0,000 mm 0,0 UV-I 0 W/m 9,6 C 10,5 C 1,6 km/h (1 Bft) 91,30 %
27.09.2023 03:36 10,7 C 7,2 C 11,7 C 13,3 C 94 % 200 cb 11 cb 1022,1 hPa 0,0 l/m 1,6 km/h (1 Bft) N 360 0 min 0,000 mm 0,0 UV-I 0 W/m 9,8 C 10,7 C 1,6 km/h (1 Bft) 95,65 %
27.09.2023 03:35 10,7 C 7,2 C 11,7 C 13,3 C 94 % 200 cb 11 cb 1022,2 hPa 0,0 l/m 1,6 km/h (1 Bft) N 360 0 min 0,000 mm 0,0 UV-I 0 W/m 9,8 C 10,7 C 3,2 km/h (1 Bft) 91,30 %
27.09.2023 03:34 10,8 C 7,2 C 11,7 C 13,9 C 95 % 200 cb 11 cb 1022,1 hPa 0,0 l/m 4,8 km/h (1 Bft) W-SW 247 0 min 0,000 mm 0,0 UV-I 0 W/m 10,0 C 10,8 C 6,4 km/h (2 Bft) 95,65 %
27.09.2023 03:33 10,7 C 7,2 C 11,7 C 13,9 C 95 % 200 cb 11 cb 1022,2 hPa 0,0 l/m 4,8 km/h (1 Bft) NO 45 0 min 0,000 mm 0,0 UV-I 0 W/m 9,9 C 10,7 C 8,0 km/h (2 Bft) 95,65 %
27.09.2023 03:32 10,6 C 7,2 C 12,2 C 13,9 C 95 % 200 cb 11 cb 1022,1 hPa 0,0 l/m 3,2 km/h (1 Bft) N 360 0 min 0,000 mm 0,0 UV-I 0 W/m 9,8 C 10,6 C 4,8 km/h (1 Bft) 91,30 %
27.09.2023 03:31 10,5 C 7,2 C 12,2 C 13,9 C 94 % 200 cb 11 cb 1022,2 hPa 0,0 l/m 3,2 km/h (1 Bft) N-NO 22 0 min 0,000 mm 0,0 UV-I 0 W/m 9,6 C 10,5 C 4,8 km/h (1 Bft) 95,65 %
27.09.2023 03:30 10,3 C 7,2 C 12,2 C 13,9 C 94 % 200 cb 11 cb 1022,2 hPa 0,0 l/m 4,8 km/h (1 Bft) NO 45 0 min 0,000 mm 0,0 UV-I 0 W/m 9,4 C 10,3 C 6,4 km/h (2 Bft) 91,30 %
27.09.2023 03:29 10,4 C 7,2 C 12,2 C 13,9 C 94 % 200 cb 11 cb 1022,2 hPa 0,0 l/m 4,8 km/h (1 Bft) N-NO 22 0 min 0,000 mm 0,0 UV-I 0 W/m 9,5 C 10,4 C 6,4 km/h (2 Bft) 95,65 %
27.09.2023 03:28 10,5 C 7,2 C 12,2 C 13,9 C 94 % 200 cb 11 cb 1022,2 hPa 0,0 l/m 3,2 km/h (1 Bft) NW 315 0 min 0,000 mm 0,0 UV-I 0 W/m 9,6 C 10,5 C 4,8 km/h (1 Bft) 91,30 %
27.09.2023 03:27 10,5 C 7,8 C 12,2 C 13,9 C 94 % 200 cb 11 cb 1022,1 hPa 0,0 l/m 1,6 km/h (1 Bft) S-SW 202 0 min 0,000 mm 0,0 UV-I 0 W/m 9,6 C 10,5 C 3,2 km/h (1 Bft) 86,96 %
27.09.2023 03:26 10,7 C 7,8 C 12,2 C 13,9 C 93 % 200 cb 11 cb 1022,1 hPa 0,0 l/m 3,2 km/h (1 Bft) SO 135 0 min 0,000 mm 0,0 UV-I 0 W/m 9,6 C 10,7 C 4,8 km/h (1 Bft) 91,30 %
27.09.2023 03:25 10,8 C 7,8 C 12,2 C 13,9 C 94 % 200 cb 11 cb 1022,2 hPa 0,0 l/m 3,2 km/h (1 Bft) S 180 0 min 0,000 mm 0,0 UV-I 0 W/m 9,9 C 10,8 C 4,8 km/h (1 Bft) 91,30 %
27.09.2023 03:24 11,0 C 7,8 C 12,2 C 13,9 C 94 % 200 cb 11 cb 1022,2 hPa 0,0 l/m 3,2 km/h (1 Bft) S 180 0 min 0,000 mm 0,0 UV-I 0 W/m 10,1 C 11,0 C 4,8 km/h (1 Bft) 91,30 %
27.09.2023 03:23 10,9 C 7,8 C 12,2 C 13,9 C 94 % 200 cb 11 cb 1022,3 hPa 0,0 l/m 3,2 km/h (1 Bft) NW 315 0 min 0,000 mm 0,0 UV-I 0 W/m 10,0 C 10,9 C 4,8 km/h (1 Bft) 91,30 %
27.09.2023 03:22 10,9 C 7,8 C 12,2 C 13,9 C 94 % 200 cb 11 cb 1022,1 hPa 0,0 l/m 3,2 km/h (1 Bft) S-SW 202 0 min 0,000 mm 0,0 UV-I 0 W/m 10,0 C 10,9 C 3,2 km/h (1 Bft) 95,65 %
27.09.2023 03:21 11,1 C 7,8 C 12,2 C 13,9 C 94 % 200 cb 11 cb 1022,1 hPa 0,0 l/m 3,2 km/h (1 Bft) S-SW 202 0 min 0,000 mm 0,0 UV-I 0 W/m 10,2 C 11,1 C 6,4 km/h (2 Bft) 86,96 %
27.09.2023 03:20 10,9 C 7,8 C 12,2 C 13,9 C 94 % 200 cb 11 cb 1022,3 hPa 0,0 l/m 3,2 km/h (1 Bft) W-NW 292 0 min 0,000 mm 0,0 UV-I 0 W/m 10,0 C 10,9 C 4,8 km/h (1 Bft) 91,30 %
27.09.2023 03:19 10,9 C 7,2 C 12,2 C 13,9 C 94 % 200 cb 11 cb 1022,2 hPa 0,0 l/m 3,2 km/h (1 Bft) S-SO 157 0 min 0,000 mm 0,0 UV-I 0 W/m 10,0 C 10,9 C 4,8 km/h (1 Bft) 82,61 %
27.09.2023 03:18 10,9 C 7,2 C 12,2 C 13,9 C 94 % 200 cb 11 cb 1022,1 hPa 0,0 l/m 4,8 km/h (1 Bft) O-NO 67 0 min 0,000 mm 0,0 UV-I 0 W/m 10,0 C 10,9 C 6,4 km/h (2 Bft) 91,30 %
27.09.2023 03:17 10,8 C 7,2 C 12,2 C 13,9 C 93 % 200 cb 11 cb 1022,3 hPa 0,0 l/m 6,4 km/h (2 Bft) N-NO 22 0 min 0,000 mm 0,0 UV-I 0 W/m 9,7 C 10,8 C 8,0 km/h (2 Bft) 86,96 %
27.09.2023 03:16 10,8 C 7,2 C 12,2 C 13,9 C 93 % 200 cb 11 cb 1022,2 hPa 0,0 l/m 4,8 km/h (1 Bft) N-NO 22 0 min 0,000 mm 0,0 UV-I 0 W/m 9,7 C 10,8 C 6,4 km/h (2 Bft) 91,30 %
27.09.2023 03:15 10,9 C 7,2 C 12,2 C 13,9 C 92 % 200 cb 11 cb 1022,4 hPa 0,0 l/m 3,2 km/h (1 Bft) W 270 0 min 0,000 mm 0,0 UV-I 0 W/m 9,7 C 10,9 C 3,2 km/h (1 Bft) 91,30 %
27.09.2023 03:14 11,2 C 7,2 C 12,2 C 13,9 C 94 % 200 cb 11 cb 1022,3 hPa 0,0 l/m 1,6 km/h (1 Bft) O-NO 67 0 min 0,000 mm 0,0 UV-I 0 W/m 10,3 C 11,2 C 3,2 km/h (1 Bft) 95,65 %
27.09.2023 03:13 11,2 C 7,2 C 12,2 C 13,9 C 94 % 200 cb 11 cb 1022,2 hPa 0,0 l/m 3,2 km/h (1 Bft) O-SO 112 0 min 0,000 mm 0,0 UV-I 0 W/m 10,3 C 11,2 C 4,8 km/h (1 Bft) 86,96 %
27.09.2023 03:12 11,3 C 7,2 C 12,2 C 13,9 C 94 % 200 cb 11 cb 1022,3 hPa 0,0 l/m 4,8 km/h (1 Bft) O-SO 112 0 min 0,000 mm 0,0 UV-I 0 W/m 10,4 C 11,3 C 4,8 km/h (1 Bft) 91,30 %
27.09.2023 03:11 11,2 C 7,2 C 12,2 C 13,9 C 94 % 200 cb 11 cb 1022,4 hPa 0,0 l/m 4,8 km/h (1 Bft) N-NO 22 0 min 0,000 mm 0,0 UV-I 0 W/m 10,3 C 11,2 C 6,4 km/h (2 Bft) 95,65 %
27.09.2023 03:10 10,9 C 7,2 C 12,2 C 13,9 C 94 % 200 cb 11 cb 1022,4 hPa 0,0 l/m 4,8 km/h (1 Bft) N-NO 22 0 min 0,000 mm 0,0 UV-I 0 W/m 10,0 C 10,9 C 6,4 km/h (2 Bft) 86,96 %
27.09.2023 03:09 10,9 C 7,2 C 12,2 C 13,9 C 94 % 200 cb 11 cb 1022,4 hPa 0,0 l/m 1,6 km/h (1 Bft) N 360 0 min 0,000 mm 0,0 UV-I 0 W/m 10,0 C 10,9 C 3,2 km/h (1 Bft) 95,65 %
27.09.2023 03:08 10,9 C 7,2 C 12,2 C 13,9 C 94 % 200 cb 11 cb 1022,4 hPa 0,0 l/m 3,2 km/h (1 Bft) NO 45 0 min 0,000 mm 0,0 UV-I 0 W/m 10,0 C 10,9 C 4,8 km/h (1 Bft) 86,96 %
27.09.2023 03:07 10,9 C 7,2 C 12,2 C 13,9 C 94 % 200 cb 11 cb 1022,2 hPa 0,0 l/m 3,2 km/h (1 Bft) N-NO 22 0 min 0,000 mm 0,0 UV-I 0 W/m 10,0 C 10,9 C 3,2 km/h (1 Bft) 95,65 %
27.09.2023 03:06 10,9 C 7,2 C 12,2 C 13,9 C 93 % 200 cb 11 cb 1022,4 hPa 0,0 l/m 3,2 km/h (1 Bft) NW 315 0 min 0,000 mm 0,0 UV-I 0 W/m 9,8 C 10,9 C 4,8 km/h (1 Bft) 95,65 %
27.09.2023 03:05 10,9 C 7,2 C 12,2 C 13,9 C 93 % 200 cb 11 cb 1022,4 hPa 0,0 l/m 3,2 km/h (1 Bft) W-SW 247 0 min 0,000 mm 0,0 UV-I 0 W/m 9,8 C 10,9 C 4,8 km/h (1 Bft) 91,30 %
27.09.2023 03:04 11,0 C 7,2 C 12,2 C 13,9 C 93 % 200 cb 11 cb 1022,3 hPa 0,0 l/m 3,2 km/h (1 Bft) S 180 0 min 0,000 mm 0,0 UV-I 0 W/m 9,9 C 11,0 C 4,8 km/h (1 Bft) 95,65 %
27.09.2023 03:03 11,0 C 7,8 C 12,2 C 13,9 C 93 % 200 cb 11 cb 1022,4 hPa 0,0 l/m 1,6 km/h (1 Bft) SO 135 0 min 0,000 mm 0,0 UV-I 0 W/m 9,9 C 11,0 C 4,8 km/h (1 Bft) 91,30 %
27.09.2023 03:02 11,1 C 7,8 C 12,2 C 13,9 C 92 % 200 cb 11 cb 1022,3 hPa 0,0 l/m 1,6 km/h (1 Bft) O-SO 112 0 min 0,000 mm 0,0 UV-I 0 W/m 9,8 C 11,1 C 3,2 km/h (1 Bft) 91,30 %
27.09.2023 03:01 11,1 C 7,8 C 12,2 C 13,9 C 92 % 200 cb 11 cb 1022,4 hPa 0,0 l/m 1,6 km/h (1 Bft) S 180 0 min 0,000 mm 0,0 UV-I 0 W/m 9,8 C 11,1 C 3,2 km/h (1 Bft) 95,65 %
27.09.2023 03:00 11,3 C 7,8 C 12,2 C 13,9 C 92 % 200 cb 11 cb 1022,4 hPa 0,0 l/m 1,6 km/h (1 Bft) S 180 0 min 0,000 mm 0,0 UV-I 0 W/m 10,0 C 11,3 C 3,2 km/h (1 Bft) 91,30 %
27.09.2023 02:59 11,4 C 7,8 C 12,2 C 13,9 C 92 % 200 cb 11 cb 1022,3 hPa 0,0 l/m 1,6 km/h (1 Bft) O 90 0 min 0,000 mm 0,0 UV-I 0 W/m 10,1 C 11,4 C 3,2 km/h (1 Bft) 95,65 %
27.09.2023 02:58 11,6 C 7,8 C 12,2 C 13,9 C 93 % 200 cb 11 cb 1022,5 hPa 0,0 l/m 1,6 km/h (1 Bft) O 90 0 min 0,000 mm 0,0 UV-I 0 W/m 10,5 C 11,6 C 3,2 km/h (1 Bft) 91,30 %
27.09.2023 02:57 11,5 C 7,8 C 12,2 C 13,9 C 93 % 200 cb 11 cb 1022,4 hPa 0,0 l/m 1,6 km/h (1 Bft) S 180 0 min 0,000 mm 0,0 UV-I 0 W/m 10,4 C 11,5 C 3,2 km/h (1 Bft) 91,30 %
27.09.2023 02:56 11,4 C 7,8 C 12,2 C 13,9 C 92 % 200 cb 11 cb 1022,5 hPa 0,0 l/m 3,2 km/h (1 Bft) N 360 0 min 0,000 mm 0,0 UV-I 0 W/m 10,1 C 11,4 C 4,8 km/h (1 Bft) 95,65 %
27.09.2023 02:55 11,5 C 7,8 C 12,2 C 13,9 C 92 % 200 cb 11 cb 1022,4 hPa 0,0 l/m 3,2 km/h (1 Bft) N 360 0 min 0,000 mm 0,0 UV-I 0 W/m 10,2 C 11,5 C 4,8 km/h (1 Bft) 91,30 %
27.09.2023 02:54 11,5 C 7,8 C 12,2 C 13,9 C 92 % 200 cb 11 cb 1022,4 hPa 0,0 l/m 1,6 km/h (1 Bft) W-SW 247 0 min 0,000 mm 0,0 UV-I 0 W/m 10,2 C 11,5 C 3,2 km/h (1 Bft) 95,65 %
27.09.2023 02:53 11,6 C 8,3 C 12,2 C 13,9 C 92 % 200 cb 11 cb 1022,4 hPa 0,0 l/m 1,6 km/h (1 Bft) W-SW 247 0 min 0,000 mm 0,0 UV-I 0 W/m 10,3 C 11,6 C 3,2 km/h (1 Bft) 91,30 %
27.09.2023 02:52 11,6 C 8,3 C 12,2 C 13,9 C 92 % 200 cb 11 cb 1022,3 hPa 0,0 l/m 1,6 km/h (1 Bft) W-SW 247 0 min 0,000 mm 0,0 UV-I 0 W/m 10,3 C 11,6 C 3,2 km/h (1 Bft) 86,96 %
27.09.2023 02:51 11,6 C 8,3 C 12,2 C 13,9 C 92 % 200 cb 11 cb 1022,3 hPa 0,0 l/m 1,6 km/h (1 Bft) SO 135 0 min 0,000 mm 0,0 UV-I 0 W/m 10,3 C 11,6 C 1,6 km/h (1 Bft) 86,96 %
27.09.2023 02:50 11,7 C 8,3 C 12,2 C 13,9 C 92 % 200 cb 11 cb 1022,4 hPa 0,0 l/m 1,6 km/h (1 Bft) S-SO 157 0 min 0,000 mm 0,0 UV-I 0 W/m 10,4 C 11,7 C 3,2 km/h (1 Bft) 91,30 %
27.09.2023 02:49 11,6 C 8,3 C 12,2 C 13,9 C 92 % 200 cb 11 cb 1022,3 hPa 0,0 l/m 1,6 km/h (1 Bft) O-NO 67 0 min 0,000 mm 0,0 UV-I 0 W/m 10,3 C 11,6 C 3,2 km/h (1 Bft) 91,30 %
27.09.2023 02:48 11,6 C 8,9 C 12,2 C 13,9 C 92 % 200 cb 11 cb 1022,4 hPa 0,0 l/m 3,2 km/h (1 Bft) O-NO 67 0 min 0,000 mm 0,0 UV-I 0 W/m 10,3 C 11,6 C 4,8 km/h (1 Bft) 86,96 %
27.09.2023 02:47 11,6 C 8,9 C 12,2 C 13,9 C 91 % 200 cb 11 cb 1022,4 hPa 0,0 l/m 1,6 km/h (1 Bft) N-NO 22 0 min 0,000 mm 0,0 UV-I 0 W/m 10,2 C 11,6 C 4,8 km/h (1 Bft) 91,30 %
27.09.2023 02:46 11,8 C 8,9 C 12,2 C 13,9 C 92 % 200 cb 11 cb 1022,4 hPa 0,0 l/m 3,2 km/h (1 Bft) NO 45 0 min 0,000 mm 0,0 UV-I 0 W/m 10,5 C 11,8 C 6,4 km/h (2 Bft) 82,61 %
27.09.2023 02:45 11,8 C 8,9 C 12,2 C 13,9 C 92 % 200 cb 11 cb 1022,4 hPa 0,0 l/m 4,8 km/h (1 Bft) NW 315 0 min 0,000 mm 0,0 UV-I 0 W/m 10,5 C 11,8 C 8,0 km/h (2 Bft) 91,30 %
27.09.2023 02:44 11,8 C 8,9 C 12,2 C 13,9 C 92 % 200 cb 11 cb 1022,4 hPa 0,0 l/m 4,8 km/h (1 Bft) S-SO 157 0 min 0,000 mm 0,0 UV-I 0 W/m 10,5 C 11,8 C 9,7 km/h (2 Bft) 78,26 %
27.09.2023 02:43 11,9 C 8,9 C 12,2 C 13,9 C 92 % 200 cb 11 cb 1022,4 hPa 0,0 l/m 4,8 km/h (1 Bft) SO 135 0 min 0,000 mm 0,0 UV-I 0 W/m 10,6 C 11,9 C 8,0 km/h (2 Bft) 86,96 %
27.09.2023 02:42 11,8 C 8,9 C 12,2 C 13,9 C 92 % 200 cb 11 cb 1022,3 hPa 0,0 l/m 0,0 km/h (0 Bft) S-SO 157 0 min 0,000 mm 0,0 UV-I 0 W/m 10,5 C 11,8 C 3,2 km/h (1 Bft) 91,30 %
27.09.2023 02:41 11,8 C 8,9 C 12,2 C 13,9 C 92 % 200 cb 11 cb 1022,3 hPa 0,0 l/m 4,8 km/h (1 Bft) W 270 0 min 0,000 mm 0,0 UV-I 0 W/m 10,5 C 11,8 C 6,4 km/h (2 Bft) 91,30 %
27.09.2023 02:40 11,7 C 8,9 C 12,2 C 13,9 C 92 % 200 cb 11 cb 1022,3 hPa 0,0 l/m 1,6 km/h (1 Bft) N 360 0 min 0,000 mm 0,0 UV-I 0 W/m 10,4 C 11,7 C 4,8 km/h (1 Bft) 86,96 %
27.09.2023 02:39 11,8 C 8,9 C 12,2 C 13,9 C 92 % 200 cb 11 cb 1022,3 hPa 0,0 l/m 8,0 km/h (2 Bft) S-SW 202 0 min 0,000 mm 0,0 UV-I 0 W/m 10,5 C 11,8 C 11,3 km/h (2 Bft) 91,30 %
27.09.2023 02:38 11,8 C 8,9 C 12,2 C 13,9 C 92 % 200 cb 11 cb 1022,3 hPa 0,0 l/m 8,0 km/h (2 Bft) N-NO 22 0 min 0,000 mm 0,0 UV-I 0 W/m 10,5 C 11,8 C 12,9 km/h (3 Bft) 86,96 %
27.09.2023 02:37 11,7 C 8,9 C 12,2 C 13,9 C 92 % 200 cb 11 cb 1022,5 hPa 0,0 l/m 8,0 km/h (2 Bft) O-NO 67 0 min 0,000 mm 0,0 UV-I 0 W/m 10,4 C 11,7 C 12,9 km/h (3 Bft) 91,30 %
27.09.2023 02:36 11,6 C 8,9 C 12,2 C 13,9 C 92 % 200 cb 11 cb 1022,4 hPa 0,0 l/m 1,6 km/h (1 Bft) W-SW 247 0 min 0,000 mm 0,0 UV-I 0 W/m 10,3 C 11,6 C 3,2 km/h (1 Bft) 91,30 %
27.09.2023 02:35 11,7 C 8,9 C 12,2 C 13,9 C 91 % 200 cb 11 cb 1022,3 hPa 0,0 l/m 0,0 km/h (0 Bft) W 270 0 min 0,000 mm 0,0 UV-I 0 W/m 10,3 C 11,7 C 1,6 km/h (1 Bft) 86,96 %
27.09.2023 02:34 11,8 C 8,9 C 12,2 C 13,9 C 91 % 200 cb 11 cb 1022,3 hPa 0,0 l/m 4,8 km/h (1 Bft) NO 45 0 min 0,000 mm 0,0 UV-I 0 W/m 10,4 C 11,8 C 11,3 km/h (2 Bft) 86,96 %
27.09.2023 02:33 11,9 C 8,9 C 12,2 C 13,9 C 91 % 200 cb 11 cb 1022,5 hPa 0,0 l/m 11,3 km/h (2 Bft) NO 45 0 min 0,000 mm 0,0 UV-I 0 W/m 10,5 C 11,9 C 14,5 km/h (3 Bft) 91,30 %
27.09.2023 02:32 11,9 C 8,9 C 12,2 C 13,9 C 91 % 200 cb 11 cb 1022,5 hPa 0,0 l/m 8,0 km/h (2 Bft) N-NO 22 0 min 0,000 mm 0,0 UV-I 0 W/m 10,5 C 11,9 C 11,3 km/h (2 Bft) 86,96 %
27.09.2023 02:31 12,0 C 8,9 C 12,2 C 13,9 C 91 % 200 cb 11 cb 1022,5 hPa 0,0 l/m 3,2 km/h (1 Bft) N-NW 337 0 min 0,000 mm 0,0 UV-I 0 W/m 10,6 C 12,0 C 4,8 km/h (1 Bft) 86,96 %
27.09.2023 02:30 12,1 C 8,9 C 12,2 C 13,9 C 91 % 200 cb 11 cb 1022,5 hPa 0,0 l/m 1,6 km/h (1 Bft) W 270 0 min 0,000 mm 0,0 UV-I 0 W/m 10,7 C 12,1 C 3,2 km/h (1 Bft) 91,30 %
27.09.2023 02:29 12,1 C 8,9 C 12,2 C 13,9 C 92 % 200 cb 11 cb 1022,4 hPa 0,0 l/m 1,6 km/h (1 Bft) N-NO 22 0 min 0,000 mm 0,0 UV-I 0 W/m 10,8 C 12,1 C 3,2 km/h (1 Bft) 86,96 %
27.09.2023 02:28 12,1 C 9,4 C 12,2 C 13,9 C 91 % 200 cb 11 cb 1022,5 hPa 0,0 l/m 1,6 km/h (1 Bft) W-NW 292 0 min 0,000 mm 0,0 UV-I 0 W/m 10,7 C 12,1 C 3,2 km/h (1 Bft) 91,30 %
27.09.2023 02:27 12,0 C 9,4 C 12,2 C 13,9 C 92 % 200 cb 11 cb 1022,4 hPa 0,0 l/m 0,0 km/h (0 Bft) SW 225 0 min 0,000 mm 0,0 UV-I 0 W/m 10,7 C 12,0 C 1,6 km/h (1 Bft) 91,30 %
27.09.2023 02:26 11,9 C 9,4 C 12,2 C 13,9 C 92 % 200 cb 11 cb 1022,4 hPa 0,0 l/m 1,6 km/h (1 Bft) N-NW 337 0 min 0,000 mm 0,0 UV-I 0 W/m 10,6 C 11,9 C 1,6 km/h (1 Bft) 86,96 %
27.09.2023 02:25 11,9 C 10,0 C 12,2 C 13,9 C 91 % 200 cb 11 cb 1022,5 hPa 0,0 l/m 3,2 km/h (1 Bft) SW 225 0 min 0,000 mm 0,0 UV-I 0 W/m 10,5 C 11,9 C 6,4 km/h (2 Bft) 91,30 %
27.09.2023 02:24 11,9 C 10,0 C 12,2 C 13,9 C 92 % 200 cb 11 cb 1022,4 hPa 0,0 l/m 6,4 km/h (2 Bft) SO 135 0 min 0,000 mm 0,0 UV-I 0 W/m 10,6 C 11,9 C 24,1 km/h (4 Bft) 86,96 %
27.09.2023 02:23 11,9 C 9,4 C 12,8 C 13,9 C 92 % 200 cb 11 cb 1022,5 hPa 0,0 l/m 14,5 km/h (3 Bft) N-NO 22 0 min 0,000 mm 0,0 UV-I 0 W/m 10,6 C 11,9 C 24,1 km/h (4 Bft) 91,30 %
27.09.2023 02:22 11,7 C 10,0 C 12,8 C 13,9 C 91 % 200 cb 11 cb 1022,5 hPa 0,0 l/m 14,5 km/h (3 Bft) N-NO 22 0 min 0,000 mm 0,0 UV-I 0 W/m 10,3 C 11,7 C 16,1 km/h (3 Bft) 91,30 %
27.09.2023 02:21 11,8 C 10,0 C 12,8 C 13,9 C 90 % 200 cb 11 cb 1022,4 hPa 0,0 l/m 12,9 km/h (3 Bft) N-NO 22 0 min 0,000 mm 0,0 UV-I 0 W/m 10,2 C 11,8 C 16,1 km/h (3 Bft) 91,30 %
27.09.2023 02:20 11,9 C 10,0 C 12,8 C 13,9 C 90 % 200 cb 11 cb 1022,5 hPa 0,0 l/m 9,7 km/h (2 Bft) N-NO 22 0 min 0,000 mm 0,0 UV-I 0 W/m 10,3 C 11,9 C 12,9 km/h (3 Bft) 91,30 %
27.09.2023 02:19 12,2 C 10,0 C 12,8 C 13,9 C 89 % 200 cb 11 cb 1022,5 hPa 0,0 l/m 8,0 km/h (2 Bft) N 360 0 min 0,000 mm 0,0 UV-I 0 W/m 10,4 C 12,2 C 11,3 km/h (2 Bft) 86,96 %
27.09.2023 02:18 12,4 C 10,0 C 12,8 C 13,9 C 88 % 200 cb 11 cb 1022,5 hPa 0,0 l/m 9,7 km/h (2 Bft) N 360 0 min 0,000 mm 0,0 UV-I 0 W/m 10,5 C 12,4 C 11,3 km/h (2 Bft) 78,26 %
27.09.2023 02:17 12,7 C 10,0 C 12,8 C 13,9 C 88 % 200 cb 11 cb 1022,5 hPa 0,0 l/m 6,4 km/h (2 Bft) N 360 0 min 0,000 mm 0,0 UV-I 0 W/m 10,8 C 12,7 C 9,7 km/h (2 Bft) 82,61 %
27.09.2023 02:16 12,7 C 10,0 C 12,8 C 13,9 C 87 % 200 cb 11 cb 1022,5 hPa 0,0 l/m 4,8 km/h (1 Bft) NW 315 0 min 0,000 mm 0,0 UV-I 0 W/m 10,6 C 12,7 C 6,4 km/h (2 Bft) 86,96 %
27.09.2023 02:15 13,1 C 10,6 C 12,8 C 13,9 C 86 % 200 cb 11 cb 1022,5 hPa 0,0 l/m 4,8 km/h (1 Bft) W 270 0 min 0,000 mm 0,0 UV-I 0 W/m 10,8 C 13,1 C 6,4 km/h (2 Bft) 86,96 %
27.09.2023 02:14 13,4 C 10,6 C 12,8 C 13,9 C 86 % 200 cb 11 cb 1022,5 hPa 0,0 l/m 4,8 km/h (1 Bft) NO 45 0 min 0,000 mm 0,0 UV-I 0 W/m 11,1 C 13,4 C 6,4 km/h (2 Bft) 91,30 %
27.09.2023 02:13 13,7 C 10,6 C 12,8 C 13,9 C 85 % 200 cb 11 cb 1022,5 hPa 0,0 l/m 4,8 km/h (1 Bft) N-NO 22 0 min 0,000 mm 0,0 UV-I 0 W/m 11,2 C 13,7 C 6,4 km/h (2 Bft) 82,61 %
27.09.2023 02:12 14,0 C 10,6 C 12,8 C 13,9 C 83 % 200 cb 11 cb 1022,5 hPa 0,0 l/m 3,2 km/h (1 Bft) N-NO 22 0 min 0,000 mm 0,0 UV-I 0 W/m 11,2 C 14,0 C 6,4 km/h (2 Bft) 91,30 %
27.09.2023 02:11 14,7 C 10,6 C 12,8 C 13,9 C 81 % 200 cb 11 cb 1022,5 hPa 0,0 l/m 1,6 km/h (1 Bft) W-SW 247 0 min 0,000 mm 0,0 UV-I 0 W/m 11,5 C 14,7 C 3,2 km/h (1 Bft) 86,96 %
27.09.2023 02:10 15,6 C 11,1 C 12,8 C 13,9 C 80 % 200 cb 11 cb 1022,4 hPa 0,0 l/m 1,6 km/h (1 Bft) O 90 0 min 0,000 mm 0,0 UV-I 0 W/m 12,2 C 15,6 C 4,8 km/h (1 Bft) 86,96 %
27.09.2023 02:09 15,7 C 11,1 C 12,8 C 13,9 C 84 % 200 cb 11 cb 1022,4 hPa 0,0 l/m 6,4 km/h (2 Bft) S 180 0 min 0,000 mm 0,0 UV-I 0 W/m 13,0 C 15,7 C 11,3 km/h (2 Bft) 91,30 %
27.09.2023 02:08 14,9 C 10,6 C 12,8 C 13,9 C 87 % 200 cb 11 cb 1022,5 hPa 0,0 l/m 9,7 km/h (2 Bft) SW 225 0 min 0,000 mm 0,0 UV-I 0 W/m 12,8 C 14,9 C 17,7 km/h (3 Bft) 86,96 %
27.09.2023 02:07 14,4 C 10,6 C 12,8 C 13,9 C 88 % 200 cb 11 cb 1022,4 hPa 0,0 l/m 8,0 km/h (2 Bft) SO 135 0 min 0,000 mm 0,0 UV-I 0 W/m 12,4 C 14,4 C 16,1 km/h (3 Bft) 78,26 %
27.09.2023 02:06 13,9 C 10,0 C 12,8 C 13,9 C 88 % 200 cb 11 cb 1022,5 hPa 0,0 l/m 9,7 km/h (2 Bft) O-SO 112 0 min 0,000 mm 0,0 UV-I 0 W/m 11,9 C 13,9 C 19,3 km/h (3 Bft) 91,30 %
27.09.2023 02:05 13,6 C 10,0 C 12,8 C 13,9 C 86 % 200 cb 11 cb 1022,5 hPa 0,0 l/m 4,8 km/h (1 Bft) W 270 0 min 0,000 mm 0,0 UV-I 0 W/m 11,3 C 13,6 C 9,7 km/h (2 Bft) 86,96 %
27.09.2023 02:04 13,9 C 10,0 C 12,8 C 13,9 C 85 % 200 cb 11 cb 1022,4 hPa 0,0 l/m 4,8 km/h (1 Bft) NO 45 0 min 0,000 mm 0,0 UV-I 0 W/m 11,4 C 13,9 C 8,0 km/h (2 Bft) 86,96 %
27.09.2023 02:03 14,4 C 10,6 C 12,8 C 13,9 C 85 % 200 cb 11 cb 1022,6 hPa 0,0 l/m 3,2 km/h (1 Bft) S 180 0 min 0,000 mm 0,0 UV-I 0 W/m 11,9 C 14,4 C 6,4 km/h (2 Bft) 86,96 %
27.09.2023 02:02 14,8 C 10,6 C 12,8 C 13,9 C 84 % 200 cb 11 cb 1022,6 hPa 0,0 l/m 1,6 km/h (1 Bft) W-NW 292 0 min 0,000 mm 0,0 UV-I 0 W/m 12,1 C 14,8 C 3,2 km/h (1 Bft) 86,96 %
27.09.2023 02:01 15,2 C 10,6 C 12,8 C 13,9 C 85 % 200 cb 11 cb 1022,5 hPa 0,0 l/m 3,2 km/h (1 Bft) O 90 0 min 0,000 mm 0,0 UV-I 0 W/m 12,7 C 15,2 C 6,4 km/h (2 Bft) 86,96 %
27.09.2023 02:00 14,7 C 10,0 C 12,8 C 13,9 C 87 % 200 cb 11 cb 1022,6 hPa 0,0 l/m 6,4 km/h (2 Bft) O 90 0 min 0,000 mm 0,0 UV-I 0 W/m 12,6 C 14,7 C 12,9 km/h (3 Bft) 95,65 %
27.09.2023 01:59 14,3 C 10,0 C 12,8 C 13,9 C 87 % 200 cb 11 cb 1022,6 hPa 0,0 l/m 4,8 km/h (1 Bft) O 90 0 min 0,000 mm 0,0 UV-I 0 W/m 12,2 C 14,3 C 9,7 km/h (2 Bft) 95,65 %
27.09.2023 01:58 14,2 C 9,4 C 12,8 C 13,9 C 87 % 200 cb 11 cb 1022,7 hPa 0,0 l/m 4,8 km/h (1 Bft) S-SW 202 0 min 0,000 mm 0,0 UV-I 0 W/m 12,1 C 14,2 C 9,7 km/h (2 Bft) 95,65 %
27.09.2023 01:57 14,3 C 9,4 C 12,8 C 13,9 C 86 % 200 cb 11 cb 1022,7 hPa 0,0 l/m 6,4 km/h (2 Bft) W-SW 247 0 min 0,000 mm 0,0 UV-I 0 W/m 12,0 C 14,3 C 8,0 km/h (2 Bft) 95,65 %
27.09.2023 01:56 14,5 C 9,4 C 12,8 C 13,9 C 87 % 200 cb 11 cb 1022,7 hPa 0,0 l/m 8,0 km/h (2 Bft) O-SO 112 0 min 0,000 mm 0,0 UV-I 0 W/m 12,4 C 14,5 C 11,3 km/h (2 Bft) 91,30 %
27.09.2023 01:55 14,3 C 9,4 C 12,2 C 13,9 C 89 % 200 cb 11 cb 1022,7 hPa 0,0 l/m 6,4 km/h (2 Bft) O-SO 112 0 min 0,000 mm 0,0 UV-I 0 W/m 12,5 C 14,3 C 9,7 km/h (2 Bft) 95,65 %
27.09.2023 01:54 14,0 C 9,4 C 12,2 C 13,9 C 89 % 200 cb 11 cb 1022,7 hPa 0,0 l/m 6,4 km/h (2 Bft) NO 45 0 min 0,000 mm 0,0 UV-I 0 W/m 12,2 C 14,0 C 12,9 km/h (3 Bft) 91,30 %
27.09.2023 01:53 13,8 C 9,4 C 12,2 C 13,9 C 89 % 200 cb 11 cb 1022,7 hPa 0,0 l/m 4,8 km/h (1 Bft) O-SO 112 0 min 0,000 mm 0,0 UV-I 0 W/m 12,0 C 13,8 C 9,7 km/h (2 Bft) 91,30 %
27.09.2023 01:52 13,7 C 9,4 C 12,2 C 13,9 C 89 % 200 cb 11 cb 1022,7 hPa 0,0 l/m 6,4 km/h (2 Bft) S-SO 157 0 min 0,000 mm 0,0 UV-I 0 W/m 11,9 C 13,7 C 19,3 km/h (3 Bft) 91,30 %
27.09.2023 01:51 13,6 C 9,4 C 12,2 C 13,9 C 90 % 200 cb 11 cb 1022,7 hPa 0,0 l/m 3,2 km/h (1 Bft) O-NO 67 0 min 0,000 mm 0,0 UV-I 0 W/m 12,0 C 13,6 C 14,5 km/h (3 Bft) 86,96 %
27.09.2023 01:50 13,5 C 8,9 C 12,2 C 13,9 C 90 % 200 cb 11 cb 1022,8 hPa 0,0 l/m 8,0 km/h (2 Bft) O-SO 112 0 min 0,000 mm 0,0 UV-I 0 W/m 11,9 C 13,5 C 19,3 km/h (3 Bft) 95,65 %
27.09.2023 01:49 13,3 C 8,9 C 12,2 C 13,9 C 91 % 200 cb 11 cb 1022,8 hPa 0,0 l/m 3,2 km/h (1 Bft) S 180 0 min 0,000 mm 0,0 UV-I 0 W/m 11,9 C 13,3 C 6,4 km/h (2 Bft) 95,65 %
27.09.2023 01:48 13,2 C 8,9 C 12,2 C 13,9 C 92 % 200 cb 11 cb 1022,8 hPa 0,0 l/m 3,2 km/h (1 Bft) S 180 0 min 0,000 mm 0,0 UV-I 0 W/m 11,9 C 13,2 C 6,4 km/h (2 Bft) 91,30 %
27.09.2023 01:47 12,8 C 8,3 C 12,2 C 13,9 C 92 % 200 cb 11 cb 1022,7 hPa 0,0 l/m 4,8 km/h (1 Bft) S-SW 202 0 min 0,000 mm 0,0 UV-I 0 W/m 11,5 C 12,8 C 8,0 km/h (2 Bft) 95,65 %
27.09.2023 01:46 12,7 C 8,3 C 12,2 C 13,9 C 92 % 200 cb 11 cb 1022,8 hPa 0,0 l/m 3,2 km/h (1 Bft) W 270 0 min 0,000 mm 0,0 UV-I 0 W/m 11,4 C 12,7 C 9,7 km/h (2 Bft) 95,65 %
27.09.2023 01:45 12,6 C 8,9 C 12,2 C 13,9 C 92 % 200 cb 11 cb 1022,8 hPa 0,0 l/m 4,8 km/h (1 Bft) O-SO 112 0 min 0,000 mm 0,0 UV-I 0 W/m 11,3 C 12,6 C 8,0 km/h (2 Bft) 91,30 %
27.09.2023 01:44 12,6 C 8,3 C 12,2 C 13,9 C 91 % 200 cb 11 cb 1022,9 hPa 0,0 l/m 4,8 km/h (1 Bft) S-SO 157 0 min 0,000 mm 0,0 UV-I 0 W/m 11,2 C 12,6 C 9,7 km/h (2 Bft) 91,30 %
27.09.2023 01:43 12,6 C 8,3 C 12,2 C 13,9 C 91 % 200 cb 11 cb 1022,8 hPa 0,0 l/m 9,7 km/h (2 Bft) S 180 0 min 0,000 mm 0,0 UV-I 0 W/m 11,2 C 12,6 C 11,3 km/h (2 Bft) 91,30 %
27.09.2023 01:42 12,7 C 8,3 C 12,2 C 13,9 C 90 % 200 cb 11 cb 1022,9 hPa 0,0 l/m 4,8 km/h (1 Bft) S-SW 202 0 min 0,000 mm 0,0 UV-I 0 W/m 11,1 C 12,7 C 6,4 km/h (2 Bft) 95,65 %
27.09.2023 01:41 12,9 C 8,3 C 12,2 C 13,9 C 92 % 200 cb 11 cb 1022,9 hPa 0,0 l/m 6,4 km/h (2 Bft) S-SW 202 0 min 0,000 mm 0,0 UV-I 0 W/m 11,6 C 12,9 C 9,7 km/h (2 Bft) 95,65 %
27.09.2023 01:40 12,9 C 8,3 C 12,2 C 13,9 C 93 % 200 cb 11 cb 1022,8 hPa 0,0 l/m 3,2 km/h (1 Bft) O-SO 112 0 min 0,000 mm 0,0 UV-I 0 W/m 11,8 C 12,9 C 6,4 km/h (2 Bft) 91,30 %
27.09.2023 01:39 12,6 C 8,3 C 12,2 C 13,9 C 94 % 200 cb 11 cb 1022,9 hPa 0,0 l/m 4,8 km/h (1 Bft) O-SO 112 0 min 0,000 mm 0,0 UV-I 0 W/m 11,7 C 12,6 C 8,0 km/h (2 Bft) 95,65 %
27.09.2023 01:38 12,3 C 7,8 C 12,2 C 13,9 C 94 % 200 cb 11 cb 1022,9 hPa 0,0 l/m 3,2 km/h (1 Bft) SW 225 0 min 0,000 mm 0,0 UV-I 0 W/m 11,4 C 12,3 C 4,8 km/h (1 Bft) 95,65 %
27.09.2023 01:37 11,9 C 7,8 C 12,2 C 13,9 C 94 % 200 cb 11 cb 1022,9 hPa 0,0 l/m 1,6 km/h (1 Bft) SO 135 0 min 0,000 mm 0,0 UV-I 0 W/m 11,0 C 11,9 C 3,2 km/h (1 Bft) 95,65 %
27.09.2023 01:36 11,8 C 7,8 C 12,2 C 13,9 C 95 % 200 cb 11 cb 1022,9 hPa 0,0 l/m 3,2 km/h (1 Bft) NO 45 0 min 0,000 mm 0,0 UV-I 0 W/m 11,0 C 11,8 C 4,8 km/h (1 Bft) 95,65 %
27.09.2023 01:35 11,4 C 7,8 C 12,2 C 13,9 C 94 % 200 cb 11 cb 1022,9 hPa 0,0 l/m 1,6 km/h (1 Bft) O 90 0 min 0,000 mm 0,0 UV-I 0 W/m 10,5 C 11,4 C 1,6 km/h (1 Bft) 86,96 %
27.09.2023 01:34 11,3 C 7,8 C 12,2 C 13,9 C 94 % 200 cb 11 cb 1022,9 hPa 0,0 l/m 4,8 km/h (1 Bft) SW 225 0 min 0,000 mm 0,0 UV-I 0 W/m 10,4 C 11,3 C 6,4 km/h (2 Bft) 86,96 %
27.09.2023 01:33 11,3 C 7,8 C 12,2 C 13,9 C 94 % 200 cb 11 cb 1022,9 hPa 0,0 l/m 3,2 km/h (1 Bft) O-SO 112 0 min 0,000 mm 0,0 UV-I 0 W/m 10,4 C 11,3 C 6,4 km/h (2 Bft) 95,65 %
27.09.2023 01:32 11,3 C 7,8 C 12,2 C 13,9 C 95 % 200 cb 11 cb 1023,0 hPa 0,0 l/m 1,6 km/h (1 Bft) S-SO 157 0 min 0,000 mm 0,0 UV-I 0 W/m 10,5 C 11,3 C 4,8 km/h (1 Bft) 91,30 %
27.09.2023 01:31 11,2 C 7,8 C 12,2 C 13,9 C 95 % 200 cb 11 cb 1023,0 hPa 0,0 l/m 4,8 km/h (1 Bft) O 90 0 min 0,000 mm 0,0 UV-I 0 W/m 10,4 C 11,2 C 8,0 km/h (2 Bft) 91,30 %
27.09.2023 01:30 11,1 C 7,8 C 12,2 C 13,9 C 95 % 200 cb 11 cb 1022,9 hPa 0,0 l/m 4,8 km/h (1 Bft) O-SO 112 0 min 0,000 mm 0,0 UV-I 0 W/m 10,3 C 11,1 C 6,4 km/h (2 Bft) 95,65 %
27.09.2023 01:29 11,0 C 7,8 C 12,2 C 13,9 C 95 % 200 cb 11 cb 1022,9 hPa 0,0 l/m 1,6 km/h (1 Bft) SO 135 0 min 0,000 mm 0,0 UV-I 0 W/m 10,2 C 11,0 C 4,8 km/h (1 Bft) 91,30 %
27.09.2023 01:28 10,9 C 7,8 C 12,2 C 13,9 C 95 % 200 cb 11 cb 1023,0 hPa 0,0 l/m 6,4 km/h (2 Bft) N-NO 22 0 min 0,000 mm 0,0 UV-I 0 W/m 10,1 C 10,9 C 9,7 km/h (2 Bft) 91,30 %
27.09.2023 01:27 10,8 C 7,8 C 12,2 C 13,9 C 95 % 200 cb 11 cb 1023,0 hPa 0,0 l/m 1,6 km/h (1 Bft) NO 45 0 min 0,000 mm 0,0 UV-I 0 W/m 10,0 C 10,8 C 4,8 km/h (1 Bft) 95,65 %
27.09.2023 01:26 10,8 C 7,8 C 12,2 C 13,9 C 94 % 200 cb 11 cb 1023,0 hPa 0,0 l/m 1,6 km/h (1 Bft) W-NW 292 0 min 0,000 mm 0,0 UV-I 0 W/m 9,9 C 10,8 C 3,2 km/h (1 Bft) 95,65 %
27.09.2023 01:25 10,9 C 7,8 C 12,2 C 13,9 C 95 % 200 cb 11 cb 1022,9 hPa 0,0 l/m 3,2 km/h (1 Bft) S-SW 202 0 min 0,000 mm 0,0 UV-I 0 W/m 10,1 C 10,9 C 11,3 km/h (2 Bft) 86,96 %
27.09.2023 01:24 10,7 C 7,2 C 12,2 C 13,9 C 95 % 200 cb 11 cb 1023,0 hPa 0,0 l/m 9,7 km/h (2 Bft) O 90 0 min 0,000 mm 0,0 UV-I 0 W/m 9,9 C 10,7 C 11,3 km/h (2 Bft) 95,65 %
27.09.2023 01:23 10,6 C 7,2 C 12,2 C 13,9 C 95 % 200 cb 11 cb 1023,1 hPa 0,0 l/m 4,8 km/h (1 Bft) O-SO 112 0 min 0,000 mm 0,0 UV-I 0 W/m 9,8 C 10,6 C 9,7 km/h (2 Bft) 91,30 %
27.09.2023 01:22 10,5 C 7,2 C 12,2 C 13,9 C 95 % 200 cb 11 cb 1023,0 hPa 0,0 l/m 6,4 km/h (2 Bft) O 90 0 min 0,000 mm 0,0 UV-I 0 W/m 9,7 C 10,5 C 9,7 km/h (2 Bft) 95,65 %
27.09.2023 01:21 10,4 C 7,2 C 12,2 C 13,9 C 95 % 200 cb 11 cb 1022,9 hPa 0,0 l/m 6,4 km/h (2 Bft) O-NO 67 0 min 0,000 mm 0,0 UV-I 0 W/m 9,6 C 10,4 C 8,0 km/h (2 Bft) 95,65 %
27.09.2023 01:20 10,3 C 7,2 C 12,2 C 13,9 C 94 % 200 cb 11 cb 1023,0 hPa 0,0 l/m 4,8 km/h (1 Bft) NO 45 0 min 0,000 mm 0,0 UV-I 0 W/m 9,4 C 10,3 C 8,0 km/h (2 Bft) 95,65 %
27.09.2023 01:19 10,4 C 7,2 C 12,2 C 13,9 C 94 % 200 cb 11 cb 1023,1 hPa 0,0 l/m 4,8 km/h (1 Bft) N-NO 22 0 min 0,000 mm 0,0 UV-I 0 W/m 9,5 C 10,4 C 6,4 km/h (2 Bft) 95,65 %
27.09.2023 01:18 10,6 C 7,2 C 12,2 C 13,9 C 95 % 200 cb 11 cb 1022,9 hPa 0,0 l/m 3,2 km/h (1 Bft) W-NW 292 0 min 0,000 mm 0,0 UV-I 0 W/m 9,8 C 10,6 C 4,8 km/h (1 Bft) 86,96 %
27.09.2023 01:17 10,6 C 7,2 C 12,2 C 13,9 C 95 % 200 cb 11 cb 1023,1 hPa 0,0 l/m 1,6 km/h (1 Bft) O 90 0 min 0,000 mm 0,0 UV-I 0 W/m 9,8 C 10,6 C 4,8 km/h (1 Bft) 91,30 %
27.09.2023 01:16 10,5 C 7,2 C 12,2 C 13,9 C 95 % 200 cb 11 cb 1022,9 hPa 0,0 l/m 3,2 km/h (1 Bft) O-SO 112 0 min 0,000 mm 0,0 UV-I 0 W/m 9,7 C 10,5 C 3,2 km/h (1 Bft) 95,65 %
27.09.2023 01:15 10,4 C 7,2 C 12,2 C 13,9 C 94 % 200 cb 11 cb 1023,0 hPa 0,0 l/m 4,8 km/h (1 Bft) SO 135 0 min 0,000 mm 0,0 UV-I 0 W/m 9,5 C 10,4 C 4,8 km/h (1 Bft) 95,65 %
27.09.2023 01:14 10,3 C 7,2 C 12,2 C 13,9 C 93 % 200 cb 11 cb 1023,1 hPa 0,0 l/m 1,6 km/h (1 Bft) O 90 0 min 0,000 mm 0,0 UV-I 0 W/m 9,2 C 10,3 C 4,8 km/h (1 Bft) 95,65 %
27.09.2023 01:13 10,5 C 7,2 C 12,2 C 13,9 C 94 % 200 cb 11 cb 1023,0 hPa 0,0 l/m 1,6 km/h (1 Bft) W 270 0 min 0,000 mm 0,0 UV-I 0 W/m 9,6 C 10,5 C 3,2 km/h (1 Bft) 95,65 %
27.09.2023 01:12 10,8 C 7,2 C 12,2 C 13,9 C 95 % 200 cb 11 cb 1023,0 hPa 0,0 l/m 1,6 km/h (1 Bft) SO 135 0 min 0,000 mm 0,0 UV-I 0 W/m 10,0 C 10,8 C 1,6 km/h (1 Bft) 91,30 %
27.09.2023 01:11 10,7 C 7,2 C 12,2 C 13,9 C 95 % 200 cb 11 cb 1022,9 hPa 0,0 l/m 3,2 km/h (1 Bft) O-SO 112 0 min 0,000 mm 0,0 UV-I 0 W/m 9,9 C 10,7 C 3,2 km/h (1 Bft) 91,30 %
27.09.2023 01:10 10,6 C 7,2 C 12,2 C 13,9 C 95 % 200 cb 11 cb 1023,1 hPa 0,0 l/m 1,6 km/h (1 Bft) SO 135 0 min 0,000 mm 0,0 UV-I 0 W/m 9,8 C 10,6 C 3,2 km/h (1 Bft) 95,65 %
27.09.2023 01:09 10,4 C 7,2 C 12,2 C 13,9 C 95 % 200 cb 11 cb 1022,9 hPa 0,0 l/m 0,0 km/h (0 Bft) O-NO 67 0 min 0,000 mm 0,0 UV-I 0 W/m 9,6 C 10,4 C 1,6 km/h (1 Bft) 95,65 %
27.09.2023 01:08 10,3 C 7,2 C 12,2 C 13,9 C 93 % 200 cb 11 cb 1023,0 hPa 0,0 l/m 1,6 km/h (1 Bft) W 270 0 min 0,000 mm 0,0 UV-I 0 W/m 9,2 C 10,3 C 3,2 km/h (1 Bft) 91,30 %
27.09.2023 01:07 10,7 C 7,2 C 12,2 C 13,9 C 95 % 200 cb 11 cb 1023,0 hPa 0,0 l/m 3,2 km/h (1 Bft) S 180 0 min 0,000 mm 0,0 UV-I 0 W/m 9,9 C 10,7 C 4,8 km/h (1 Bft) 86,96 %
27.09.2023 01:06 10,8 C 7,2 C 12,2 C 13,9 C 94 % 200 cb 11 cb 1022,9 hPa 0,0 l/m 3,2 km/h (1 Bft) SO 135 0 min 0,000 mm 0,0 UV-I 0 W/m 9,9 C 10,8 C 3,2 km/h (1 Bft) 91,30 %
27.09.2023 01:05 10,8 C 7,2 C 12,2 C 13,9 C 95 % 200 cb 11 cb 1023,0 hPa 0,0 l/m 1,6 km/h (1 Bft) O 90 0 min 0,000 mm 0,0 UV-I 0 W/m 10,0 C 10,8 C 3,2 km/h (1 Bft) 95,65 %
27.09.2023 01:04 10,7 C 7,2 C 12,2 C 13,9 C 94 % 200 cb 11 cb 1023,0 hPa 0,0 l/m 3,2 km/h (1 Bft) SW 225 0 min 0,000 mm 0,0 UV-I 0 W/m 9,8 C 10,7 C 4,8 km/h (1 Bft) 91,30 %
27.09.2023 01:03 10,8 C 7,2 C 12,2 C 13,9 C 94 % 200 cb 11 cb 1023,0 hPa 0,0 l/m 4,8 km/h (1 Bft) S-SW 202 0 min 0,000 mm 0,0 UV-I 0 W/m 9,9 C 10,8 C 4,8 km/h (1 Bft) 91,30 %
27.09.2023 01:02 10,8 C 7,2 C 12,2 C 13,9 C 95 % 200 cb 11 cb 1022,9 hPa 0,0 l/m 3,2 km/h (1 Bft) SO 135 0 min 0,000 mm 0,0 UV-I 0 W/m 10,0 C 10,8 C 3,2 km/h (1 Bft) 82,61 %
27.09.2023 01:01 10,7 C 7,2 C 12,2 C 13,9 C 94 % 200 cb 11 cb 1023,0 hPa 0,0 l/m 3,2 km/h (1 Bft) O-SO 112 0 min 0,000 mm 0,0 UV-I 0 W/m 9,8 C 10,7 C 4,8 km/h (1 Bft) 86,96 %
27.09.2023 01:00 10,7 C 7,2 C 12,2 C 13,9 C 94 % 200 cb 11 cb 1023,0 hPa 0,0 l/m 1,6 km/h (1 Bft) O-SO 112 0 min 0,000 mm 0,0 UV-I 0 W/m 9,8 C 10,7 C 1,6 km/h (1 Bft) 86,96 %
27.09.2023 00:59 10,7 C 7,2 C 12,2 C 13,9 C 94 % 200 cb 11 cb 1023,1 hPa 0,0 l/m 1,6 km/h (1 Bft) SW 225 0 min 0,000 mm 0,0 UV-I 0 W/m 9,8 C 10,7 C 3,2 km/h (1 Bft) 86,96 %
27.09.2023 00:58 10,7 C 7,8 C 12,2 C 13,9 C 94 % 200 cb 11 cb 1023,1 hPa 0,0 l/m 1,6 km/h (1 Bft) NO 45 0 min 0,000 mm 0,0 UV-I 0 W/m 9,8 C 10,7 C 3,2 km/h (1 Bft) 95,65 %
27.09.2023 00:57 10,8 C 7,2 C 12,2 C 13,9 C 94 % 200 cb 11 cb 1023,0 hPa 0,0 l/m 1,6 km/h (1 Bft) W 270 0 min 0,000 mm 0,0 UV-I 0 W/m 9,9 C 10,8 C 3,2 km/h (1 Bft) 82,61 %
27.09.2023 00:56 11,1 C 7,8 C 12,2 C 13,9 C 95 % 200 cb 11 cb 1023,0 hPa 0,0 l/m 3,2 km/h (1 Bft) O 90 0 min 0,000 mm 0,0 UV-I 0 W/m 10,3 C 11,1 C 4,8 km/h (1 Bft) 86,96 %
27.09.2023 00:55 11,1 C 7,8 C 12,2 C 13,9 C 95 % 200 cb 11 cb 1023,0 hPa 0,0 l/m 4,8 km/h (1 Bft) O 90 0 min 0,000 mm 0,0 UV-I 0 W/m 10,3 C 11,1 C 4,8 km/h (1 Bft) 82,61 %
27.09.2023 00:54 10,9 C 7,8 C 12,2 C 13,9 C 95 % 200 cb 11 cb 1023,0 hPa 0,0 l/m 3,2 km/h (1 Bft) O 90 0 min 0,000 mm 0,0 UV-I 0 W/m 10,1 C 10,9 C 4,8 km/h (1 Bft) 91,30 %
27.09.2023 00:53 10,8 C 7,8 C 12,2 C 13,9 C 94 % 200 cb 11 cb 1023,0 hPa 0,0 l/m 3,2 km/h (1 Bft) O 90 0 min 0,000 mm 0,0 UV-I 0 W/m 9,9 C 10,8 C 4,8 km/h (1 Bft) 73,91 %
27.09.2023 00:52 10,8 C 7,8 C 12,2 C 13,9 C 94 % 200 cb 11 cb 1023,0 hPa 0,0 l/m 1,6 km/h (1 Bft) N-NW 337 0 min 0,000 mm 0,0 UV-I 0 W/m 9,9 C 10,8 C 3,2 km/h (1 Bft) 91,30 %
27.09.2023 00:51 11,0 C 7,8 C 12,2 C 13,9 C 94 % 200 cb 11 cb 1023,0 hPa 0,0 l/m 3,2 km/h (1 Bft) W-NW 292 0 min 0,000 mm 0,0 UV-I 0 W/m 10,1 C 11,0 C 4,8 km/h (1 Bft) 91,30 %
27.09.2023 00:50 11,2 C 7,8 C 12,2 C 13,9 C 95 % 200 cb 11 cb 1023,1 hPa 0,0 l/m 3,2 km/h (1 Bft) O-SO 112 0 min 0,000 mm 0,0 UV-I 0 W/m 10,4 C 11,2 C 4,8 km/h (1 Bft) 91,30 %
27.09.2023 00:49 11,3 C 7,2 C 12,2 C 13,9 C 96 % 200 cb 11 cb 1023,0 hPa 0,0 l/m 6,4 km/h (2 Bft) O-SO 112 0 min 0,000 mm 0,0 UV-I 0 W/m 10,7 C 11,3 C 8,0 km/h (2 Bft) 91,30 %
27.09.2023 00:48 11,2 C 6,7 C 12,2 C 13,9 C 96 % 200 cb 11 cb 1022,9 hPa 0,0 l/m 6,4 km/h (2 Bft) O-SO 112 0 min 0,000 mm 0,0 UV-I 0 W/m 10,6 C 11,2 C 8,0 km/h (2 Bft) 91,30 %
27.09.2023 00:47 10,9 C 6,7 C 12,2 C 13,9 C 95 % 200 cb 11 cb 1023,0 hPa 0,0 l/m 1,6 km/h (1 Bft) SO 135 0 min 0,000 mm 0,0 UV-I 0 W/m 10,1 C 10,9 C 4,8 km/h (1 Bft) 91,30 %
27.09.2023 00:46 10,7 C 6,7 C 12,2 C 13,9 C 94 % 200 cb 11 cb 1023,1 hPa 0,0 l/m 3,2 km/h (1 Bft) W-SW 247 0 min 0,000 mm 0,0 UV-I 0 W/m 9,8 C 10,7 C 4,8 km/h (1 Bft) 95,65 %
27.09.2023 00:45 10,6 C 6,7 C 12,2 C 13,9 C 94 % 200 cb 11 cb 1023,1 hPa 0,0 l/m 4,8 km/h (1 Bft) W-SW 247 0 min 0,000 mm 0,0 UV-I 0 W/m 9,7 C 10,6 C 6,4 km/h (2 Bft) 91,30 %
27.09.2023 00:44 10,7 C 6,7 C 12,2 C 13,9 C 95 % 200 cb 11 cb 1023,0 hPa 0,0 l/m 3,2 km/h (1 Bft) SW 225 0 min 0,000 mm 0,0 UV-I 0 W/m 9,9 C 10,7 C 4,8 km/h (1 Bft) 91,30 %
27.09.2023 00:43 10,6 C 6,7 C 12,2 C 13,9 C 95 % 200 cb 11 cb 1023,0 hPa 0,0 l/m 4,8 km/h (1 Bft) O-SO 112 0 min 0,000 mm 0,0 UV-I 0 W/m 9,8 C 10,6 C 6,4 km/h (2 Bft) 95,65 %
27.09.2023 00:42 10,6 C 6,7 C 12,2 C 13,9 C 94 % 200 cb 11 cb 1023,0 hPa 0,0 l/m 4,8 km/h (1 Bft) O 90 0 min 0,000 mm 0,0 UV-I 0 W/m 9,7 C 10,6 C 6,4 km/h (2 Bft) 91,30 %
27.09.2023 00:41 10,7 C 6,7 C 12,2 C 13,9 C 94 % 200 cb 11 cb 1023,1 hPa 0,0 l/m 1,6 km/h (1 Bft) O-SO 112 0 min 0,000 mm 0,0 UV-I 0 W/m 9,8 C 10,7 C 3,2 km/h (1 Bft) 91,30 %
27.09.2023 00:40 10,8 C 6,7 C 12,2 C 13,9 C 95 % 200 cb 11 cb 1023,1 hPa 0,0 l/m 0,0 km/h (0 Bft) S 180 0 min 0,000 mm 0,0 UV-I 0 W/m 10,0 C 10,8 C 1,6 km/h (1 Bft) 95,65 %
27.09.2023 00:39 10,8 C 6,7 C 12,2 C 13,9 C 95 % 200 cb 11 cb 1023,1 hPa 0,0 l/m 3,2 km/h (1 Bft) SO 135 0 min 0,000 mm 0,0 UV-I 0 W/m 10,0 C 10,8 C 4,8 km/h (1 Bft) 91,30 %
27.09.2023 00:38 10,7 C 6,7 C 12,2 C 13,9 C 95 % 200 cb 11 cb 1023,1 hPa 0,0 l/m 4,8 km/h (1 Bft) O-SO 112 0 min 0,000 mm 0,0 UV-I 0 W/m 9,9 C 10,7 C 6,4 km/h (2 Bft) 95,65 %
27.09.2023 00:37 10,7 C 6,7 C 12,2 C 13,9 C 95 % 200 cb 11 cb 1023,0 hPa 0,0 l/m 4,8 km/h (1 Bft) O 90 0 min 0,000 mm 0,0 UV-I 0 W/m 9,9 C 10,7 C 4,8 km/h (1 Bft) 95,65 %
27.09.2023 00:36 10,8 C 6,7 C 12,2 C 13,9 C 95 % 200 cb 11 cb 1023,0 hPa 0,0 l/m 1,6 km/h (1 Bft) O 90 0 min 0,000 mm 0,0 UV-I 0 W/m 10,0 C 10,8 C 4,8 km/h (1 Bft) 86,96 %
27.09.2023 00:35 10,7 C 6,7 C 12,2 C 13,9 C 95 % 200 cb 11 cb 1023,1 hPa 0,0 l/m 3,2 km/h (1 Bft) W 270 0 min 0,000 mm 0,0 UV-I 0 W/m 9,9 C 10,7 C 4,8 km/h (1 Bft) 95,65 %
27.09.2023 00:34 10,6 C 6,7 C 12,2 C 13,9 C 95 % 200 cb 11 cb 1023,1 hPa 0,0 l/m 4,8 km/h (1 Bft) W-NW 292 0 min 0,000 mm 0,0 UV-I 0 W/m 9,8 C 10,6 C 4,8 km/h (1 Bft) 82,61 %
27.09.2023 00:33 10,6 C 6,7 C 12,2 C 13,9 C 95 % 200 cb 11 cb 1023,0 hPa 0,0 l/m 4,8 km/h (1 Bft) NW 315 0 min 0,000 mm 0,0 UV-I 0 W/m 9,8 C 10,6 C 6,4 km/h (2 Bft) 91,30 %
27.09.2023 00:32 10,6 C 6,7 C 12,2 C 13,9 C 95 % 200 cb 11 cb 1023,0 hPa 0,0 l/m 4,8 km/h (1 Bft) W 270 0 min 0,000 mm 0,0 UV-I 0 W/m 9,8 C 10,6 C 6,4 km/h (2 Bft) 95,65 %
27.09.2023 00:31 10,3 C 6,7 C 12,2 C 13,9 C 94 % 200 cb 11 cb 1023,0 hPa 0,0 l/m 4,8 km/h (1 Bft) W-SW 247 0 min 0,000 mm 0,0 UV-I 0 W/m 9,4 C 10,3 C 6,4 km/h (2 Bft) 91,30 %
27.09.2023 00:30 10,6 C 6,7 C 12,2 C 13,9 C 95 % 200 cb 11 cb 1023,0 hPa 0,0 l/m 3,2 km/h (1 Bft) O-SO 112 0 min 0,000 mm 0,0 UV-I 0 W/m 9,8 C 10,6 C 6,4 km/h (2 Bft) 95,65 %
27.09.2023 00:29 10,7 C 6,7 C 12,2 C 13,9 C 95 % 200 cb 11 cb 1023,0 hPa 0,0 l/m 4,8 km/h (1 Bft) O-SO 112 0 min 0,000 mm 0,0 UV-I 0 W/m 9,9 C 10,7 C 6,4 km/h (2 Bft) 95,65 %
27.09.2023 00:28 10,6 C 6,7 C 12,2 C 13,9 C 95 % 200 cb 11 cb 1023,0 hPa 0,0 l/m 6,4 km/h (2 Bft) O 90 0 min 0,000 mm 0,0 UV-I 0 W/m 9,8 C 10,6 C 6,4 km/h (2 Bft) 91,30 %
27.09.2023 00:27 10,4 C 6,7 C 12,2 C 13,9 C 95 % 200 cb 11 cb 1023,0 hPa 0,0 l/m 4,8 km/h (1 Bft) O 90 0 min 0,000 mm 0,0 UV-I 0 W/m 9,6 C 10,4 C 6,4 km/h (2 Bft) 95,65 %
27.09.2023 00:26 10,4 C 6,7 C 12,2 C 13,9 C 95 % 200 cb 11 cb 1023,1 hPa 0,0 l/m 3,2 km/h (1 Bft) O 90 0 min 0,000 mm 0,0 UV-I 0 W/m 9,6 C 10,4 C 4,8 km/h (1 Bft) 91,30 %
27.09.2023 00:25 10,4 C 6,7 C 12,2 C 13,9 C 94 % 200 cb 11 cb 1023,0 hPa 0,0 l/m 1,6 km/h (1 Bft) O-NO 67 0 min 0,000 mm 0,0 UV-I 0 W/m 9,5 C 10,4 C 3,2 km/h (1 Bft) 95,65 %
27.09.2023 00:24 10,4 C 6,7 C 12,2 C 13,9 C 94 % 200 cb 11 cb 1023,0 hPa 0,0 l/m 0,0 km/h (0 Bft) W-SW 247 0 min 0,000 mm 0,0 UV-I 0 W/m 9,5 C 10,4 C 1,6 km/h (1 Bft) 95,65 %
27.09.2023 00:23 10,4 C 6,7 C 12,2 C 14,4 C 94 % 200 cb 11 cb 1023,0 hPa 0,0 l/m 1,6 km/h (1 Bft) W-SW 247 0 min 0,000 mm 0,0 UV-I 0 W/m 9,5 C 10,4 C 1,6 km/h (1 Bft) 91,30 %
27.09.2023 00:22 10,4 C 6,7 C 12,2 C 13,9 C 94 % 200 cb 11 cb 1023,0 hPa 0,0 l/m 0,0 km/h (0 Bft) SO 135 0 min 0,000 mm 0,0 UV-I 0 W/m 9,5 C 10,4 C 1,6 km/h (1 Bft) 91,30 %
27.09.2023 00:21 10,4 C 6,7 C 12,2 C 13,9 C 93 % 200 cb 11 cb 1023,0 hPa 0,0 l/m 0,0 km/h (0 Bft) SO 135 0 min 0,000 mm 0,0 UV-I 0 W/m 9,3 C 10,4 C 1,6 km/h (1 Bft) 95,65 %
27.09.2023 00:20 10,7 C 6,7 C 12,2 C 13,9 C 93 % 200 cb 11 cb 1023,0 hPa 0,0 l/m 1,6 km/h (1 Bft) W 270 0 min 0,000 mm 0,0 UV-I 0 W/m 9,6 C 10,7 C 3,2 km/h (1 Bft) 95,65 %
27.09.2023 00:19 10,9 C 6,7 C 12,2 C 14,4 C 94 % 200 cb 11 cb 1023,0 hPa 0,0 l/m 1,6 km/h (1 Bft) W 270 0 min 0,000 mm 0,0 UV-I 0 W/m 10,0 C 10,9 C 3,2 km/h (1 Bft) 95,65 %
27.09.2023 00:18 10,9 C 6,7 C 12,2 C 14,4 C 95 % 200 cb 11 cb 1022,9 hPa 0,0 l/m 1,6 km/h (1 Bft) S-SW 202 0 min 0,000 mm 0,0 UV-I 0 W/m 10,1 C 10,9 C 3,2 km/h (1 Bft) 95,65 %
27.09.2023 00:17 10,8 C 6,7 C 12,2 C 14,4 C 95 % 200 cb 11 cb 1023,0 hPa 0,0 l/m 1,6 km/h (1 Bft) S-SW 202 0 min 0,000 mm 0,0 UV-I 0 W/m 10,0 C 10,8 C 3,2 km/h (1 Bft) 86,96 %
27.09.2023 00:16 10,7 C 6,7 C 12,2 C 14,4 C 94 % 200 cb 11 cb 1023,0 hPa 0,0 l/m 1,6 km/h (1 Bft) O-NO 67 0 min 0,000 mm 0,0 UV-I 0 W/m 9,8 C 10,7 C 3,2 km/h (1 Bft) 95,65 %
27.09.2023 00:15 10,8 C 6,7 C 12,2 C 14,4 C 94 % 200 cb 11 cb 1022,9 hPa 0,0 l/m 3,2 km/h (1 Bft) O-NO 67 0 min 0,000 mm 0,0 UV-I 0 W/m 9,9 C 10,8 C 4,8 km/h (1 Bft) 95,65 %
27.09.2023 00:14 10,8 C 6,7 C 12,2 C 14,4 C 94 % 200 cb 11 cb 1022,9 hPa 0,0 l/m 3,2 km/h (1 Bft) O-NO 67 0 min 0,000 mm 0,0 UV-I 0 W/m 9,9 C 10,8 C 4,8 km/h (1 Bft) 95,65 %
27.09.2023 00:13 10,8 C 6,7 C 12,2 C 14,4 C 94 % 200 cb 11 cb 1023,0 hPa 0,0 l/m 1,6 km/h (1 Bft) S 180 0 min 0,000 mm 0,0 UV-I 0 W/m 9,9 C 10,8 C 3,2 km/h (1 Bft) 95,65 %
27.09.2023 00:12 10,9 C 6,7 C 12,2 C 14,4 C 94 % 200 cb 11 cb 1023,0 hPa 0,0 l/m 3,2 km/h (1 Bft) S-SW 202 0 min 0,000 mm 0,0 UV-I 0 W/m 10,0 C 10,9 C 3,2 km/h (1 Bft) 91,30 %
27.09.2023 00:11 10,9 C 6,7 C 12,2 C 14,4 C 94 % 200 cb 11 cb 1023,1 hPa 0,0 l/m 3,2 km/h (1 Bft) S 180 0 min 0,000 mm 0,0 UV-I 0 W/m 10,0 C 10,9 C 4,8 km/h (1 Bft) 91,30 %
27.09.2023 00:10 10,9 C 6,7 C 12,2 C 14,4 C 95 % 200 cb 11 cb 1023,0 hPa 0,0 l/m 1,6 km/h (1 Bft) O 90 0 min 0,000 mm 0,0 UV-I 0 W/m 10,1 C 10,9 C 3,2 km/h (1 Bft) 95,65 %
27.09.2023 00:09 10,7 C 6,7 C 12,2 C 14,4 C 95 % 200 cb 11 cb 1023,1 hPa 0,0 l/m 1,6 km/h (1 Bft) O-NO 67 0 min 0,000 mm 0,0 UV-I 0 W/m 9,9 C 10,7 C 3,2 km/h (1 Bft) 91,30 %
27.09.2023 00:08 10,7 C 7,2 C 12,2 C 14,4 C 94 % 200 cb 11 cb 1023,0 hPa 0,0 l/m 1,6 km/h (1 Bft) O-SO 112 0 min 0,000 mm 0,0 UV-I 0 W/m 9,8 C 10,7 C 1,6 km/h (1 Bft) 95,65 %
27.09.2023 00:07 10,6 C 7,2 C 12,2 C 14,4 C 94 % 200 cb 11 cb 1023,0 hPa 0,0 l/m 3,2 km/h (1 Bft) W-NW 292 0 min 0,000 mm 0,0 UV-I 0 W/m 9,7 C 10,6 C 3,2 km/h (1 Bft) 91,30 %
27.09.2023 00:06 10,6 C 7,2 C 12,2 C 14,4 C 94 % 200 cb 11 cb 1023,0 hPa 0,0 l/m 1,6 km/h (1 Bft) W 270 0 min 0,000 mm 0,0 UV-I 0 W/m 9,7 C 10,6 C 3,2 km/h (1 Bft) 91,30 %
27.09.2023 00:05 10,8 C 7,2 C 12,2 C 14,4 C 94 % 200 cb 11 cb 1023,0 hPa 0,0 l/m 1,6 km/h (1 Bft) O 90 0 min 0,000 mm 0,0 UV-I 0 W/m 9,9 C 10,8 C 4,8 km/h (1 Bft) 91,30 %
27.09.2023 00:04 10,8 C 7,2 C 12,8 C 14,4 C 94 % 200 cb 11 cb 1023,0 hPa 0,0 l/m 6,4 km/h (2 Bft) O 90 0 min 0,000 mm 0,0 UV-I 0 W/m 9,9 C 10,8 C 6,4 km/h (2 Bft) 95,65 %
27.09.2023 00:03 10,8 C 6,7 C 12,8 C 14,4 C 95 % 200 cb 11 cb 1023,0 hPa 0,0 l/m 6,4 km/h (2 Bft) O 90 0 min 0,000 mm 0,0 UV-I 0 W/m 10,0 C 10,8 C 8,0 km/h (2 Bft) 95,65 %
27.09.2023 00:02 10,8 C 6,7 C 12,8 C 14,4 C 94 % 200 cb 11 cb 1023,0 hPa 0,0 l/m 4,8 km/h (1 Bft) O 90 0 min 0,000 mm 0,0 UV-I 0 W/m 9,9 C 10,8 C 6,4 km/h (2 Bft) 95,65 %
27.09.2023 00:01 10,7 C 6,7 C 12,2 C 14,4 C 93 % 200 cb 11 cb 1023,1 hPa 0,0 l/m 3,2 km/h (1 Bft) O-SO 112 0 min 0,000 mm 0,0 UV-I 0 W/m 9,6 C 10,7 C 4,8 km/h (1 Bft) 91,30 %
27.09.2023 00:00 10,8 C 6,7 C 12,8 C 14,4 C 94 % 200 cb 11 cb 1023,1 hPa 0,0 l/m 3,2 km/h (1 Bft) S 180 0 min 0,000 mm 0,0 UV-I 0 W/m 9,9 C 10,8 C 3,2 km/h (1 Bft) 91,30 %
_ Min-Zeit 06:48 06:45 05:40 06:40 15:12 00:00 00:00 15:44 - 00:21 - - - - - - 06:48 07:01 00:08 00:53
Minimum _ 8,7 C 5,0 C 11,1 C 12,8 C 45 % 200 cb 11 cb 1021,2 hPa - 0,0 km/h (0 Bft) - - - - - - 8,1 C 8,3 C 1,6 km/h (1 Bft) 73,91 %
_ Max-Zeit 15:07 11:36 12:25 15:42 06:58 00:00 05:29 11:01 08:16 10:50 - - 09:28 13:00 12:25 12:14 14:23 15:07 10:30 00:02
Maximum _ 23,6 C 28,3 C 23,9 C 16,1 C 97 % 200 cb 12 cb 1023,4 hPa 0,1 l/m 30,6 km/h
W (5 Bft)
- - 1 min 0,406 mm 3,9 UV-I 552 W/m 13,3 C 23,6 C 46,7 km/h
W-NW (6 Bft)
95,65 %
Durchschnitt _ 15,5 C 12,8 C 14,7 C 14,0 C 76 % 200 cb 12 cb 1022,5 hPa #0,1 l/m 6,6 km/h (2 Bft) O - #6:22 h #2,107 mm 2,9 UV-I 344 W/m 10,4 C 15,5 C 11,6 km/h (2 Bft) 91,26 %